<?xml version="1.0" encoding="UTF-8" standalone="no" ?>
<gpx xmlns="http://www.topografix.com/GPX/1/1" xmlns:xsi="http://www.w3.org/2001/XMLSchema-instance" xsi:schemaLocation="http://www.topografix.com/GPX/1/1 http://www.topografix.com/GPX/1/1/gpx.xsd" version="1.1" creator="VisuGPX - https://www.visugpx.com">
  <metadata>
    <name>04-MARS-13 18:38:54</name>
  </metadata>
  <trk>
    <name><![CDATA[04-MARS-13 18:38:54]]></name>
    <trkseg>
      <trkpt lat="45.55063" lon="6.76384">
        <ele>1640.63</ele>
        <time>2013-03-04T08:31:22Z</time>
      </trkpt>
      <trkpt lat="45.55066" lon="6.76391">
        <ele>1641.59</ele>
        <time>2013-03-04T08:31:34Z</time>
      </trkpt>
      <trkpt lat="45.55066" lon="6.76398">
        <ele>1640.63</ele>
        <time>2013-03-04T08:31:44Z</time>
      </trkpt>
      <trkpt lat="45.55074" lon="6.76404">
        <ele>1633.42</ele>
        <time>2013-03-04T08:32:05Z</time>
      </trkpt>
      <trkpt lat="45.55078" lon="6.76407">
        <ele>1626.21</ele>
        <time>2013-03-04T08:32:16Z</time>
      </trkpt>
      <trkpt lat="45.55078" lon="6.76409">
        <ele>1626.21</ele>
        <time>2013-03-04T08:32:24Z</time>
      </trkpt>
      <trkpt lat="45.55079" lon="6.76409">
        <ele>1625.25</ele>
        <time>2013-03-04T08:32:29Z</time>
      </trkpt>
      <trkpt lat="45.55073" lon="6.76408">
        <ele>1623.8</ele>
        <time>2013-03-04T08:32:34Z</time>
      </trkpt>
      <trkpt lat="45.55063" lon="6.76411">
        <ele>1621.4</ele>
        <time>2013-03-04T08:32:42Z</time>
      </trkpt>
      <trkpt lat="45.55062" lon="6.76411">
        <ele>1620.92</ele>
        <time>2013-03-04T08:32:44Z</time>
      </trkpt>
      <trkpt lat="45.55056" lon="6.76412">
        <ele>1619.96</ele>
        <time>2013-03-04T08:32:50Z</time>
      </trkpt>
      <trkpt lat="45.55051" lon="6.76411">
        <ele>1619.48</ele>
        <time>2013-03-04T08:32:55Z</time>
      </trkpt>
      <trkpt lat="45.55042" lon="6.76408">
        <ele>1619.96</ele>
        <time>2013-03-04T08:33:03Z</time>
      </trkpt>
      <trkpt lat="45.55037" lon="6.76408">
        <ele>1620.92</ele>
        <time>2013-03-04T08:33:08Z</time>
      </trkpt>
      <trkpt lat="45.5503" lon="6.76408">
        <ele>1623.8</ele>
        <time>2013-03-04T08:33:15Z</time>
      </trkpt>
      <trkpt lat="45.55022" lon="6.76408">
        <ele>1627.17</ele>
        <time>2013-03-04T08:33:22Z</time>
      </trkpt>
      <trkpt lat="45.55017" lon="6.76409">
        <ele>1628.13</ele>
        <time>2013-03-04T08:33:27Z</time>
      </trkpt>
      <trkpt lat="45.55016" lon="6.76412">
        <ele>1628.13</ele>
        <time>2013-03-04T08:33:30Z</time>
      </trkpt>
      <trkpt lat="45.55009" lon="6.76415">
        <ele>1627.17</ele>
        <time>2013-03-04T08:33:37Z</time>
      </trkpt>
      <trkpt lat="45.55006" lon="6.76416">
        <ele>1627.17</ele>
        <time>2013-03-04T08:33:41Z</time>
      </trkpt>
      <trkpt lat="45.55" lon="6.76414">
        <ele>1628.61</ele>
        <time>2013-03-04T08:33:49Z</time>
      </trkpt>
      <trkpt lat="45.54999" lon="6.76416">
        <ele>1629.09</ele>
        <time>2013-03-04T08:33:54Z</time>
      </trkpt>
      <trkpt lat="45.54998" lon="6.7642">
        <ele>1629.09</ele>
        <time>2013-03-04T08:33:57Z</time>
      </trkpt>
      <trkpt lat="45.54993" lon="6.76422">
        <ele>1628.13</ele>
        <time>2013-03-04T08:34:04Z</time>
      </trkpt>
      <trkpt lat="45.54989" lon="6.76423">
        <ele>1628.13</ele>
        <time>2013-03-04T08:34:09Z</time>
      </trkpt>
      <trkpt lat="45.54984" lon="6.76422">
        <ele>1628.61</ele>
        <time>2013-03-04T08:34:12Z</time>
      </trkpt>
      <trkpt lat="45.54977" lon="6.76424">
        <ele>1629.09</ele>
        <time>2013-03-04T08:34:20Z</time>
      </trkpt>
      <trkpt lat="45.54976" lon="6.76424">
        <ele>1629.09</ele>
        <time>2013-03-04T08:34:21Z</time>
      </trkpt>
      <trkpt lat="45.54966" lon="6.76424">
        <ele>1631.01</ele>
        <time>2013-03-04T08:34:29Z</time>
      </trkpt>
      <trkpt lat="45.54965" lon="6.76425">
        <ele>1631.01</ele>
        <time>2013-03-04T08:34:30Z</time>
      </trkpt>
      <trkpt lat="45.54963" lon="6.76426">
        <ele>1631.98</ele>
        <time>2013-03-04T08:34:38Z</time>
      </trkpt>
      <trkpt lat="45.54957" lon="6.76427">
        <ele>1631.98</ele>
        <time>2013-03-04T08:34:44Z</time>
      </trkpt>
      <trkpt lat="45.5495" lon="6.76428">
        <ele>1631.49</ele>
        <time>2013-03-04T08:34:50Z</time>
      </trkpt>
      <trkpt lat="45.54945" lon="6.7643">
        <ele>1630.53</ele>
        <time>2013-03-04T08:34:57Z</time>
      </trkpt>
      <trkpt lat="45.54939" lon="6.7643">
        <ele>1630.05</ele>
        <time>2013-03-04T08:35:02Z</time>
      </trkpt>
      <trkpt lat="45.54936" lon="6.7643">
        <ele>1630.53</ele>
        <time>2013-03-04T08:35:05Z</time>
      </trkpt>
      <trkpt lat="45.54925" lon="6.76431">
        <ele>1631.49</ele>
        <time>2013-03-04T08:35:13Z</time>
      </trkpt>
      <trkpt lat="45.54925" lon="6.76432">
        <ele>1631.01</ele>
        <time>2013-03-04T08:35:14Z</time>
      </trkpt>
      <trkpt lat="45.54923" lon="6.76433">
        <ele>1630.53</ele>
        <time>2013-03-04T08:35:16Z</time>
      </trkpt>
      <trkpt lat="45.54922" lon="6.76434">
        <ele>1630.05</ele>
        <time>2013-03-04T08:35:19Z</time>
      </trkpt>
      <trkpt lat="45.54914" lon="6.76441">
        <ele>1627.17</ele>
        <time>2013-03-04T08:35:26Z</time>
      </trkpt>
      <trkpt lat="45.54914" lon="6.76442">
        <ele>1626.69</ele>
        <time>2013-03-04T08:35:27Z</time>
      </trkpt>
      <trkpt lat="45.5491" lon="6.76449">
        <ele>1624.28</ele>
        <time>2013-03-04T08:35:35Z</time>
      </trkpt>
      <trkpt lat="45.54908" lon="6.76452">
        <ele>1621.88</ele>
        <time>2013-03-04T08:35:43Z</time>
      </trkpt>
      <trkpt lat="45.54905" lon="6.7646">
        <ele>1620.92</ele>
        <time>2013-03-04T08:35:51Z</time>
      </trkpt>
      <trkpt lat="45.54901" lon="6.76469">
        <ele>1620.44</ele>
        <time>2013-03-04T08:35:57Z</time>
      </trkpt>
      <trkpt lat="45.54898" lon="6.76476">
        <ele>1619.96</ele>
        <time>2013-03-04T08:36:03Z</time>
      </trkpt>
      <trkpt lat="45.54897" lon="6.76479">
        <ele>1619.48</ele>
        <time>2013-03-04T08:36:05Z</time>
      </trkpt>
      <trkpt lat="45.54896" lon="6.76482">
        <ele>1618.52</ele>
        <time>2013-03-04T08:36:07Z</time>
      </trkpt>
      <trkpt lat="45.54891" lon="6.76487">
        <ele>1619.96</ele>
        <time>2013-03-04T08:36:13Z</time>
      </trkpt>
      <trkpt lat="45.5489" lon="6.76491">
        <ele>1619.96</ele>
        <time>2013-03-04T08:36:16Z</time>
      </trkpt>
      <trkpt lat="45.54887" lon="6.76496">
        <ele>1622.36</ele>
        <time>2013-03-04T08:36:21Z</time>
      </trkpt>
      <trkpt lat="45.54882" lon="6.76506">
        <ele>1624.77</ele>
        <time>2013-03-04T08:36:28Z</time>
      </trkpt>
      <trkpt lat="45.54879" lon="6.76515">
        <ele>1626.69</ele>
        <time>2013-03-04T08:36:34Z</time>
      </trkpt>
      <trkpt lat="45.54876" lon="6.7652">
        <ele>1627.65</ele>
        <time>2013-03-04T08:36:38Z</time>
      </trkpt>
      <trkpt lat="45.54871" lon="6.76527">
        <ele>1629.57</ele>
        <time>2013-03-04T08:36:46Z</time>
      </trkpt>
      <trkpt lat="45.54869" lon="6.76532">
        <ele>1630.53</ele>
        <time>2013-03-04T08:36:50Z</time>
      </trkpt>
      <trkpt lat="45.54863" lon="6.7654">
        <ele>1634.38</ele>
        <time>2013-03-04T08:36:58Z</time>
      </trkpt>
      <trkpt lat="45.54859" lon="6.76547">
        <ele>1636.3</ele>
        <time>2013-03-04T08:37:04Z</time>
      </trkpt>
      <trkpt lat="45.54854" lon="6.76551">
        <ele>1638.22</ele>
        <time>2013-03-04T08:37:10Z</time>
      </trkpt>
      <trkpt lat="45.54853" lon="6.76554">
        <ele>1638.7</ele>
        <time>2013-03-04T08:37:14Z</time>
      </trkpt>
      <trkpt lat="45.54851" lon="6.7656">
        <ele>1637.74</ele>
        <time>2013-03-04T08:37:18Z</time>
      </trkpt>
      <trkpt lat="45.54843" lon="6.76568">
        <ele>1637.26</ele>
        <time>2013-03-04T08:37:26Z</time>
      </trkpt>
      <trkpt lat="45.54837" lon="6.76574">
        <ele>1635.34</ele>
        <time>2013-03-04T08:37:33Z</time>
      </trkpt>
      <trkpt lat="45.54834" lon="6.76577">
        <ele>1635.34</ele>
        <time>2013-03-04T08:37:38Z</time>
      </trkpt>
      <trkpt lat="45.54833" lon="6.7658">
        <ele>1635.82</ele>
        <time>2013-03-04T08:37:47Z</time>
      </trkpt>
      <trkpt lat="45.54827" lon="6.76584">
        <ele>1636.78</ele>
        <time>2013-03-04T08:37:54Z</time>
      </trkpt>
      <trkpt lat="45.54825" lon="6.76585">
        <ele>1637.74</ele>
        <time>2013-03-04T08:37:56Z</time>
      </trkpt>
      <trkpt lat="45.54816" lon="6.76589">
        <ele>1639.67</ele>
        <time>2013-03-04T08:38:03Z</time>
      </trkpt>
      <trkpt lat="45.54811" lon="6.76593">
        <ele>1640.63</ele>
        <time>2013-03-04T08:38:09Z</time>
      </trkpt>
      <trkpt lat="45.54806" lon="6.76599">
        <ele>1642.07</ele>
        <time>2013-03-04T08:38:16Z</time>
      </trkpt>
      <trkpt lat="45.54801" lon="6.76603">
        <ele>1643.03</ele>
        <time>2013-03-04T08:38:23Z</time>
      </trkpt>
      <trkpt lat="45.54798" lon="6.76606">
        <ele>1643.51</ele>
        <time>2013-03-04T08:38:27Z</time>
      </trkpt>
      <trkpt lat="45.54796" lon="6.76609">
        <ele>1643.51</ele>
        <time>2013-03-04T08:38:30Z</time>
      </trkpt>
      <trkpt lat="45.54794" lon="6.76611">
        <ele>1643.03</ele>
        <time>2013-03-04T08:38:39Z</time>
      </trkpt>
      <trkpt lat="45.54793" lon="6.76612">
        <ele>1643.03</ele>
        <time>2013-03-04T08:38:49Z</time>
      </trkpt>
      <trkpt lat="45.54793" lon="6.7661">
        <ele>1643.99</ele>
        <time>2013-03-04T08:39:08Z</time>
      </trkpt>
      <trkpt lat="45.54793" lon="6.7661">
        <ele>1644.47</ele>
        <time>2013-03-04T08:39:26Z</time>
      </trkpt>
      <trkpt lat="45.54792" lon="6.7661">
        <ele>1644.47</ele>
        <time>2013-03-04T08:39:40Z</time>
      </trkpt>
      <trkpt lat="45.54792" lon="6.76611">
        <ele>1644.47</ele>
        <time>2013-03-04T08:39:59Z</time>
      </trkpt>
      <trkpt lat="45.54792" lon="6.7661">
        <ele>1644.95</ele>
        <time>2013-03-04T08:40:15Z</time>
      </trkpt>
      <trkpt lat="45.54792" lon="6.76611">
        <ele>1645.43</ele>
        <time>2013-03-04T08:40:34Z</time>
      </trkpt>
      <trkpt lat="45.54792" lon="6.76611">
        <ele>1645.43</ele>
        <time>2013-03-04T08:40:50Z</time>
      </trkpt>
      <trkpt lat="45.54791" lon="6.76611">
        <ele>1645.43</ele>
        <time>2013-03-04T08:40:59Z</time>
      </trkpt>
      <trkpt lat="45.5479" lon="6.76614">
        <ele>1644.95</ele>
        <time>2013-03-04T08:41:03Z</time>
      </trkpt>
      <trkpt lat="45.54788" lon="6.76615">
        <ele>1644.47</ele>
        <time>2013-03-04T08:41:05Z</time>
      </trkpt>
      <trkpt lat="45.54785" lon="6.76623">
        <ele>1644.47</ele>
        <time>2013-03-04T08:41:10Z</time>
      </trkpt>
      <trkpt lat="45.54778" lon="6.76631">
        <ele>1643.99</ele>
        <time>2013-03-04T08:41:19Z</time>
      </trkpt>
      <trkpt lat="45.54773" lon="6.76634">
        <ele>1643.51</ele>
        <time>2013-03-04T08:41:25Z</time>
      </trkpt>
      <trkpt lat="45.54767" lon="6.76638">
        <ele>1643.99</ele>
        <time>2013-03-04T08:41:32Z</time>
      </trkpt>
      <trkpt lat="45.54764" lon="6.7664">
        <ele>1644.47</ele>
        <time>2013-03-04T08:41:34Z</time>
      </trkpt>
      <trkpt lat="45.54761" lon="6.76639">
        <ele>1645.91</ele>
        <time>2013-03-04T08:41:37Z</time>
      </trkpt>
      <trkpt lat="45.54755" lon="6.76639">
        <ele>1647.36</ele>
        <time>2013-03-04T08:41:41Z</time>
      </trkpt>
      <trkpt lat="45.5475" lon="6.76643">
        <ele>1648.8</ele>
        <time>2013-03-04T08:41:47Z</time>
      </trkpt>
      <trkpt lat="45.54745" lon="6.76646">
        <ele>1649.28</ele>
        <time>2013-03-04T08:41:52Z</time>
      </trkpt>
      <trkpt lat="45.5474" lon="6.76647">
        <ele>1649.28</ele>
        <time>2013-03-04T08:41:57Z</time>
      </trkpt>
      <trkpt lat="45.54731" lon="6.76647">
        <ele>1650.72</ele>
        <time>2013-03-04T08:42:04Z</time>
      </trkpt>
      <trkpt lat="45.54729" lon="6.76647">
        <ele>1651.2</ele>
        <time>2013-03-04T08:42:06Z</time>
      </trkpt>
      <trkpt lat="45.54727" lon="6.76649">
        <ele>1651.68</ele>
        <time>2013-03-04T08:42:09Z</time>
      </trkpt>
      <trkpt lat="45.54718" lon="6.76645">
        <ele>1655.53</ele>
        <time>2013-03-04T08:42:17Z</time>
      </trkpt>
      <trkpt lat="45.54715" lon="6.76646">
        <ele>1656.97</ele>
        <time>2013-03-04T08:42:24Z</time>
      </trkpt>
      <trkpt lat="45.54713" lon="6.76648">
        <ele>1657.45</ele>
        <time>2013-03-04T08:42:27Z</time>
      </trkpt>
      <trkpt lat="45.5471" lon="6.7665">
        <ele>1657.93</ele>
        <time>2013-03-04T08:42:36Z</time>
      </trkpt>
      <trkpt lat="45.54709" lon="6.76653">
        <ele>1657.45</ele>
        <time>2013-03-04T08:42:39Z</time>
      </trkpt>
      <trkpt lat="45.54702" lon="6.76656">
        <ele>1657.45</ele>
        <time>2013-03-04T08:42:46Z</time>
      </trkpt>
      <trkpt lat="45.54698" lon="6.76658">
        <ele>1656.49</ele>
        <time>2013-03-04T08:42:51Z</time>
      </trkpt>
      <trkpt lat="45.54696" lon="6.76658">
        <ele>1656.97</ele>
        <time>2013-03-04T08:42:53Z</time>
      </trkpt>
      <trkpt lat="45.54689" lon="6.76661">
        <ele>1656.97</ele>
        <time>2013-03-04T08:43:01Z</time>
      </trkpt>
      <trkpt lat="45.54685" lon="6.76662">
        <ele>1657.45</ele>
        <time>2013-03-04T08:43:05Z</time>
      </trkpt>
      <trkpt lat="45.54683" lon="6.76664">
        <ele>1657.45</ele>
        <time>2013-03-04T08:43:07Z</time>
      </trkpt>
      <trkpt lat="45.54678" lon="6.76667">
        <ele>1656.97</ele>
        <time>2013-03-04T08:43:13Z</time>
      </trkpt>
      <trkpt lat="45.54673" lon="6.76668">
        <ele>1656.49</ele>
        <time>2013-03-04T08:43:19Z</time>
      </trkpt>
      <trkpt lat="45.54665" lon="6.76671">
        <ele>1655.53</ele>
        <time>2013-03-04T08:43:26Z</time>
      </trkpt>
      <trkpt lat="45.54664" lon="6.76672">
        <ele>1654.57</ele>
        <time>2013-03-04T08:43:33Z</time>
      </trkpt>
      <trkpt lat="45.54661" lon="6.76674">
        <ele>1654.09</ele>
        <time>2013-03-04T08:43:45Z</time>
      </trkpt>
      <trkpt lat="45.54656" lon="6.76677">
        <ele>1654.09</ele>
        <time>2013-03-04T08:43:52Z</time>
      </trkpt>
      <trkpt lat="45.54651" lon="6.7668">
        <ele>1655.53</ele>
        <time>2013-03-04T08:43:57Z</time>
      </trkpt>
      <trkpt lat="45.54645" lon="6.76684">
        <ele>1658.89</ele>
        <time>2013-03-04T08:44:04Z</time>
      </trkpt>
      <trkpt lat="45.5464" lon="6.76688">
        <ele>1659.85</ele>
        <time>2013-03-04T08:44:10Z</time>
      </trkpt>
      <trkpt lat="45.54633" lon="6.7669">
        <ele>1661.78</ele>
        <time>2013-03-04T08:44:17Z</time>
      </trkpt>
      <trkpt lat="45.54627" lon="6.76695">
        <ele>1664.18</ele>
        <time>2013-03-04T08:44:24Z</time>
      </trkpt>
      <trkpt lat="45.54622" lon="6.76697">
        <ele>1666.1</ele>
        <time>2013-03-04T08:44:30Z</time>
      </trkpt>
      <trkpt lat="45.54618" lon="6.76701">
        <ele>1666.58</ele>
        <time>2013-03-04T08:44:37Z</time>
      </trkpt>
      <trkpt lat="45.54616" lon="6.76703">
        <ele>1666.58</ele>
        <time>2013-03-04T08:44:40Z</time>
      </trkpt>
      <trkpt lat="45.54611" lon="6.76705">
        <ele>1667.54</ele>
        <time>2013-03-04T08:44:45Z</time>
      </trkpt>
      <trkpt lat="45.54604" lon="6.76707">
        <ele>1667.54</ele>
        <time>2013-03-04T08:44:52Z</time>
      </trkpt>
      <trkpt lat="45.54599" lon="6.76709">
        <ele>1669.47</ele>
        <time>2013-03-04T08:44:58Z</time>
      </trkpt>
      <trkpt lat="45.54597" lon="6.76709">
        <ele>1669.47</ele>
        <time>2013-03-04T08:45:00Z</time>
      </trkpt>
      <trkpt lat="45.54593" lon="6.7671">
        <ele>1668.99</ele>
        <time>2013-03-04T08:45:07Z</time>
      </trkpt>
      <trkpt lat="45.54587" lon="6.76713">
        <ele>1668.02</ele>
        <time>2013-03-04T08:45:13Z</time>
      </trkpt>
      <trkpt lat="45.54581" lon="6.76716">
        <ele>1667.54</ele>
        <time>2013-03-04T08:45:20Z</time>
      </trkpt>
      <trkpt lat="45.54579" lon="6.76717">
        <ele>1668.02</ele>
        <time>2013-03-04T08:45:23Z</time>
      </trkpt>
      <trkpt lat="45.54575" lon="6.76719">
        <ele>1668.02</ele>
        <time>2013-03-04T08:45:31Z</time>
      </trkpt>
      <trkpt lat="45.54575" lon="6.76719">
        <ele>1668.51</ele>
        <time>2013-03-04T08:45:49Z</time>
      </trkpt>
      <trkpt lat="45.54573" lon="6.76721">
        <ele>1668.51</ele>
        <time>2013-03-04T08:46:00Z</time>
      </trkpt>
      <trkpt lat="45.54572" lon="6.76723">
        <ele>1666.58</ele>
        <time>2013-03-04T08:46:09Z</time>
      </trkpt>
      <trkpt lat="45.54566" lon="6.76728">
        <ele>1667.06</ele>
        <time>2013-03-04T08:46:15Z</time>
      </trkpt>
      <trkpt lat="45.54565" lon="6.76728">
        <ele>1668.51</ele>
        <time>2013-03-04T08:46:25Z</time>
      </trkpt>
      <trkpt lat="45.54565" lon="6.7673">
        <ele>1669.47</ele>
        <time>2013-03-04T08:46:34Z</time>
      </trkpt>
      <trkpt lat="45.54564" lon="6.7673">
        <ele>1668.99</ele>
        <time>2013-03-04T08:46:44Z</time>
      </trkpt>
      <trkpt lat="45.54564" lon="6.76732">
        <ele>1668.99</ele>
        <time>2013-03-04T08:46:54Z</time>
      </trkpt>
      <trkpt lat="45.54564" lon="6.76731">
        <ele>1669.47</ele>
        <time>2013-03-04T08:47:09Z</time>
      </trkpt>
      <trkpt lat="45.54563" lon="6.76731">
        <ele>1669.47</ele>
        <time>2013-03-04T08:47:22Z</time>
      </trkpt>
      <trkpt lat="45.54563" lon="6.7673">
        <ele>1669.47</ele>
        <time>2013-03-04T08:47:38Z</time>
      </trkpt>
      <trkpt lat="45.54563" lon="6.7673">
        <ele>1669.95</ele>
        <time>2013-03-04T08:47:55Z</time>
      </trkpt>
      <trkpt lat="45.54563" lon="6.76729">
        <ele>1669.95</ele>
        <time>2013-03-04T08:48:10Z</time>
      </trkpt>
      <trkpt lat="45.54562" lon="6.76728">
        <ele>1669.47</ele>
        <time>2013-03-04T08:48:31Z</time>
      </trkpt>
      <trkpt lat="45.54562" lon="6.76729">
        <ele>1669.95</ele>
        <time>2013-03-04T08:48:44Z</time>
      </trkpt>
      <trkpt lat="45.54562" lon="6.76729">
        <ele>1669.95</ele>
        <time>2013-03-04T08:49:00Z</time>
      </trkpt>
      <trkpt lat="45.54562" lon="6.76729">
        <ele>1669.95</ele>
        <time>2013-03-04T08:49:18Z</time>
      </trkpt>
      <trkpt lat="45.54562" lon="6.76729">
        <ele>1669.95</ele>
        <time>2013-03-04T08:49:34Z</time>
      </trkpt>
      <trkpt lat="45.54562" lon="6.76729">
        <ele>1669.95</ele>
        <time>2013-03-04T08:49:55Z</time>
      </trkpt>
      <trkpt lat="45.54562" lon="6.76729">
        <ele>1670.91</ele>
        <time>2013-03-04T08:50:16Z</time>
      </trkpt>
      <trkpt lat="45.54562" lon="6.76729">
        <ele>1670.91</ele>
        <time>2013-03-04T08:50:39Z</time>
      </trkpt>
      <trkpt lat="45.54562" lon="6.76729">
        <ele>1671.39</ele>
        <time>2013-03-04T08:50:53Z</time>
      </trkpt>
      <trkpt lat="45.54562" lon="6.76729">
        <ele>1670.91</ele>
        <time>2013-03-04T08:51:12Z</time>
      </trkpt>
      <trkpt lat="45.54563" lon="6.76729">
        <ele>1670.91</ele>
        <time>2013-03-04T08:51:24Z</time>
      </trkpt>
      <trkpt lat="45.54563" lon="6.76729">
        <ele>1670.43</ele>
        <time>2013-03-04T08:51:34Z</time>
      </trkpt>
      <trkpt lat="45.54563" lon="6.76729">
        <ele>1669.95</ele>
        <time>2013-03-04T08:51:57Z</time>
      </trkpt>
      <trkpt lat="45.54563" lon="6.7673">
        <ele>1669.47</ele>
        <time>2013-03-04T08:52:15Z</time>
      </trkpt>
      <trkpt lat="45.54564" lon="6.76731">
        <ele>1668.99</ele>
        <time>2013-03-04T08:52:36Z</time>
      </trkpt>
      <trkpt lat="45.54563" lon="6.76732">
        <ele>1668.51</ele>
        <time>2013-03-04T08:52:48Z</time>
      </trkpt>
      <trkpt lat="45.54563" lon="6.76732">
        <ele>1668.99</ele>
        <time>2013-03-04T08:53:03Z</time>
      </trkpt>
      <trkpt lat="45.54563" lon="6.76731">
        <ele>1668.99</ele>
        <time>2013-03-04T08:53:22Z</time>
      </trkpt>
      <trkpt lat="45.54563" lon="6.76731">
        <ele>1669.47</ele>
        <time>2013-03-04T08:53:36Z</time>
      </trkpt>
      <trkpt lat="45.54564" lon="6.76732">
        <ele>1669.47</ele>
        <time>2013-03-04T08:53:50Z</time>
      </trkpt>
      <trkpt lat="45.54563" lon="6.76732">
        <ele>1669.95</ele>
        <time>2013-03-04T08:54:09Z</time>
      </trkpt>
      <trkpt lat="45.54564" lon="6.76731">
        <ele>1669.95</ele>
        <time>2013-03-04T08:54:26Z</time>
      </trkpt>
      <trkpt lat="45.54563" lon="6.76731">
        <ele>1669.95</ele>
        <time>2013-03-04T08:54:37Z</time>
      </trkpt>
      <trkpt lat="45.54564" lon="6.76731">
        <ele>1669.47</ele>
        <time>2013-03-04T08:54:53Z</time>
      </trkpt>
      <trkpt lat="45.54563" lon="6.76731">
        <ele>1669.95</ele>
        <time>2013-03-04T08:55:12Z</time>
      </trkpt>
      <trkpt lat="45.54563" lon="6.76731">
        <ele>1669.95</ele>
        <time>2013-03-04T08:55:32Z</time>
      </trkpt>
      <trkpt lat="45.54563" lon="6.7673">
        <ele>1670.43</ele>
        <time>2013-03-04T08:55:55Z</time>
      </trkpt>
      <trkpt lat="45.54563" lon="6.7673">
        <ele>1670.43</ele>
        <time>2013-03-04T08:56:06Z</time>
      </trkpt>
      <trkpt lat="45.54562" lon="6.76729">
        <ele>1669.95</ele>
        <time>2013-03-04T08:56:16Z</time>
      </trkpt>
      <trkpt lat="45.54562" lon="6.76729">
        <ele>1670.43</ele>
        <time>2013-03-04T08:56:32Z</time>
      </trkpt>
      <trkpt lat="45.54562" lon="6.76729">
        <ele>1670.43</ele>
        <time>2013-03-04T08:56:51Z</time>
      </trkpt>
      <trkpt lat="45.54562" lon="6.7673">
        <ele>1669.95</ele>
        <time>2013-03-04T08:56:58Z</time>
      </trkpt>
      <trkpt lat="45.54563" lon="6.76727">
        <ele>1670.43</ele>
        <time>2013-03-04T08:57:09Z</time>
      </trkpt>
      <trkpt lat="45.54563" lon="6.76727">
        <ele>1670.43</ele>
        <time>2013-03-04T08:57:34Z</time>
      </trkpt>
      <trkpt lat="45.54566" lon="6.76728">
        <ele>1669.95</ele>
        <time>2013-03-04T08:57:50Z</time>
      </trkpt>
      <trkpt lat="45.54566" lon="6.76728">
        <ele>1669.95</ele>
        <time>2013-03-04T08:58:01Z</time>
      </trkpt>
      <trkpt lat="45.54566" lon="6.76728">
        <ele>1670.43</ele>
        <time>2013-03-04T08:58:15Z</time>
      </trkpt>
      <trkpt lat="45.54564" lon="6.76729">
        <ele>1669.47</ele>
        <time>2013-03-04T08:58:33Z</time>
      </trkpt>
      <trkpt lat="45.54563" lon="6.76731">
        <ele>1669.47</ele>
        <time>2013-03-04T08:58:42Z</time>
      </trkpt>
      <trkpt lat="45.54564" lon="6.76731">
        <ele>1669.47</ele>
        <time>2013-03-04T08:58:57Z</time>
      </trkpt>
      <trkpt lat="45.54563" lon="6.76731">
        <ele>1669.47</ele>
        <time>2013-03-04T08:59:12Z</time>
      </trkpt>
      <trkpt lat="45.54563" lon="6.76731">
        <ele>1669.47</ele>
        <time>2013-03-04T08:59:26Z</time>
      </trkpt>
      <trkpt lat="45.54563" lon="6.7673">
        <ele>1669.95</ele>
        <time>2013-03-04T08:59:43Z</time>
      </trkpt>
      <trkpt lat="45.54563" lon="6.7673">
        <ele>1671.39</ele>
        <time>2013-03-04T08:59:56Z</time>
      </trkpt>
      <trkpt lat="45.54564" lon="6.7673">
        <ele>1671.87</ele>
        <time>2013-03-04T09:00:10Z</time>
      </trkpt>
      <trkpt lat="45.54563" lon="6.76731">
        <ele>1672.35</ele>
        <time>2013-03-04T09:00:25Z</time>
      </trkpt>
      <trkpt lat="45.54563" lon="6.76731">
        <ele>1672.35</ele>
        <time>2013-03-04T09:00:37Z</time>
      </trkpt>
      <trkpt lat="45.54563" lon="6.76731">
        <ele>1671.87</ele>
        <time>2013-03-04T09:00:49Z</time>
      </trkpt>
      <trkpt lat="45.54563" lon="6.76731">
        <ele>1671.39</ele>
        <time>2013-03-04T09:01:14Z</time>
      </trkpt>
      <trkpt lat="45.54563" lon="6.7673">
        <ele>1671.39</ele>
        <time>2013-03-04T09:01:31Z</time>
      </trkpt>
      <trkpt lat="45.54563" lon="6.7673">
        <ele>1670.91</ele>
        <time>2013-03-04T09:01:54Z</time>
      </trkpt>
      <trkpt lat="45.54563" lon="6.76729">
        <ele>1670.91</ele>
        <time>2013-03-04T09:02:18Z</time>
      </trkpt>
      <trkpt lat="45.54563" lon="6.76729">
        <ele>1670.91</ele>
        <time>2013-03-04T09:02:31Z</time>
      </trkpt>
      <trkpt lat="45.54563" lon="6.76729">
        <ele>1670.91</ele>
        <time>2013-03-04T09:02:49Z</time>
      </trkpt>
      <trkpt lat="45.54562" lon="6.76729">
        <ele>1671.39</ele>
        <time>2013-03-04T09:03:02Z</time>
      </trkpt>
      <trkpt lat="45.54562" lon="6.7673">
        <ele>1671.87</ele>
        <time>2013-03-04T09:03:21Z</time>
      </trkpt>
      <trkpt lat="45.54561" lon="6.76729">
        <ele>1671.87</ele>
        <time>2013-03-04T09:03:32Z</time>
      </trkpt>
      <trkpt lat="45.54557" lon="6.76732">
        <ele>1671.39</ele>
        <time>2013-03-04T09:03:38Z</time>
      </trkpt>
      <trkpt lat="45.54551" lon="6.76734">
        <ele>1671.87</ele>
        <time>2013-03-04T09:03:46Z</time>
      </trkpt>
      <trkpt lat="45.54546" lon="6.76738">
        <ele>1672.35</ele>
        <time>2013-03-04T09:03:52Z</time>
      </trkpt>
      <trkpt lat="45.54542" lon="6.76743">
        <ele>1671.39</ele>
        <time>2013-03-04T09:03:59Z</time>
      </trkpt>
      <trkpt lat="45.54535" lon="6.76748">
        <ele>1672.35</ele>
        <time>2013-03-04T09:04:07Z</time>
      </trkpt>
      <trkpt lat="45.54534" lon="6.76748">
        <ele>1672.35</ele>
        <time>2013-03-04T09:04:08Z</time>
      </trkpt>
      <trkpt lat="45.54529" lon="6.76753">
        <ele>1672.83</ele>
        <time>2013-03-04T09:04:16Z</time>
      </trkpt>
      <trkpt lat="45.54522" lon="6.7676">
        <ele>1672.83</ele>
        <time>2013-03-04T09:04:24Z</time>
      </trkpt>
      <trkpt lat="45.54516" lon="6.76765">
        <ele>1672.35</ele>
        <time>2013-03-04T09:04:31Z</time>
      </trkpt>
      <trkpt lat="45.54512" lon="6.76769">
        <ele>1673.31</ele>
        <time>2013-03-04T09:04:38Z</time>
      </trkpt>
      <trkpt lat="45.54506" lon="6.76771">
        <ele>1673.31</ele>
        <time>2013-03-04T09:04:44Z</time>
      </trkpt>
      <trkpt lat="45.54501" lon="6.76774">
        <ele>1673.79</ele>
        <time>2013-03-04T09:04:51Z</time>
      </trkpt>
      <trkpt lat="45.54498" lon="6.76773">
        <ele>1673.79</ele>
        <time>2013-03-04T09:04:54Z</time>
      </trkpt>
      <trkpt lat="45.54496" lon="6.76774">
        <ele>1673.79</ele>
        <time>2013-03-04T09:04:56Z</time>
      </trkpt>
      <trkpt lat="45.54491" lon="6.76774">
        <ele>1673.79</ele>
        <time>2013-03-04T09:05:04Z</time>
      </trkpt>
      <trkpt lat="45.54485" lon="6.76775">
        <ele>1674.27</ele>
        <time>2013-03-04T09:05:10Z</time>
      </trkpt>
      <trkpt lat="45.54479" lon="6.76779">
        <ele>1673.79</ele>
        <time>2013-03-04T09:05:18Z</time>
      </trkpt>
      <trkpt lat="45.54475" lon="6.76783">
        <ele>1673.79</ele>
        <time>2013-03-04T09:05:24Z</time>
      </trkpt>
      <trkpt lat="45.54471" lon="6.76786">
        <ele>1674.75</ele>
        <time>2013-03-04T09:05:30Z</time>
      </trkpt>
      <trkpt lat="45.54466" lon="6.76789">
        <ele>1674.27</ele>
        <time>2013-03-04T09:05:37Z</time>
      </trkpt>
      <trkpt lat="45.54462" lon="6.76793">
        <ele>1674.27</ele>
        <time>2013-03-04T09:05:46Z</time>
      </trkpt>
      <trkpt lat="45.54457" lon="6.76797">
        <ele>1675.23</ele>
        <time>2013-03-04T09:05:53Z</time>
      </trkpt>
      <trkpt lat="45.54454" lon="6.768">
        <ele>1675.72</ele>
        <time>2013-03-04T09:05:59Z</time>
      </trkpt>
      <trkpt lat="45.54449" lon="6.76802">
        <ele>1675.72</ele>
        <time>2013-03-04T09:06:05Z</time>
      </trkpt>
      <trkpt lat="45.54448" lon="6.76804">
        <ele>1676.2</ele>
        <time>2013-03-04T09:06:07Z</time>
      </trkpt>
      <trkpt lat="45.54443" lon="6.76808">
        <ele>1676.2</ele>
        <time>2013-03-04T09:06:14Z</time>
      </trkpt>
      <trkpt lat="45.54441" lon="6.76809">
        <ele>1676.2</ele>
        <time>2013-03-04T09:06:16Z</time>
      </trkpt>
      <trkpt lat="45.54439" lon="6.7681">
        <ele>1676.2</ele>
        <time>2013-03-04T09:06:18Z</time>
      </trkpt>
      <trkpt lat="45.54433" lon="6.76813">
        <ele>1676.68</ele>
        <time>2013-03-04T09:06:27Z</time>
      </trkpt>
      <trkpt lat="45.54427" lon="6.76816">
        <ele>1677.64</ele>
        <time>2013-03-04T09:06:35Z</time>
      </trkpt>
      <trkpt lat="45.54425" lon="6.76817">
        <ele>1678.12</ele>
        <time>2013-03-04T09:06:39Z</time>
      </trkpt>
      <trkpt lat="45.54421" lon="6.76821">
        <ele>1679.56</ele>
        <time>2013-03-04T09:06:44Z</time>
      </trkpt>
      <trkpt lat="45.54418" lon="6.76828">
        <ele>1679.56</ele>
        <time>2013-03-04T09:06:51Z</time>
      </trkpt>
      <trkpt lat="45.54418" lon="6.7683">
        <ele>1679.56</ele>
        <time>2013-03-04T09:06:53Z</time>
      </trkpt>
      <trkpt lat="45.54413" lon="6.76834">
        <ele>1681.96</ele>
        <time>2013-03-04T09:07:01Z</time>
      </trkpt>
      <trkpt lat="45.5441" lon="6.76839">
        <ele>1683.89</ele>
        <time>2013-03-04T09:07:07Z</time>
      </trkpt>
      <trkpt lat="45.54406" lon="6.76842">
        <ele>1685.33</ele>
        <time>2013-03-04T09:07:13Z</time>
      </trkpt>
      <trkpt lat="45.54402" lon="6.76847">
        <ele>1686.29</ele>
        <time>2013-03-04T09:07:20Z</time>
      </trkpt>
      <trkpt lat="45.544" lon="6.76852">
        <ele>1687.25</ele>
        <time>2013-03-04T09:07:28Z</time>
      </trkpt>
      <trkpt lat="45.544" lon="6.76852">
        <ele>1687.25</ele>
        <time>2013-03-04T09:07:45Z</time>
      </trkpt>
      <trkpt lat="45.544" lon="6.76854">
        <ele>1687.25</ele>
        <time>2013-03-04T09:07:53Z</time>
      </trkpt>
      <trkpt lat="45.54404" lon="6.76858">
        <ele>1688.21</ele>
        <time>2013-03-04T09:08:00Z</time>
      </trkpt>
      <trkpt lat="45.5441" lon="6.76858">
        <ele>1689.17</ele>
        <time>2013-03-04T09:08:06Z</time>
      </trkpt>
      <trkpt lat="45.54416" lon="6.76854">
        <ele>1689.17</ele>
        <time>2013-03-04T09:08:13Z</time>
      </trkpt>
      <trkpt lat="45.54422" lon="6.76851">
        <ele>1689.65</ele>
        <time>2013-03-04T09:08:20Z</time>
      </trkpt>
      <trkpt lat="45.54428" lon="6.76847">
        <ele>1690.62</ele>
        <time>2013-03-04T09:08:28Z</time>
      </trkpt>
      <trkpt lat="45.54428" lon="6.76846">
        <ele>1691.1</ele>
        <time>2013-03-04T09:08:29Z</time>
      </trkpt>
      <trkpt lat="45.54436" lon="6.76841">
        <ele>1693.5</ele>
        <time>2013-03-04T09:08:38Z</time>
      </trkpt>
      <trkpt lat="45.54443" lon="6.76837">
        <ele>1693.5</ele>
        <time>2013-03-04T09:08:47Z</time>
      </trkpt>
      <trkpt lat="45.54445" lon="6.76836">
        <ele>1693.98</ele>
        <time>2013-03-04T09:08:50Z</time>
      </trkpt>
      <trkpt lat="45.54449" lon="6.76836">
        <ele>1693.98</ele>
        <time>2013-03-04T09:08:53Z</time>
      </trkpt>
      <trkpt lat="45.54455" lon="6.76834">
        <ele>1693.02</ele>
        <time>2013-03-04T09:09:02Z</time>
      </trkpt>
      <trkpt lat="45.54463" lon="6.76835">
        <ele>1693.02</ele>
        <time>2013-03-04T09:09:13Z</time>
      </trkpt>
      <trkpt lat="45.54465" lon="6.76835">
        <ele>1693.02</ele>
        <time>2013-03-04T09:09:25Z</time>
      </trkpt>
      <trkpt lat="45.54467" lon="6.76836">
        <ele>1693.5</ele>
        <time>2013-03-04T09:09:40Z</time>
      </trkpt>
      <trkpt lat="45.54468" lon="6.76836">
        <ele>1693.5</ele>
        <time>2013-03-04T09:09:57Z</time>
      </trkpt>
      <trkpt lat="45.54468" lon="6.76835">
        <ele>1693.02</ele>
        <time>2013-03-04T09:10:16Z</time>
      </trkpt>
      <trkpt lat="45.54468" lon="6.76836">
        <ele>1693.02</ele>
        <time>2013-03-04T09:10:42Z</time>
      </trkpt>
      <trkpt lat="45.54469" lon="6.76836">
        <ele>1693.5</ele>
        <time>2013-03-04T09:11:00Z</time>
      </trkpt>
      <trkpt lat="45.54468" lon="6.76836">
        <ele>1693.98</ele>
        <time>2013-03-04T09:11:11Z</time>
      </trkpt>
      <trkpt lat="45.54468" lon="6.76835">
        <ele>1693.98</ele>
        <time>2013-03-04T09:11:25Z</time>
      </trkpt>
      <trkpt lat="45.54467" lon="6.76835">
        <ele>1694.46</ele>
        <time>2013-03-04T09:11:44Z</time>
      </trkpt>
      <trkpt lat="45.54468" lon="6.76835">
        <ele>1693.98</ele>
        <time>2013-03-04T09:11:58Z</time>
      </trkpt>
      <trkpt lat="45.54479" lon="6.76838">
        <ele>1695.9</ele>
        <time>2013-03-04T09:12:08Z</time>
      </trkpt>
      <trkpt lat="45.54483" lon="6.76839">
        <ele>1696.86</ele>
        <time>2013-03-04T09:12:14Z</time>
      </trkpt>
      <trkpt lat="45.54491" lon="6.76844">
        <ele>1698.79</ele>
        <time>2013-03-04T09:12:24Z</time>
      </trkpt>
      <trkpt lat="45.54493" lon="6.76845">
        <ele>1699.27</ele>
        <time>2013-03-04T09:12:26Z</time>
      </trkpt>
      <trkpt lat="45.54503" lon="6.76852">
        <ele>1701.67</ele>
        <time>2013-03-04T09:12:38Z</time>
      </trkpt>
      <trkpt lat="45.54508" lon="6.76856">
        <ele>1704.07</ele>
        <time>2013-03-04T09:12:46Z</time>
      </trkpt>
      <trkpt lat="45.54517" lon="6.76863">
        <ele>1706</ele>
        <time>2013-03-04T09:12:58Z</time>
      </trkpt>
      <trkpt lat="45.54524" lon="6.76868">
        <ele>1708.4</ele>
        <time>2013-03-04T09:13:08Z</time>
      </trkpt>
      <trkpt lat="45.54529" lon="6.76873">
        <ele>1708.88</ele>
        <time>2013-03-04T09:13:19Z</time>
      </trkpt>
      <trkpt lat="45.54534" lon="6.76876">
        <ele>1709.36</ele>
        <time>2013-03-04T09:13:28Z</time>
      </trkpt>
      <trkpt lat="45.5454" lon="6.7688">
        <ele>1710.32</ele>
        <time>2013-03-04T09:13:36Z</time>
      </trkpt>
      <trkpt lat="45.54549" lon="6.76884">
        <ele>1712.25</ele>
        <time>2013-03-04T09:13:47Z</time>
      </trkpt>
      <trkpt lat="45.54547" lon="6.76893">
        <ele>1713.21</ele>
        <time>2013-03-04T09:13:58Z</time>
      </trkpt>
      <trkpt lat="45.54543" lon="6.76895">
        <ele>1713.69</ele>
        <time>2013-03-04T09:14:03Z</time>
      </trkpt>
      <trkpt lat="45.54536" lon="6.76891">
        <ele>1712.25</ele>
        <time>2013-03-04T09:14:11Z</time>
      </trkpt>
      <trkpt lat="45.5453" lon="6.7689">
        <ele>1712.25</ele>
        <time>2013-03-04T09:14:20Z</time>
      </trkpt>
      <trkpt lat="45.54522" lon="6.7689">
        <ele>1711.76</ele>
        <time>2013-03-04T09:14:28Z</time>
      </trkpt>
      <trkpt lat="45.54519" lon="6.76889">
        <ele>1711.28</ele>
        <time>2013-03-04T09:14:34Z</time>
      </trkpt>
      <trkpt lat="45.54516" lon="6.76887">
        <ele>1711.76</ele>
        <time>2013-03-04T09:14:41Z</time>
      </trkpt>
      <trkpt lat="45.54514" lon="6.76886">
        <ele>1712.73</ele>
        <time>2013-03-04T09:14:47Z</time>
      </trkpt>
      <trkpt lat="45.54508" lon="6.76883">
        <ele>1713.69</ele>
        <time>2013-03-04T09:14:54Z</time>
      </trkpt>
      <trkpt lat="45.54507" lon="6.76883">
        <ele>1713.69</ele>
        <time>2013-03-04T09:14:58Z</time>
      </trkpt>
      <trkpt lat="45.54501" lon="6.76884">
        <ele>1713.69</ele>
        <time>2013-03-04T09:15:06Z</time>
      </trkpt>
      <trkpt lat="45.54494" lon="6.76886">
        <ele>1712.25</ele>
        <time>2013-03-04T09:15:14Z</time>
      </trkpt>
      <trkpt lat="45.54493" lon="6.76887">
        <ele>1711.76</ele>
        <time>2013-03-04T09:15:19Z</time>
      </trkpt>
      <trkpt lat="45.54489" lon="6.76891">
        <ele>1711.76</ele>
        <time>2013-03-04T09:15:26Z</time>
      </trkpt>
      <trkpt lat="45.54485" lon="6.76892">
        <ele>1711.76</ele>
        <time>2013-03-04T09:15:32Z</time>
      </trkpt>
      <trkpt lat="45.5448" lon="6.76892">
        <ele>1712.73</ele>
        <time>2013-03-04T09:15:39Z</time>
      </trkpt>
      <trkpt lat="45.54477" lon="6.76892">
        <ele>1712.25</ele>
        <time>2013-03-04T09:15:41Z</time>
      </trkpt>
      <trkpt lat="45.54471" lon="6.76894">
        <ele>1711.76</ele>
        <time>2013-03-04T09:15:48Z</time>
      </trkpt>
      <trkpt lat="45.54464" lon="6.76895">
        <ele>1712.73</ele>
        <time>2013-03-04T09:15:55Z</time>
      </trkpt>
      <trkpt lat="45.54463" lon="6.76895">
        <ele>1712.73</ele>
        <time>2013-03-04T09:15:56Z</time>
      </trkpt>
      <trkpt lat="45.54455" lon="6.76896">
        <ele>1713.69</ele>
        <time>2013-03-04T09:16:04Z</time>
      </trkpt>
      <trkpt lat="45.54448" lon="6.76898">
        <ele>1714.17</ele>
        <time>2013-03-04T09:16:13Z</time>
      </trkpt>
      <trkpt lat="45.54447" lon="6.76898">
        <ele>1714.17</ele>
        <time>2013-03-04T09:16:15Z</time>
      </trkpt>
      <trkpt lat="45.54444" lon="6.76903">
        <ele>1714.65</ele>
        <time>2013-03-04T09:16:22Z</time>
      </trkpt>
      <trkpt lat="45.54438" lon="6.76908">
        <ele>1714.65</ele>
        <time>2013-03-04T09:16:30Z</time>
      </trkpt>
      <trkpt lat="45.54435" lon="6.76912">
        <ele>1714.65</ele>
        <time>2013-03-04T09:16:38Z</time>
      </trkpt>
      <trkpt lat="45.54431" lon="6.76915">
        <ele>1715.13</ele>
        <time>2013-03-04T09:16:44Z</time>
      </trkpt>
      <trkpt lat="45.54426" lon="6.76917">
        <ele>1714.65</ele>
        <time>2013-03-04T09:16:51Z</time>
      </trkpt>
      <trkpt lat="45.5442" lon="6.76921">
        <ele>1717.05</ele>
        <time>2013-03-04T09:16:59Z</time>
      </trkpt>
      <trkpt lat="45.54416" lon="6.76924">
        <ele>1718.01</ele>
        <time>2013-03-04T09:17:04Z</time>
      </trkpt>
      <trkpt lat="45.54415" lon="6.76926">
        <ele>1718.49</ele>
        <time>2013-03-04T09:17:06Z</time>
      </trkpt>
      <trkpt lat="45.54411" lon="6.76928">
        <ele>1719.46</ele>
        <time>2013-03-04T09:17:13Z</time>
      </trkpt>
      <trkpt lat="45.54405" lon="6.76931">
        <ele>1719.94</ele>
        <time>2013-03-04T09:17:20Z</time>
      </trkpt>
      <trkpt lat="45.544" lon="6.76934">
        <ele>1720.42</ele>
        <time>2013-03-04T09:17:27Z</time>
      </trkpt>
      <trkpt lat="45.54397" lon="6.76937">
        <ele>1720.42</ele>
        <time>2013-03-04T09:17:33Z</time>
      </trkpt>
      <trkpt lat="45.54395" lon="6.76937">
        <ele>1719.94</ele>
        <time>2013-03-04T09:17:35Z</time>
      </trkpt>
      <trkpt lat="45.5439" lon="6.76942">
        <ele>1719.94</ele>
        <time>2013-03-04T09:17:43Z</time>
      </trkpt>
      <trkpt lat="45.54387" lon="6.76945">
        <ele>1720.9</ele>
        <time>2013-03-04T09:17:49Z</time>
      </trkpt>
      <trkpt lat="45.54386" lon="6.76945">
        <ele>1720.9</ele>
        <time>2013-03-04T09:17:51Z</time>
      </trkpt>
      <trkpt lat="45.54382" lon="6.76951">
        <ele>1721.86</ele>
        <time>2013-03-04T09:17:58Z</time>
      </trkpt>
      <trkpt lat="45.54376" lon="6.76955">
        <ele>1722.34</ele>
        <time>2013-03-04T09:18:05Z</time>
      </trkpt>
      <trkpt lat="45.5437" lon="6.7696">
        <ele>1721.86</ele>
        <time>2013-03-04T09:18:12Z</time>
      </trkpt>
      <trkpt lat="45.54363" lon="6.76964">
        <ele>1721.38</ele>
        <time>2013-03-04T09:18:21Z</time>
      </trkpt>
      <trkpt lat="45.54358" lon="6.76968">
        <ele>1723.3</ele>
        <time>2013-03-04T09:18:30Z</time>
      </trkpt>
      <trkpt lat="45.54354" lon="6.76971">
        <ele>1724.74</ele>
        <time>2013-03-04T09:18:38Z</time>
      </trkpt>
      <trkpt lat="45.5435" lon="6.76973">
        <ele>1725.7</ele>
        <time>2013-03-04T09:18:45Z</time>
      </trkpt>
      <trkpt lat="45.54344" lon="6.76977">
        <ele>1727.15</ele>
        <time>2013-03-04T09:18:52Z</time>
      </trkpt>
      <trkpt lat="45.54338" lon="6.76979">
        <ele>1728.59</ele>
        <time>2013-03-04T09:18:59Z</time>
      </trkpt>
      <trkpt lat="45.54335" lon="6.76983">
        <ele>1728.59</ele>
        <time>2013-03-04T09:19:06Z</time>
      </trkpt>
      <trkpt lat="45.54328" lon="6.76988">
        <ele>1730.99</ele>
        <time>2013-03-04T09:19:14Z</time>
      </trkpt>
      <trkpt lat="45.54322" lon="6.76992">
        <ele>1731.95</ele>
        <time>2013-03-04T09:19:20Z</time>
      </trkpt>
      <trkpt lat="45.54315" lon="6.76997">
        <ele>1732.91</ele>
        <time>2013-03-04T09:19:28Z</time>
      </trkpt>
      <trkpt lat="45.54309" lon="6.77003">
        <ele>1733.39</ele>
        <time>2013-03-04T09:19:36Z</time>
      </trkpt>
      <trkpt lat="45.54309" lon="6.77003">
        <ele>1733.39</ele>
        <time>2013-03-04T09:19:37Z</time>
      </trkpt>
      <trkpt lat="45.54306" lon="6.77006">
        <ele>1733.88</ele>
        <time>2013-03-04T09:19:43Z</time>
      </trkpt>
      <trkpt lat="45.54304" lon="6.77011">
        <ele>1733.39</ele>
        <time>2013-03-04T09:19:48Z</time>
      </trkpt>
      <trkpt lat="45.54302" lon="6.77013">
        <ele>1733.39</ele>
        <time>2013-03-04T09:19:51Z</time>
      </trkpt>
      <trkpt lat="45.543" lon="6.77018">
        <ele>1732.91</ele>
        <time>2013-03-04T09:19:56Z</time>
      </trkpt>
      <trkpt lat="45.54292" lon="6.77028">
        <ele>1731.95</ele>
        <time>2013-03-04T09:20:05Z</time>
      </trkpt>
      <trkpt lat="45.54291" lon="6.77029">
        <ele>1732.43</ele>
        <time>2013-03-04T09:20:06Z</time>
      </trkpt>
      <trkpt lat="45.54283" lon="6.77041">
        <ele>1734.36</ele>
        <time>2013-03-04T09:20:14Z</time>
      </trkpt>
      <trkpt lat="45.54282" lon="6.77046">
        <ele>1734.84</ele>
        <time>2013-03-04T09:20:17Z</time>
      </trkpt>
      <trkpt lat="45.5428" lon="6.7705">
        <ele>1735.32</ele>
        <time>2013-03-04T09:20:20Z</time>
      </trkpt>
      <trkpt lat="45.54279" lon="6.77052">
        <ele>1735.8</ele>
        <time>2013-03-04T09:20:22Z</time>
      </trkpt>
      <trkpt lat="45.54274" lon="6.77059">
        <ele>1735.8</ele>
        <time>2013-03-04T09:20:30Z</time>
      </trkpt>
      <trkpt lat="45.54271" lon="6.77066">
        <ele>1736.28</ele>
        <time>2013-03-04T09:20:38Z</time>
      </trkpt>
      <trkpt lat="45.54268" lon="6.77073">
        <ele>1737.24</ele>
        <time>2013-03-04T09:20:44Z</time>
      </trkpt>
      <trkpt lat="45.54264" lon="6.77077">
        <ele>1737.72</ele>
        <time>2013-03-04T09:20:49Z</time>
      </trkpt>
      <trkpt lat="45.54259" lon="6.77087">
        <ele>1738.2</ele>
        <time>2013-03-04T09:20:58Z</time>
      </trkpt>
      <trkpt lat="45.54253" lon="6.77095">
        <ele>1737.72</ele>
        <time>2013-03-04T09:21:06Z</time>
      </trkpt>
      <trkpt lat="45.5425" lon="6.77097">
        <ele>1737.72</ele>
        <time>2013-03-04T09:21:10Z</time>
      </trkpt>
      <trkpt lat="45.54243" lon="6.77107">
        <ele>1737.24</ele>
        <time>2013-03-04T09:21:19Z</time>
      </trkpt>
      <trkpt lat="45.54242" lon="6.77109">
        <ele>1737.72</ele>
        <time>2013-03-04T09:21:21Z</time>
      </trkpt>
      <trkpt lat="45.54241" lon="6.77117">
        <ele>1738.2</ele>
        <time>2013-03-04T09:21:30Z</time>
      </trkpt>
      <trkpt lat="45.54237" lon="6.77124">
        <ele>1740.12</ele>
        <time>2013-03-04T09:21:37Z</time>
      </trkpt>
      <trkpt lat="45.54235" lon="6.7713">
        <ele>1741.57</ele>
        <time>2013-03-04T09:21:42Z</time>
      </trkpt>
      <trkpt lat="45.54232" lon="6.77133">
        <ele>1741.57</ele>
        <time>2013-03-04T09:21:50Z</time>
      </trkpt>
      <trkpt lat="45.54231" lon="6.77136">
        <ele>1742.05</ele>
        <time>2013-03-04T09:21:52Z</time>
      </trkpt>
      <trkpt lat="45.54227" lon="6.77142">
        <ele>1743.01</ele>
        <time>2013-03-04T09:22:00Z</time>
      </trkpt>
      <trkpt lat="45.54225" lon="6.77145">
        <ele>1743.97</ele>
        <time>2013-03-04T09:22:08Z</time>
      </trkpt>
      <trkpt lat="45.54223" lon="6.77148">
        <ele>1744.93</ele>
        <time>2013-03-04T09:22:21Z</time>
      </trkpt>
      <trkpt lat="45.54223" lon="6.77148">
        <ele>1744.93</ele>
        <time>2013-03-04T09:22:33Z</time>
      </trkpt>
      <trkpt lat="45.54223" lon="6.77149">
        <ele>1746.37</ele>
        <time>2013-03-04T09:22:51Z</time>
      </trkpt>
      <trkpt lat="45.54223" lon="6.77148">
        <ele>1747.33</ele>
        <time>2013-03-04T09:23:07Z</time>
      </trkpt>
      <trkpt lat="45.54224" lon="6.77149">
        <ele>1747.33</ele>
        <time>2013-03-04T09:23:33Z</time>
      </trkpt>
      <trkpt lat="45.54224" lon="6.77148">
        <ele>1747.33</ele>
        <time>2013-03-04T09:23:44Z</time>
      </trkpt>
      <trkpt lat="45.54224" lon="6.77149">
        <ele>1747.33</ele>
        <time>2013-03-04T09:24:00Z</time>
      </trkpt>
      <trkpt lat="45.54224" lon="6.77149">
        <ele>1747.81</ele>
        <time>2013-03-04T09:24:11Z</time>
      </trkpt>
      <trkpt lat="45.54223" lon="6.77148">
        <ele>1747.81</ele>
        <time>2013-03-04T09:24:20Z</time>
      </trkpt>
      <trkpt lat="45.54223" lon="6.77147">
        <ele>1747.81</ele>
        <time>2013-03-04T09:24:35Z</time>
      </trkpt>
      <trkpt lat="45.54221" lon="6.77145">
        <ele>1748.29</ele>
        <time>2013-03-04T09:24:41Z</time>
      </trkpt>
      <trkpt lat="45.54221" lon="6.77145">
        <ele>1748.78</ele>
        <time>2013-03-04T09:24:49Z</time>
      </trkpt>
      <trkpt lat="45.5422" lon="6.77147">
        <ele>1748.78</ele>
        <time>2013-03-04T09:24:59Z</time>
      </trkpt>
      <trkpt lat="45.54221" lon="6.77147">
        <ele>1748.78</ele>
        <time>2013-03-04T09:25:15Z</time>
      </trkpt>
      <trkpt lat="45.54221" lon="6.77147">
        <ele>1748.78</ele>
        <time>2013-03-04T09:25:31Z</time>
      </trkpt>
      <trkpt lat="45.54222" lon="6.77147">
        <ele>1748.29</ele>
        <time>2013-03-04T09:25:51Z</time>
      </trkpt>
      <trkpt lat="45.54222" lon="6.77147">
        <ele>1748.29</ele>
        <time>2013-03-04T09:26:04Z</time>
      </trkpt>
      <trkpt lat="45.54222" lon="6.77146">
        <ele>1748.29</ele>
        <time>2013-03-04T09:26:18Z</time>
      </trkpt>
      <trkpt lat="45.54222" lon="6.77145">
        <ele>1748.29</ele>
        <time>2013-03-04T09:26:34Z</time>
      </trkpt>
      <trkpt lat="45.54222" lon="6.77145">
        <ele>1748.29</ele>
        <time>2013-03-04T09:26:51Z</time>
      </trkpt>
      <trkpt lat="45.54222" lon="6.77146">
        <ele>1748.29</ele>
        <time>2013-03-04T09:26:58Z</time>
      </trkpt>
      <trkpt lat="45.54218" lon="6.77153">
        <ele>1746.85</ele>
        <time>2013-03-04T09:27:05Z</time>
      </trkpt>
      <trkpt lat="45.54216" lon="6.77154">
        <ele>1746.85</ele>
        <time>2013-03-04T09:27:07Z</time>
      </trkpt>
      <trkpt lat="45.54212" lon="6.77162">
        <ele>1744.93</ele>
        <time>2013-03-04T09:27:15Z</time>
      </trkpt>
      <trkpt lat="45.54207" lon="6.77169">
        <ele>1743.97</ele>
        <time>2013-03-04T09:27:21Z</time>
      </trkpt>
      <trkpt lat="45.54206" lon="6.77171">
        <ele>1743.97</ele>
        <time>2013-03-04T09:27:24Z</time>
      </trkpt>
      <trkpt lat="45.54201" lon="6.77178">
        <ele>1743.97</ele>
        <time>2013-03-04T09:27:31Z</time>
      </trkpt>
      <trkpt lat="45.54199" lon="6.7718">
        <ele>1744.45</ele>
        <time>2013-03-04T09:27:34Z</time>
      </trkpt>
      <trkpt lat="45.54191" lon="6.77184">
        <ele>1744.93</ele>
        <time>2013-03-04T09:27:41Z</time>
      </trkpt>
      <trkpt lat="45.54183" lon="6.77187">
        <ele>1744.93</ele>
        <time>2013-03-04T09:27:49Z</time>
      </trkpt>
      <trkpt lat="45.54181" lon="6.77188">
        <ele>1744.93</ele>
        <time>2013-03-04T09:27:51Z</time>
      </trkpt>
      <trkpt lat="45.54178" lon="6.7719">
        <ele>1745.89</ele>
        <time>2013-03-04T09:27:55Z</time>
      </trkpt>
      <trkpt lat="45.54172" lon="6.77194">
        <ele>1747.81</ele>
        <time>2013-03-04T09:28:03Z</time>
      </trkpt>
      <trkpt lat="45.54168" lon="6.77202">
        <ele>1747.81</ele>
        <time>2013-03-04T09:28:10Z</time>
      </trkpt>
      <trkpt lat="45.54167" lon="6.77204">
        <ele>1747.81</ele>
        <time>2013-03-04T09:28:21Z</time>
      </trkpt>
      <trkpt lat="45.54166" lon="6.77208">
        <ele>1747.81</ele>
        <time>2013-03-04T09:28:31Z</time>
      </trkpt>
      <trkpt lat="45.54163" lon="6.77212">
        <ele>1747.81</ele>
        <time>2013-03-04T09:28:42Z</time>
      </trkpt>
      <trkpt lat="45.54161" lon="6.77217">
        <ele>1748.29</ele>
        <time>2013-03-04T09:28:52Z</time>
      </trkpt>
      <trkpt lat="45.54158" lon="6.7722">
        <ele>1749.74</ele>
        <time>2013-03-04T09:29:02Z</time>
      </trkpt>
      <trkpt lat="45.54155" lon="6.77223">
        <ele>1749.74</ele>
        <time>2013-03-04T09:29:11Z</time>
      </trkpt>
      <trkpt lat="45.54152" lon="6.77227">
        <ele>1749.74</ele>
        <time>2013-03-04T09:29:20Z</time>
      </trkpt>
      <trkpt lat="45.54148" lon="6.77231">
        <ele>1749.26</ele>
        <time>2013-03-04T09:29:26Z</time>
      </trkpt>
      <trkpt lat="45.54143" lon="6.77238">
        <ele>1748.78</ele>
        <time>2013-03-04T09:29:33Z</time>
      </trkpt>
      <trkpt lat="45.54139" lon="6.77247">
        <ele>1749.26</ele>
        <time>2013-03-04T09:29:40Z</time>
      </trkpt>
      <trkpt lat="45.54135" lon="6.77252">
        <ele>1749.26</ele>
        <time>2013-03-04T09:29:45Z</time>
      </trkpt>
      <trkpt lat="45.54135" lon="6.77256">
        <ele>1749.74</ele>
        <time>2013-03-04T09:29:47Z</time>
      </trkpt>
      <trkpt lat="45.54131" lon="6.77264">
        <ele>1749.26</ele>
        <time>2013-03-04T09:29:55Z</time>
      </trkpt>
      <trkpt lat="45.54127" lon="6.77273">
        <ele>1750.7</ele>
        <time>2013-03-04T09:30:02Z</time>
      </trkpt>
      <trkpt lat="45.54123" lon="6.77281">
        <ele>1750.22</ele>
        <time>2013-03-04T09:30:09Z</time>
      </trkpt>
      <trkpt lat="45.5412" lon="6.77283">
        <ele>1750.7</ele>
        <time>2013-03-04T09:30:12Z</time>
      </trkpt>
      <trkpt lat="45.54119" lon="6.77285">
        <ele>1750.7</ele>
        <time>2013-03-04T09:30:14Z</time>
      </trkpt>
      <trkpt lat="45.54111" lon="6.7729">
        <ele>1748.29</ele>
        <time>2013-03-04T09:30:22Z</time>
      </trkpt>
      <trkpt lat="45.54106" lon="6.77292">
        <ele>1747.81</ele>
        <time>2013-03-04T09:30:28Z</time>
      </trkpt>
      <trkpt lat="45.54096" lon="6.77293">
        <ele>1746.85</ele>
        <time>2013-03-04T09:30:38Z</time>
      </trkpt>
      <trkpt lat="45.54093" lon="6.77293">
        <ele>1746.85</ele>
        <time>2013-03-04T09:30:45Z</time>
      </trkpt>
      <trkpt lat="45.54091" lon="6.77293">
        <ele>1747.33</ele>
        <time>2013-03-04T09:30:53Z</time>
      </trkpt>
      <trkpt lat="45.54086" lon="6.77293">
        <ele>1748.29</ele>
        <time>2013-03-04T09:30:59Z</time>
      </trkpt>
      <trkpt lat="45.54078" lon="6.77296">
        <ele>1748.78</ele>
        <time>2013-03-04T09:31:06Z</time>
      </trkpt>
      <trkpt lat="45.54071" lon="6.77302">
        <ele>1747.81</ele>
        <time>2013-03-04T09:31:14Z</time>
      </trkpt>
      <trkpt lat="45.54068" lon="6.77309">
        <ele>1747.33</ele>
        <time>2013-03-04T09:31:21Z</time>
      </trkpt>
      <trkpt lat="45.54067" lon="6.7731">
        <ele>1747.33</ele>
        <time>2013-03-04T09:31:22Z</time>
      </trkpt>
      <trkpt lat="45.54061" lon="6.7732">
        <ele>1749.74</ele>
        <time>2013-03-04T09:31:31Z</time>
      </trkpt>
      <trkpt lat="45.54057" lon="6.77327">
        <ele>1750.7</ele>
        <time>2013-03-04T09:31:37Z</time>
      </trkpt>
      <trkpt lat="45.54051" lon="6.77334">
        <ele>1751.18</ele>
        <time>2013-03-04T09:31:44Z</time>
      </trkpt>
      <trkpt lat="45.54045" lon="6.77338">
        <ele>1751.18</ele>
        <time>2013-03-04T09:31:50Z</time>
      </trkpt>
      <trkpt lat="45.5404" lon="6.77345">
        <ele>1751.18</ele>
        <time>2013-03-04T09:31:57Z</time>
      </trkpt>
      <trkpt lat="45.54039" lon="6.77346">
        <ele>1751.18</ele>
        <time>2013-03-04T09:31:58Z</time>
      </trkpt>
      <trkpt lat="45.54037" lon="6.77356">
        <ele>1752.62</ele>
        <time>2013-03-04T09:32:06Z</time>
      </trkpt>
      <trkpt lat="45.54037" lon="6.77363">
        <ele>1753.58</ele>
        <time>2013-03-04T09:32:11Z</time>
      </trkpt>
      <trkpt lat="45.5404" lon="6.77377">
        <ele>1753.58</ele>
        <time>2013-03-04T09:32:21Z</time>
      </trkpt>
      <trkpt lat="45.54041" lon="6.77386">
        <ele>1752.62</ele>
        <time>2013-03-04T09:32:29Z</time>
      </trkpt>
      <trkpt lat="45.54041" lon="6.77387">
        <ele>1752.62</ele>
        <time>2013-03-04T09:32:30Z</time>
      </trkpt>
      <trkpt lat="45.54042" lon="6.77399">
        <ele>1752.62</ele>
        <time>2013-03-04T09:32:38Z</time>
      </trkpt>
      <trkpt lat="45.54044" lon="6.77411">
        <ele>1752.62</ele>
        <time>2013-03-04T09:32:47Z</time>
      </trkpt>
      <trkpt lat="45.54044" lon="6.77419">
        <ele>1752.14</ele>
        <time>2013-03-04T09:32:54Z</time>
      </trkpt>
      <trkpt lat="45.54044" lon="6.77428">
        <ele>1752.14</ele>
        <time>2013-03-04T09:33:00Z</time>
      </trkpt>
      <trkpt lat="45.54042" lon="6.77442">
        <ele>1753.1</ele>
        <time>2013-03-04T09:33:09Z</time>
      </trkpt>
      <trkpt lat="45.54039" lon="6.77452">
        <ele>1754.06</ele>
        <time>2013-03-04T09:33:17Z</time>
      </trkpt>
      <trkpt lat="45.54038" lon="6.77455">
        <ele>1754.54</ele>
        <time>2013-03-04T09:33:25Z</time>
      </trkpt>
      <trkpt lat="45.54035" lon="6.77463">
        <ele>1754.54</ele>
        <time>2013-03-04T09:33:32Z</time>
      </trkpt>
      <trkpt lat="45.5403" lon="6.77471">
        <ele>1754.06</ele>
        <time>2013-03-04T09:33:38Z</time>
      </trkpt>
      <trkpt lat="45.54026" lon="6.77478">
        <ele>1754.06</ele>
        <time>2013-03-04T09:33:45Z</time>
      </trkpt>
      <trkpt lat="45.54022" lon="6.77488">
        <ele>1754.06</ele>
        <time>2013-03-04T09:33:52Z</time>
      </trkpt>
      <trkpt lat="45.54019" lon="6.77497">
        <ele>1753.58</ele>
        <time>2013-03-04T09:33:59Z</time>
      </trkpt>
      <trkpt lat="45.54016" lon="6.77504">
        <ele>1753.58</ele>
        <time>2013-03-04T09:34:05Z</time>
      </trkpt>
      <trkpt lat="45.54013" lon="6.7751">
        <ele>1753.58</ele>
        <time>2013-03-04T09:34:11Z</time>
      </trkpt>
      <trkpt lat="45.54012" lon="6.77512">
        <ele>1753.1</ele>
        <time>2013-03-04T09:34:13Z</time>
      </trkpt>
      <trkpt lat="45.5401" lon="6.77518">
        <ele>1753.1</ele>
        <time>2013-03-04T09:34:21Z</time>
      </trkpt>
      <trkpt lat="45.54008" lon="6.77526">
        <ele>1753.1</ele>
        <time>2013-03-04T09:34:32Z</time>
      </trkpt>
      <trkpt lat="45.54005" lon="6.77533">
        <ele>1753.1</ele>
        <time>2013-03-04T09:34:38Z</time>
      </trkpt>
      <trkpt lat="45.54003" lon="6.77541">
        <ele>1753.58</ele>
        <time>2013-03-04T09:34:44Z</time>
      </trkpt>
      <trkpt lat="45.53999" lon="6.7755">
        <ele>1752.14</ele>
        <time>2013-03-04T09:34:51Z</time>
      </trkpt>
      <trkpt lat="45.53994" lon="6.77556">
        <ele>1752.14</ele>
        <time>2013-03-04T09:34:57Z</time>
      </trkpt>
      <trkpt lat="45.53987" lon="6.77558">
        <ele>1751.66</ele>
        <time>2013-03-04T09:35:03Z</time>
      </trkpt>
      <trkpt lat="45.53984" lon="6.77558">
        <ele>1751.66</ele>
        <time>2013-03-04T09:35:06Z</time>
      </trkpt>
      <trkpt lat="45.53976" lon="6.77563">
        <ele>1751.18</ele>
        <time>2013-03-04T09:35:14Z</time>
      </trkpt>
      <trkpt lat="45.53971" lon="6.77571">
        <ele>1751.66</ele>
        <time>2013-03-04T09:35:21Z</time>
      </trkpt>
      <trkpt lat="45.53969" lon="6.7758">
        <ele>1751.66</ele>
        <time>2013-03-04T09:35:28Z</time>
      </trkpt>
      <trkpt lat="45.53968" lon="6.77582">
        <ele>1751.66</ele>
        <time>2013-03-04T09:35:30Z</time>
      </trkpt>
      <trkpt lat="45.53969" lon="6.77592">
        <ele>1751.66</ele>
        <time>2013-03-04T09:35:37Z</time>
      </trkpt>
      <trkpt lat="45.53966" lon="6.77604">
        <ele>1751.66</ele>
        <time>2013-03-04T09:35:45Z</time>
      </trkpt>
      <trkpt lat="45.53962" lon="6.77615">
        <ele>1752.14</ele>
        <time>2013-03-04T09:35:53Z</time>
      </trkpt>
      <trkpt lat="45.5396" lon="6.77625">
        <ele>1751.66</ele>
        <time>2013-03-04T09:36:00Z</time>
      </trkpt>
      <trkpt lat="45.53958" lon="6.77634">
        <ele>1751.66</ele>
        <time>2013-03-04T09:36:07Z</time>
      </trkpt>
      <trkpt lat="45.53956" lon="6.77644">
        <ele>1752.62</ele>
        <time>2013-03-04T09:36:14Z</time>
      </trkpt>
      <trkpt lat="45.53956" lon="6.77655">
        <ele>1752.62</ele>
        <time>2013-03-04T09:36:22Z</time>
      </trkpt>
      <trkpt lat="45.53958" lon="6.77665">
        <ele>1752.62</ele>
        <time>2013-03-04T09:36:30Z</time>
      </trkpt>
      <trkpt lat="45.53958" lon="6.77671">
        <ele>1753.1</ele>
        <time>2013-03-04T09:36:40Z</time>
      </trkpt>
      <trkpt lat="45.53958" lon="6.77678">
        <ele>1753.58</ele>
        <time>2013-03-04T09:36:55Z</time>
      </trkpt>
      <trkpt lat="45.5396" lon="6.77685">
        <ele>1753.58</ele>
        <time>2013-03-04T09:37:01Z</time>
      </trkpt>
      <trkpt lat="45.53962" lon="6.77693">
        <ele>1754.06</ele>
        <time>2013-03-04T09:37:08Z</time>
      </trkpt>
      <trkpt lat="45.53963" lon="6.77702">
        <ele>1754.06</ele>
        <time>2013-03-04T09:37:14Z</time>
      </trkpt>
      <trkpt lat="45.53964" lon="6.77713">
        <ele>1754.06</ele>
        <time>2013-03-04T09:37:21Z</time>
      </trkpt>
      <trkpt lat="45.53964" lon="6.77725">
        <ele>1754.06</ele>
        <time>2013-03-04T09:37:29Z</time>
      </trkpt>
      <trkpt lat="45.53965" lon="6.77736">
        <ele>1753.58</ele>
        <time>2013-03-04T09:37:37Z</time>
      </trkpt>
      <trkpt lat="45.53966" lon="6.77748">
        <ele>1753.1</ele>
        <time>2013-03-04T09:37:45Z</time>
      </trkpt>
      <trkpt lat="45.53967" lon="6.77755">
        <ele>1753.58</ele>
        <time>2013-03-04T09:37:49Z</time>
      </trkpt>
      <trkpt lat="45.5397" lon="6.77765">
        <ele>1753.58</ele>
        <time>2013-03-04T09:37:57Z</time>
      </trkpt>
      <trkpt lat="45.53973" lon="6.7778">
        <ele>1752.62</ele>
        <time>2013-03-04T09:38:07Z</time>
      </trkpt>
      <trkpt lat="45.53976" lon="6.77787">
        <ele>1752.14</ele>
        <time>2013-03-04T09:38:14Z</time>
      </trkpt>
      <trkpt lat="45.53979" lon="6.77797">
        <ele>1750.7</ele>
        <time>2013-03-04T09:38:22Z</time>
      </trkpt>
      <trkpt lat="45.53982" lon="6.77802">
        <ele>1749.74</ele>
        <time>2013-03-04T09:38:27Z</time>
      </trkpt>
      <trkpt lat="45.53986" lon="6.77811">
        <ele>1747.33</ele>
        <time>2013-03-04T09:38:34Z</time>
      </trkpt>
      <trkpt lat="45.53989" lon="6.77824">
        <ele>1745.89</ele>
        <time>2013-03-04T09:38:43Z</time>
      </trkpt>
      <trkpt lat="45.53989" lon="6.77828">
        <ele>1745.89</ele>
        <time>2013-03-04T09:38:46Z</time>
      </trkpt>
      <trkpt lat="45.53989" lon="6.77833">
        <ele>1745.89</ele>
        <time>2013-03-04T09:38:49Z</time>
      </trkpt>
      <trkpt lat="45.5399" lon="6.77836">
        <ele>1746.37</ele>
        <time>2013-03-04T09:38:51Z</time>
      </trkpt>
      <trkpt lat="45.53991" lon="6.77837">
        <ele>1746.37</ele>
        <time>2013-03-04T09:38:53Z</time>
      </trkpt>
      <trkpt lat="45.53995" lon="6.7785">
        <ele>1744.93</ele>
        <time>2013-03-04T09:39:02Z</time>
      </trkpt>
      <trkpt lat="45.53997" lon="6.7786">
        <ele>1743.49</ele>
        <time>2013-03-04T09:39:10Z</time>
      </trkpt>
      <trkpt lat="45.53999" lon="6.77865">
        <ele>1744.45</ele>
        <time>2013-03-04T09:39:18Z</time>
      </trkpt>
      <trkpt lat="45.53999" lon="6.77867">
        <ele>1746.37</ele>
        <time>2013-03-04T09:39:37Z</time>
      </trkpt>
      <trkpt lat="45.54" lon="6.77877">
        <ele>1745.89</ele>
        <time>2013-03-04T09:39:44Z</time>
      </trkpt>
      <trkpt lat="45.54" lon="6.77881">
        <ele>1746.37</ele>
        <time>2013-03-04T09:39:47Z</time>
      </trkpt>
      <trkpt lat="45.54001" lon="6.7789">
        <ele>1745.41</ele>
        <time>2013-03-04T09:39:54Z</time>
      </trkpt>
      <trkpt lat="45.54001" lon="6.77891">
        <ele>1746.37</ele>
        <time>2013-03-04T09:40:09Z</time>
      </trkpt>
      <trkpt lat="45.54001" lon="6.77892">
        <ele>1747.33</ele>
        <time>2013-03-04T09:40:30Z</time>
      </trkpt>
      <trkpt lat="45.54001" lon="6.77893">
        <ele>1748.29</ele>
        <time>2013-03-04T09:40:56Z</time>
      </trkpt>
      <trkpt lat="45.54001" lon="6.77893">
        <ele>1749.74</ele>
        <time>2013-03-04T09:41:21Z</time>
      </trkpt>
      <trkpt lat="45.54001" lon="6.77893">
        <ele>1750.22</ele>
        <time>2013-03-04T09:41:37Z</time>
      </trkpt>
      <trkpt lat="45.54001" lon="6.77899">
        <ele>1750.22</ele>
        <time>2013-03-04T09:41:46Z</time>
      </trkpt>
      <trkpt lat="45.54002" lon="6.77913">
        <ele>1751.18</ele>
        <time>2013-03-04T09:41:53Z</time>
      </trkpt>
      <trkpt lat="45.54002" lon="6.77926">
        <ele>1751.18</ele>
        <time>2013-03-04T09:42:01Z</time>
      </trkpt>
      <trkpt lat="45.54004" lon="6.77939">
        <ele>1752.62</ele>
        <time>2013-03-04T09:42:09Z</time>
      </trkpt>
      <trkpt lat="45.54006" lon="6.77951">
        <ele>1753.1</ele>
        <time>2013-03-04T09:42:17Z</time>
      </trkpt>
      <trkpt lat="45.54008" lon="6.77956">
        <ele>1752.62</ele>
        <time>2013-03-04T09:42:22Z</time>
      </trkpt>
      <trkpt lat="45.54009" lon="6.77969">
        <ele>1752.14</ele>
        <time>2013-03-04T09:42:31Z</time>
      </trkpt>
      <trkpt lat="45.54011" lon="6.77984">
        <ele>1755.02</ele>
        <time>2013-03-04T09:42:42Z</time>
      </trkpt>
      <trkpt lat="45.54011" lon="6.77989">
        <ele>1756.47</ele>
        <time>2013-03-04T09:42:49Z</time>
      </trkpt>
      <trkpt lat="45.54011" lon="6.7799">
        <ele>1756.47</ele>
        <time>2013-03-04T09:42:51Z</time>
      </trkpt>
      <trkpt lat="45.54011" lon="6.77992">
        <ele>1756.47</ele>
        <time>2013-03-04T09:42:53Z</time>
      </trkpt>
      <trkpt lat="45.54011" lon="6.77996">
        <ele>1756.47</ele>
        <time>2013-03-04T09:42:56Z</time>
      </trkpt>
      <trkpt lat="45.54011" lon="6.78005">
        <ele>1756.95</ele>
        <time>2013-03-04T09:43:04Z</time>
      </trkpt>
      <trkpt lat="45.54012" lon="6.78013">
        <ele>1758.39</ele>
        <time>2013-03-04T09:43:11Z</time>
      </trkpt>
      <trkpt lat="45.54012" lon="6.7802">
        <ele>1760.31</ele>
        <time>2013-03-04T09:43:22Z</time>
      </trkpt>
      <trkpt lat="45.54012" lon="6.78031">
        <ele>1763.68</ele>
        <time>2013-03-04T09:43:29Z</time>
      </trkpt>
      <trkpt lat="45.54011" lon="6.78035">
        <ele>1764.64</ele>
        <time>2013-03-04T09:43:32Z</time>
      </trkpt>
      <trkpt lat="45.54011" lon="6.78038">
        <ele>1764.64</ele>
        <time>2013-03-04T09:43:34Z</time>
      </trkpt>
      <trkpt lat="45.5401" lon="6.78039">
        <ele>1765.12</ele>
        <time>2013-03-04T09:43:36Z</time>
      </trkpt>
      <trkpt lat="45.54007" lon="6.78046">
        <ele>1766.56</ele>
        <time>2013-03-04T09:43:43Z</time>
      </trkpt>
      <trkpt lat="45.54007" lon="6.78049">
        <ele>1767.04</ele>
        <time>2013-03-04T09:43:45Z</time>
      </trkpt>
      <trkpt lat="45.54003" lon="6.78058">
        <ele>1768.96</ele>
        <time>2013-03-04T09:43:53Z</time>
      </trkpt>
      <trkpt lat="45.54" lon="6.78067">
        <ele>1770.41</ele>
        <time>2013-03-04T09:44:00Z</time>
      </trkpt>
      <trkpt lat="45.53997" lon="6.78075">
        <ele>1771.37</ele>
        <time>2013-03-04T09:44:07Z</time>
      </trkpt>
      <trkpt lat="45.53996" lon="6.78078">
        <ele>1771.37</ele>
        <time>2013-03-04T09:44:09Z</time>
      </trkpt>
      <trkpt lat="45.53994" lon="6.78083">
        <ele>1770.89</ele>
        <time>2013-03-04T09:44:13Z</time>
      </trkpt>
      <trkpt lat="45.53993" lon="6.78087">
        <ele>1770.89</ele>
        <time>2013-03-04T09:44:16Z</time>
      </trkpt>
      <trkpt lat="45.53992" lon="6.78089">
        <ele>1771.37</ele>
        <time>2013-03-04T09:44:18Z</time>
      </trkpt>
      <trkpt lat="45.53991" lon="6.781">
        <ele>1770.41</ele>
        <time>2013-03-04T09:44:26Z</time>
      </trkpt>
      <trkpt lat="45.53991" lon="6.78107">
        <ele>1769.92</ele>
        <time>2013-03-04T09:44:32Z</time>
      </trkpt>
      <trkpt lat="45.53991" lon="6.78111">
        <ele>1770.41</ele>
        <time>2013-03-04T09:44:36Z</time>
      </trkpt>
      <trkpt lat="45.5399" lon="6.7812">
        <ele>1770.41</ele>
        <time>2013-03-04T09:44:42Z</time>
      </trkpt>
      <trkpt lat="45.53993" lon="6.78127">
        <ele>1770.41</ele>
        <time>2013-03-04T09:44:52Z</time>
      </trkpt>
      <trkpt lat="45.53993" lon="6.78128">
        <ele>1769.92</ele>
        <time>2013-03-04T09:45:09Z</time>
      </trkpt>
      <trkpt lat="45.53992" lon="6.78131">
        <ele>1770.41</ele>
        <time>2013-03-04T09:45:16Z</time>
      </trkpt>
      <trkpt lat="45.53991" lon="6.78135">
        <ele>1770.89</ele>
        <time>2013-03-04T09:45:24Z</time>
      </trkpt>
      <trkpt lat="45.5399" lon="6.78138">
        <ele>1770.89</ele>
        <time>2013-03-04T09:45:44Z</time>
      </trkpt>
      <trkpt lat="45.5399" lon="6.78142">
        <ele>1771.85</ele>
        <time>2013-03-04T09:45:48Z</time>
      </trkpt>
      <trkpt lat="45.53989" lon="6.78144">
        <ele>1772.33</ele>
        <time>2013-03-04T09:45:50Z</time>
      </trkpt>
      <trkpt lat="45.53987" lon="6.78157">
        <ele>1772.81</ele>
        <time>2013-03-04T09:46:00Z</time>
      </trkpt>
      <trkpt lat="45.53986" lon="6.78167">
        <ele>1773.77</ele>
        <time>2013-03-04T09:46:09Z</time>
      </trkpt>
      <trkpt lat="45.53985" lon="6.78176">
        <ele>1774.73</ele>
        <time>2013-03-04T09:46:16Z</time>
      </trkpt>
      <trkpt lat="45.53985" lon="6.78179">
        <ele>1774.73</ele>
        <time>2013-03-04T09:46:18Z</time>
      </trkpt>
      <trkpt lat="45.53985" lon="6.78192">
        <ele>1773.77</ele>
        <time>2013-03-04T09:46:27Z</time>
      </trkpt>
      <trkpt lat="45.53985" lon="6.78201">
        <ele>1773.29</ele>
        <time>2013-03-04T09:46:35Z</time>
      </trkpt>
      <trkpt lat="45.53985" lon="6.78208">
        <ele>1773.29</ele>
        <time>2013-03-04T09:46:42Z</time>
      </trkpt>
      <trkpt lat="45.53987" lon="6.78215">
        <ele>1774.73</ele>
        <time>2013-03-04T09:46:59Z</time>
      </trkpt>
      <trkpt lat="45.53986" lon="6.78217">
        <ele>1773.77</ele>
        <time>2013-03-04T09:47:06Z</time>
      </trkpt>
      <trkpt lat="45.53986" lon="6.78226">
        <ele>1774.25</ele>
        <time>2013-03-04T09:47:14Z</time>
      </trkpt>
      <trkpt lat="45.53986" lon="6.78233">
        <ele>1774.73</ele>
        <time>2013-03-04T09:47:23Z</time>
      </trkpt>
      <trkpt lat="45.53986" lon="6.78242">
        <ele>1774.25</ele>
        <time>2013-03-04T09:47:33Z</time>
      </trkpt>
      <trkpt lat="45.53986" lon="6.78254">
        <ele>1776.17</ele>
        <time>2013-03-04T09:47:42Z</time>
      </trkpt>
      <trkpt lat="45.53986" lon="6.78259">
        <ele>1776.17</ele>
        <time>2013-03-04T09:47:46Z</time>
      </trkpt>
      <trkpt lat="45.53986" lon="6.78269">
        <ele>1776.65</ele>
        <time>2013-03-04T09:47:53Z</time>
      </trkpt>
      <trkpt lat="45.53985" lon="6.78273">
        <ele>1777.61</ele>
        <time>2013-03-04T09:47:56Z</time>
      </trkpt>
      <trkpt lat="45.53985" lon="6.7828">
        <ele>1777.61</ele>
        <time>2013-03-04T09:48:02Z</time>
      </trkpt>
      <trkpt lat="45.53983" lon="6.78294">
        <ele>1776.65</ele>
        <time>2013-03-04T09:48:12Z</time>
      </trkpt>
      <trkpt lat="45.53984" lon="6.78298">
        <ele>1778.1</ele>
        <time>2013-03-04T09:48:21Z</time>
      </trkpt>
      <trkpt lat="45.53984" lon="6.78299">
        <ele>1778.1</ele>
        <time>2013-03-04T09:48:22Z</time>
      </trkpt>
      <trkpt lat="45.53987" lon="6.783">
        <ele>1778.1</ele>
        <time>2013-03-04T09:48:25Z</time>
      </trkpt>
      <trkpt lat="45.53991" lon="6.78294">
        <ele>1779.54</ele>
        <time>2013-03-04T09:48:32Z</time>
      </trkpt>
      <trkpt lat="45.53992" lon="6.78283">
        <ele>1782.9</ele>
        <time>2013-03-04T09:48:41Z</time>
      </trkpt>
      <trkpt lat="45.53992" lon="6.78276">
        <ele>1784.82</ele>
        <time>2013-03-04T09:48:46Z</time>
      </trkpt>
      <trkpt lat="45.53999" lon="6.78272">
        <ele>1785.79</ele>
        <time>2013-03-04T09:48:56Z</time>
      </trkpt>
      <trkpt lat="45.54001" lon="6.78275">
        <ele>1786.27</ele>
        <time>2013-03-04T09:49:07Z</time>
      </trkpt>
      <trkpt lat="45.54001" lon="6.78276">
        <ele>1785.79</ele>
        <time>2013-03-04T09:49:27Z</time>
      </trkpt>
      <trkpt lat="45.54002" lon="6.7828">
        <ele>1786.75</ele>
        <time>2013-03-04T09:49:41Z</time>
      </trkpt>
      <trkpt lat="45.54002" lon="6.78281">
        <ele>1786.75</ele>
        <time>2013-03-04T09:49:42Z</time>
      </trkpt>
      <trkpt lat="45.54002" lon="6.78288">
        <ele>1787.23</ele>
        <time>2013-03-04T09:49:51Z</time>
      </trkpt>
      <trkpt lat="45.54004" lon="6.78294">
        <ele>1787.23</ele>
        <time>2013-03-04T09:50:00Z</time>
      </trkpt>
      <trkpt lat="45.54005" lon="6.783">
        <ele>1786.27</ele>
        <time>2013-03-04T09:50:06Z</time>
      </trkpt>
      <trkpt lat="45.54006" lon="6.7831">
        <ele>1784.82</ele>
        <time>2013-03-04T09:50:14Z</time>
      </trkpt>
      <trkpt lat="45.54009" lon="6.78321">
        <ele>1785.79</ele>
        <time>2013-03-04T09:50:21Z</time>
      </trkpt>
      <trkpt lat="45.54011" lon="6.78332">
        <ele>1787.23</ele>
        <time>2013-03-04T09:50:29Z</time>
      </trkpt>
      <trkpt lat="45.54011" lon="6.7834">
        <ele>1787.71</ele>
        <time>2013-03-04T09:50:36Z</time>
      </trkpt>
      <trkpt lat="45.54012" lon="6.78341">
        <ele>1788.19</ele>
        <time>2013-03-04T09:50:47Z</time>
      </trkpt>
      <trkpt lat="45.54015" lon="6.78346">
        <ele>1788.67</ele>
        <time>2013-03-04T09:50:57Z</time>
      </trkpt>
      <trkpt lat="45.54016" lon="6.78347">
        <ele>1790.11</ele>
        <time>2013-03-04T09:51:07Z</time>
      </trkpt>
      <trkpt lat="45.54018" lon="6.78346">
        <ele>1790.59</ele>
        <time>2013-03-04T09:51:12Z</time>
      </trkpt>
      <trkpt lat="45.5402" lon="6.78342">
        <ele>1790.11</ele>
        <time>2013-03-04T09:51:17Z</time>
      </trkpt>
      <trkpt lat="45.54021" lon="6.78336">
        <ele>1791.07</ele>
        <time>2013-03-04T09:51:21Z</time>
      </trkpt>
      <trkpt lat="45.54023" lon="6.78332">
        <ele>1792.52</ele>
        <time>2013-03-04T09:51:26Z</time>
      </trkpt>
      <trkpt lat="45.54025" lon="6.78324">
        <ele>1794.44</ele>
        <time>2013-03-04T09:51:32Z</time>
      </trkpt>
      <trkpt lat="45.54025" lon="6.78316">
        <ele>1796.36</ele>
        <time>2013-03-04T09:51:38Z</time>
      </trkpt>
      <trkpt lat="45.54026" lon="6.78314">
        <ele>1796.84</ele>
        <time>2013-03-04T09:51:40Z</time>
      </trkpt>
      <trkpt lat="45.54026" lon="6.78311">
        <ele>1797.32</ele>
        <time>2013-03-04T09:51:42Z</time>
      </trkpt>
      <trkpt lat="45.54028" lon="6.78306">
        <ele>1798.76</ele>
        <time>2013-03-04T09:51:49Z</time>
      </trkpt>
      <trkpt lat="45.54031" lon="6.78304">
        <ele>1799.24</ele>
        <time>2013-03-04T09:52:02Z</time>
      </trkpt>
      <trkpt lat="45.54032" lon="6.78304">
        <ele>1799.24</ele>
        <time>2013-03-04T09:52:15Z</time>
      </trkpt>
      <trkpt lat="45.54034" lon="6.78294">
        <ele>1800.21</ele>
        <time>2013-03-04T09:52:24Z</time>
      </trkpt>
      <trkpt lat="45.54035" lon="6.78287">
        <ele>1801.17</ele>
        <time>2013-03-04T09:52:30Z</time>
      </trkpt>
      <trkpt lat="45.54035" lon="6.78284">
        <ele>1801.17</ele>
        <time>2013-03-04T09:52:32Z</time>
      </trkpt>
      <trkpt lat="45.54037" lon="6.78275">
        <ele>1802.13</ele>
        <time>2013-03-04T09:52:40Z</time>
      </trkpt>
      <trkpt lat="45.54037" lon="6.78273">
        <ele>1802.13</ele>
        <time>2013-03-04T09:52:41Z</time>
      </trkpt>
      <trkpt lat="45.54038" lon="6.78269">
        <ele>1801.65</ele>
        <time>2013-03-04T09:52:51Z</time>
      </trkpt>
      <trkpt lat="45.54039" lon="6.78269">
        <ele>1801.65</ele>
        <time>2013-03-04T09:52:59Z</time>
      </trkpt>
      <trkpt lat="45.54041" lon="6.78265">
        <ele>1802.13</ele>
        <time>2013-03-04T09:53:05Z</time>
      </trkpt>
      <trkpt lat="45.54043" lon="6.7826">
        <ele>1803.09</ele>
        <time>2013-03-04T09:53:11Z</time>
      </trkpt>
      <trkpt lat="45.54044" lon="6.78257">
        <ele>1803.57</ele>
        <time>2013-03-04T09:53:21Z</time>
      </trkpt>
      <trkpt lat="45.54045" lon="6.78255">
        <ele>1803.57</ele>
        <time>2013-03-04T09:53:23Z</time>
      </trkpt>
      <trkpt lat="45.54047" lon="6.7825">
        <ele>1803.09</ele>
        <time>2013-03-04T09:53:27Z</time>
      </trkpt>
      <trkpt lat="45.54048" lon="6.78237">
        <ele>1805.01</ele>
        <time>2013-03-04T09:53:36Z</time>
      </trkpt>
      <trkpt lat="45.54048" lon="6.78235">
        <ele>1805.01</ele>
        <time>2013-03-04T09:53:38Z</time>
      </trkpt>
      <trkpt lat="45.54049" lon="6.78231">
        <ele>1805.97</ele>
        <time>2013-03-04T09:53:46Z</time>
      </trkpt>
      <trkpt lat="45.54051" lon="6.78226">
        <ele>1806.94</ele>
        <time>2013-03-04T09:54:04Z</time>
      </trkpt>
      <trkpt lat="45.54053" lon="6.78222">
        <ele>1807.42</ele>
        <time>2013-03-04T09:54:11Z</time>
      </trkpt>
      <trkpt lat="45.54057" lon="6.78217">
        <ele>1808.38</ele>
        <time>2013-03-04T09:54:23Z</time>
      </trkpt>
      <trkpt lat="45.54062" lon="6.78211">
        <ele>1807.9</ele>
        <time>2013-03-04T09:54:30Z</time>
      </trkpt>
      <trkpt lat="45.54066" lon="6.78208">
        <ele>1807.42</ele>
        <time>2013-03-04T09:54:36Z</time>
      </trkpt>
      <trkpt lat="45.54067" lon="6.78208">
        <ele>1806.94</ele>
        <time>2013-03-04T09:54:50Z</time>
      </trkpt>
      <trkpt lat="45.54069" lon="6.78211">
        <ele>1806.94</ele>
        <time>2013-03-04T09:55:00Z</time>
      </trkpt>
      <trkpt lat="45.54067" lon="6.78218">
        <ele>1807.42</ele>
        <time>2013-03-04T09:55:07Z</time>
      </trkpt>
      <trkpt lat="45.54065" lon="6.78225">
        <ele>1808.38</ele>
        <time>2013-03-04T09:55:17Z</time>
      </trkpt>
      <trkpt lat="45.54067" lon="6.78226">
        <ele>1808.38</ele>
        <time>2013-03-04T09:55:29Z</time>
      </trkpt>
      <trkpt lat="45.54067" lon="6.78227">
        <ele>1808.86</ele>
        <time>2013-03-04T09:55:43Z</time>
      </trkpt>
      <trkpt lat="45.54066" lon="6.78228">
        <ele>1809.34</ele>
        <time>2013-03-04T09:55:56Z</time>
      </trkpt>
      <trkpt lat="45.54067" lon="6.78228">
        <ele>1809.34</ele>
        <time>2013-03-04T09:56:14Z</time>
      </trkpt>
      <trkpt lat="45.54067" lon="6.78228">
        <ele>1809.34</ele>
        <time>2013-03-04T09:56:31Z</time>
      </trkpt>
      <trkpt lat="45.54067" lon="6.78234">
        <ele>1809.82</ele>
        <time>2013-03-04T09:56:40Z</time>
      </trkpt>
      <trkpt lat="45.54068" lon="6.78233">
        <ele>1809.82</ele>
        <time>2013-03-04T09:57:04Z</time>
      </trkpt>
      <trkpt lat="45.54068" lon="6.78233">
        <ele>1809.82</ele>
        <time>2013-03-04T09:57:17Z</time>
      </trkpt>
      <trkpt lat="45.54068" lon="6.78234">
        <ele>1809.34</ele>
        <time>2013-03-04T09:57:35Z</time>
      </trkpt>
      <trkpt lat="45.54068" lon="6.78232">
        <ele>1809.34</ele>
        <time>2013-03-04T09:57:41Z</time>
      </trkpt>
      <trkpt lat="45.54067" lon="6.78229">
        <ele>1809.34</ele>
        <time>2013-03-04T09:57:50Z</time>
      </trkpt>
      <trkpt lat="45.54067" lon="6.78232">
        <ele>1808.38</ele>
        <time>2013-03-04T09:58:06Z</time>
      </trkpt>
      <trkpt lat="45.54066" lon="6.78233">
        <ele>1808.38</ele>
        <time>2013-03-04T09:58:25Z</time>
      </trkpt>
      <trkpt lat="45.54067" lon="6.78231">
        <ele>1808.38</ele>
        <time>2013-03-04T09:58:27Z</time>
      </trkpt>
      <trkpt lat="45.5407" lon="6.78229">
        <ele>1808.38</ele>
        <time>2013-03-04T09:58:36Z</time>
      </trkpt>
      <trkpt lat="45.5407" lon="6.78228">
        <ele>1808.38</ele>
        <time>2013-03-04T09:58:37Z</time>
      </trkpt>
      <trkpt lat="45.5407" lon="6.78227">
        <ele>1808.38</ele>
        <time>2013-03-04T09:58:48Z</time>
      </trkpt>
      <trkpt lat="45.54069" lon="6.78227">
        <ele>1808.38</ele>
        <time>2013-03-04T09:58:55Z</time>
      </trkpt>
      <trkpt lat="45.54068" lon="6.78227">
        <ele>1808.38</ele>
        <time>2013-03-04T09:58:57Z</time>
      </trkpt>
      <trkpt lat="45.54064" lon="6.78228">
        <ele>1808.86</ele>
        <time>2013-03-04T09:59:05Z</time>
      </trkpt>
      <trkpt lat="45.54065" lon="6.78228">
        <ele>1809.34</ele>
        <time>2013-03-04T09:59:21Z</time>
      </trkpt>
      <trkpt lat="45.54065" lon="6.78228">
        <ele>1808.86</ele>
        <time>2013-03-04T09:59:25Z</time>
      </trkpt>
      <trkpt lat="45.54068" lon="6.78227">
        <ele>1810.3</ele>
        <time>2013-03-04T09:59:34Z</time>
      </trkpt>
      <trkpt lat="45.54068" lon="6.78225">
        <ele>1811.74</ele>
        <time>2013-03-04T09:59:51Z</time>
      </trkpt>
      <trkpt lat="45.54072" lon="6.78223">
        <ele>1811.74</ele>
        <time>2013-03-04T10:00:16Z</time>
      </trkpt>
      <trkpt lat="45.54072" lon="6.78215">
        <ele>1810.78</ele>
        <time>2013-03-04T10:00:23Z</time>
      </trkpt>
      <trkpt lat="45.54069" lon="6.7821">
        <ele>1811.26</ele>
        <time>2013-03-04T10:00:31Z</time>
      </trkpt>
      <trkpt lat="45.54068" lon="6.78209">
        <ele>1811.26</ele>
        <time>2013-03-04T10:00:41Z</time>
      </trkpt>
      <trkpt lat="45.54069" lon="6.7822">
        <ele>1809.34</ele>
        <time>2013-03-04T10:00:48Z</time>
      </trkpt>
      <trkpt lat="45.54069" lon="6.78221">
        <ele>1809.34</ele>
        <time>2013-03-04T10:00:49Z</time>
      </trkpt>
      <trkpt lat="45.54066" lon="6.78226">
        <ele>1809.82</ele>
        <time>2013-03-04T10:00:56Z</time>
      </trkpt>
      <trkpt lat="45.54065" lon="6.78226">
        <ele>1809.34</ele>
        <time>2013-03-04T10:01:17Z</time>
      </trkpt>
      <trkpt lat="45.54065" lon="6.78227">
        <ele>1810.3</ele>
        <time>2013-03-04T10:01:34Z</time>
      </trkpt>
      <trkpt lat="45.54067" lon="6.78229">
        <ele>1811.26</ele>
        <time>2013-03-04T10:01:46Z</time>
      </trkpt>
      <trkpt lat="45.54067" lon="6.78228">
        <ele>1811.74</ele>
        <time>2013-03-04T10:02:08Z</time>
      </trkpt>
      <trkpt lat="45.54066" lon="6.78228">
        <ele>1812.22</ele>
        <time>2013-03-04T10:02:26Z</time>
      </trkpt>
      <trkpt lat="45.54067" lon="6.78228">
        <ele>1812.7</ele>
        <time>2013-03-04T10:02:49Z</time>
      </trkpt>
      <trkpt lat="45.54067" lon="6.78227">
        <ele>1813.66</ele>
        <time>2013-03-04T10:02:59Z</time>
      </trkpt>
      <trkpt lat="45.54066" lon="6.78226">
        <ele>1813.18</ele>
        <time>2013-03-04T10:03:20Z</time>
      </trkpt>
      <trkpt lat="45.54065" lon="6.78228">
        <ele>1812.7</ele>
        <time>2013-03-04T10:03:35Z</time>
      </trkpt>
      <trkpt lat="45.54065" lon="6.78228">
        <ele>1812.7</ele>
        <time>2013-03-04T10:03:58Z</time>
      </trkpt>
      <trkpt lat="45.54065" lon="6.78228">
        <ele>1812.7</ele>
        <time>2013-03-04T10:04:15Z</time>
      </trkpt>
      <trkpt lat="45.54065" lon="6.78228">
        <ele>1812.7</ele>
        <time>2013-03-04T10:04:28Z</time>
      </trkpt>
      <trkpt lat="45.54071" lon="6.78225">
        <ele>1813.66</ele>
        <time>2013-03-04T10:04:37Z</time>
      </trkpt>
      <trkpt lat="45.54071" lon="6.78226">
        <ele>1816.55</ele>
        <time>2013-03-04T10:04:51Z</time>
      </trkpt>
      <trkpt lat="45.54067" lon="6.78227">
        <ele>1814.63</ele>
        <time>2013-03-04T10:05:01Z</time>
      </trkpt>
      <trkpt lat="45.54065" lon="6.78226">
        <ele>1814.63</ele>
        <time>2013-03-04T10:05:14Z</time>
      </trkpt>
      <trkpt lat="45.54066" lon="6.78226">
        <ele>1815.11</ele>
        <time>2013-03-04T10:05:26Z</time>
      </trkpt>
      <trkpt lat="45.54066" lon="6.78227">
        <ele>1814.15</ele>
        <time>2013-03-04T10:05:42Z</time>
      </trkpt>
      <trkpt lat="45.54065" lon="6.78228">
        <ele>1813.66</ele>
        <time>2013-03-04T10:05:59Z</time>
      </trkpt>
      <trkpt lat="45.54064" lon="6.78228">
        <ele>1813.66</ele>
        <time>2013-03-04T10:06:15Z</time>
      </trkpt>
      <trkpt lat="45.54065" lon="6.78228">
        <ele>1813.18</ele>
        <time>2013-03-04T10:06:30Z</time>
      </trkpt>
      <trkpt lat="45.54066" lon="6.78228">
        <ele>1813.66</ele>
        <time>2013-03-04T10:06:41Z</time>
      </trkpt>
      <trkpt lat="45.54066" lon="6.78227">
        <ele>1813.18</ele>
        <time>2013-03-04T10:06:58Z</time>
      </trkpt>
      <trkpt lat="45.54066" lon="6.78227">
        <ele>1813.18</ele>
        <time>2013-03-04T10:07:12Z</time>
      </trkpt>
      <trkpt lat="45.54068" lon="6.78227">
        <ele>1812.7</ele>
        <time>2013-03-04T10:07:32Z</time>
      </trkpt>
      <trkpt lat="45.54067" lon="6.78227">
        <ele>1814.15</ele>
        <time>2013-03-04T10:07:50Z</time>
      </trkpt>
      <trkpt lat="45.54067" lon="6.78227">
        <ele>1813.66</ele>
        <time>2013-03-04T10:08:03Z</time>
      </trkpt>
      <trkpt lat="45.54067" lon="6.78229">
        <ele>1813.18</ele>
        <time>2013-03-04T10:08:13Z</time>
      </trkpt>
      <trkpt lat="45.54068" lon="6.78228">
        <ele>1813.18</ele>
        <time>2013-03-04T10:08:16Z</time>
      </trkpt>
      <trkpt lat="45.5407" lon="6.78223">
        <ele>1813.18</ele>
        <time>2013-03-04T10:08:21Z</time>
      </trkpt>
      <trkpt lat="45.54068" lon="6.78211">
        <ele>1811.74</ele>
        <time>2013-03-04T10:08:31Z</time>
      </trkpt>
      <trkpt lat="45.54069" lon="6.78206">
        <ele>1810.78</ele>
        <time>2013-03-04T10:08:39Z</time>
      </trkpt>
      <trkpt lat="45.54069" lon="6.78201">
        <ele>1811.26</ele>
        <time>2013-03-04T10:08:44Z</time>
      </trkpt>
      <trkpt lat="45.54067" lon="6.78201">
        <ele>1812.7</ele>
        <time>2013-03-04T10:08:46Z</time>
      </trkpt>
      <trkpt lat="45.54059" lon="6.78208">
        <ele>1813.66</ele>
        <time>2013-03-04T10:08:56Z</time>
      </trkpt>
      <trkpt lat="45.54053" lon="6.78215">
        <ele>1813.66</ele>
        <time>2013-03-04T10:09:03Z</time>
      </trkpt>
      <trkpt lat="45.54048" lon="6.78222">
        <ele>1813.18</ele>
        <time>2013-03-04T10:09:10Z</time>
      </trkpt>
      <trkpt lat="45.54046" lon="6.78239">
        <ele>1811.74</ele>
        <time>2013-03-04T10:09:20Z</time>
      </trkpt>
      <trkpt lat="45.54044" lon="6.7825">
        <ele>1810.3</ele>
        <time>2013-03-04T10:09:28Z</time>
      </trkpt>
      <trkpt lat="45.5404" lon="6.78261">
        <ele>1809.82</ele>
        <time>2013-03-04T10:09:36Z</time>
      </trkpt>
      <trkpt lat="45.54035" lon="6.78271">
        <ele>1808.86</ele>
        <time>2013-03-04T10:09:45Z</time>
      </trkpt>
      <trkpt lat="45.54033" lon="6.78279">
        <ele>1807.42</ele>
        <time>2013-03-04T10:09:55Z</time>
      </trkpt>
      <trkpt lat="45.5403" lon="6.78287">
        <ele>1805.97</ele>
        <time>2013-03-04T10:10:02Z</time>
      </trkpt>
      <trkpt lat="45.54028" lon="6.78299">
        <ele>1804.05</ele>
        <time>2013-03-04T10:10:11Z</time>
      </trkpt>
      <trkpt lat="45.54025" lon="6.78314">
        <ele>1802.13</ele>
        <time>2013-03-04T10:10:21Z</time>
      </trkpt>
      <trkpt lat="45.54021" lon="6.78328">
        <ele>1801.17</ele>
        <time>2013-03-04T10:10:31Z</time>
      </trkpt>
      <trkpt lat="45.54017" lon="6.7834">
        <ele>1800.21</ele>
        <time>2013-03-04T10:10:38Z</time>
      </trkpt>
      <trkpt lat="45.54014" lon="6.78348">
        <ele>1799.24</ele>
        <time>2013-03-04T10:10:45Z</time>
      </trkpt>
      <trkpt lat="45.54013" lon="6.7835">
        <ele>1798.28</ele>
        <time>2013-03-04T10:10:55Z</time>
      </trkpt>
      <trkpt lat="45.54013" lon="6.78351">
        <ele>1798.28</ele>
        <time>2013-03-04T10:11:13Z</time>
      </trkpt>
      <trkpt lat="45.54014" lon="6.78351">
        <ele>1797.8</ele>
        <time>2013-03-04T10:11:32Z</time>
      </trkpt>
      <trkpt lat="45.54014" lon="6.78353">
        <ele>1797.8</ele>
        <time>2013-03-04T10:11:41Z</time>
      </trkpt>
      <trkpt lat="45.54015" lon="6.7836">
        <ele>1795.88</ele>
        <time>2013-03-04T10:11:52Z</time>
      </trkpt>
      <trkpt lat="45.54016" lon="6.78363">
        <ele>1795.88</ele>
        <time>2013-03-04T10:12:02Z</time>
      </trkpt>
      <trkpt lat="45.54016" lon="6.78365">
        <ele>1796.36</ele>
        <time>2013-03-04T10:12:12Z</time>
      </trkpt>
      <trkpt lat="45.54019" lon="6.7837">
        <ele>1796.84</ele>
        <time>2013-03-04T10:12:21Z</time>
      </trkpt>
      <trkpt lat="45.54023" lon="6.78375">
        <ele>1798.28</ele>
        <time>2013-03-04T10:12:33Z</time>
      </trkpt>
      <trkpt lat="45.54025" lon="6.78378">
        <ele>1798.76</ele>
        <time>2013-03-04T10:12:45Z</time>
      </trkpt>
      <trkpt lat="45.5403" lon="6.78384">
        <ele>1798.28</ele>
        <time>2013-03-04T10:12:57Z</time>
      </trkpt>
      <trkpt lat="45.54033" lon="6.78387">
        <ele>1794.44</ele>
        <time>2013-03-04T10:13:06Z</time>
      </trkpt>
      <trkpt lat="45.54038" lon="6.78393">
        <ele>1793.96</ele>
        <time>2013-03-04T10:13:14Z</time>
      </trkpt>
      <trkpt lat="45.54045" lon="6.78404">
        <ele>1792.52</ele>
        <time>2013-03-04T10:13:24Z</time>
      </trkpt>
      <trkpt lat="45.54046" lon="6.78407">
        <ele>1792.03</ele>
        <time>2013-03-04T10:13:27Z</time>
      </trkpt>
      <trkpt lat="45.54047" lon="6.78419">
        <ele>1791.55</ele>
        <time>2013-03-04T10:13:37Z</time>
      </trkpt>
      <trkpt lat="45.54046" lon="6.78422">
        <ele>1791.55</ele>
        <time>2013-03-04T10:13:39Z</time>
      </trkpt>
      <trkpt lat="45.54045" lon="6.78434">
        <ele>1791.07</ele>
        <time>2013-03-04T10:13:47Z</time>
      </trkpt>
      <trkpt lat="45.54044" lon="6.7845">
        <ele>1790.11</ele>
        <time>2013-03-04T10:13:57Z</time>
      </trkpt>
      <trkpt lat="45.54044" lon="6.78454">
        <ele>1790.59</ele>
        <time>2013-03-04T10:14:07Z</time>
      </trkpt>
      <trkpt lat="45.54042" lon="6.78459">
        <ele>1791.07</ele>
        <time>2013-03-04T10:14:16Z</time>
      </trkpt>
      <trkpt lat="45.54042" lon="6.78461">
        <ele>1791.07</ele>
        <time>2013-03-04T10:14:18Z</time>
      </trkpt>
      <trkpt lat="45.54042" lon="6.78467">
        <ele>1790.59</ele>
        <time>2013-03-04T10:14:28Z</time>
      </trkpt>
      <trkpt lat="45.54042" lon="6.78468">
        <ele>1790.11</ele>
        <time>2013-03-04T10:14:41Z</time>
      </trkpt>
      <trkpt lat="45.54043" lon="6.78468">
        <ele>1789.63</ele>
        <time>2013-03-04T10:14:52Z</time>
      </trkpt>
      <trkpt lat="45.54044" lon="6.78471">
        <ele>1790.11</ele>
        <time>2013-03-04T10:15:01Z</time>
      </trkpt>
      <trkpt lat="45.54045" lon="6.78472">
        <ele>1789.63</ele>
        <time>2013-03-04T10:15:16Z</time>
      </trkpt>
      <trkpt lat="45.54046" lon="6.78475">
        <ele>1789.63</ele>
        <time>2013-03-04T10:15:31Z</time>
      </trkpt>
      <trkpt lat="45.54051" lon="6.78483">
        <ele>1788.67</ele>
        <time>2013-03-04T10:15:42Z</time>
      </trkpt>
      <trkpt lat="45.54056" lon="6.78491">
        <ele>1788.67</ele>
        <time>2013-03-04T10:15:53Z</time>
      </trkpt>
      <trkpt lat="45.54062" lon="6.78501">
        <ele>1787.23</ele>
        <time>2013-03-04T10:16:05Z</time>
      </trkpt>
      <trkpt lat="45.54064" lon="6.78506">
        <ele>1786.75</ele>
        <time>2013-03-04T10:16:18Z</time>
      </trkpt>
      <trkpt lat="45.54064" lon="6.78509">
        <ele>1787.23</ele>
        <time>2013-03-04T10:16:33Z</time>
      </trkpt>
      <trkpt lat="45.54064" lon="6.7851">
        <ele>1787.71</ele>
        <time>2013-03-04T10:16:40Z</time>
      </trkpt>
      <trkpt lat="45.54067" lon="6.78515">
        <ele>1788.19</ele>
        <time>2013-03-04T10:16:49Z</time>
      </trkpt>
      <trkpt lat="45.54068" lon="6.7852">
        <ele>1787.71</ele>
        <time>2013-03-04T10:16:59Z</time>
      </trkpt>
      <trkpt lat="45.5407" lon="6.78519">
        <ele>1785.31</ele>
        <time>2013-03-04T10:17:13Z</time>
      </trkpt>
      <trkpt lat="45.54071" lon="6.78529">
        <ele>1783.86</ele>
        <time>2013-03-04T10:17:24Z</time>
      </trkpt>
      <trkpt lat="45.54071" lon="6.78531">
        <ele>1782.42</ele>
        <time>2013-03-04T10:17:40Z</time>
      </trkpt>
      <trkpt lat="45.54072" lon="6.78537">
        <ele>1782.42</ele>
        <time>2013-03-04T10:17:55Z</time>
      </trkpt>
      <trkpt lat="45.54071" lon="6.78539">
        <ele>1781.46</ele>
        <time>2013-03-04T10:17:58Z</time>
      </trkpt>
      <trkpt lat="45.5407" lon="6.78544">
        <ele>1779.54</ele>
        <time>2013-03-04T10:18:09Z</time>
      </trkpt>
      <trkpt lat="45.5407" lon="6.7855">
        <ele>1778.1</ele>
        <time>2013-03-04T10:18:18Z</time>
      </trkpt>
      <trkpt lat="45.54071" lon="6.78556">
        <ele>1776.17</ele>
        <time>2013-03-04T10:18:27Z</time>
      </trkpt>
      <trkpt lat="45.54069" lon="6.78562">
        <ele>1773.77</ele>
        <time>2013-03-04T10:18:34Z</time>
      </trkpt>
      <trkpt lat="45.54069" lon="6.78563">
        <ele>1775.21</ele>
        <time>2013-03-04T10:18:44Z</time>
      </trkpt>
      <trkpt lat="45.54069" lon="6.78563">
        <ele>1777.13</ele>
        <time>2013-03-04T10:19:00Z</time>
      </trkpt>
      <trkpt lat="45.54067" lon="6.78563">
        <ele>1777.13</ele>
        <time>2013-03-04T10:19:19Z</time>
      </trkpt>
      <trkpt lat="45.54067" lon="6.78564">
        <ele>1776.65</ele>
        <time>2013-03-04T10:19:39Z</time>
      </trkpt>
      <trkpt lat="45.54068" lon="6.78565">
        <ele>1776.65</ele>
        <time>2013-03-04T10:19:48Z</time>
      </trkpt>
      <trkpt lat="45.54068" lon="6.78565">
        <ele>1776.65</ele>
        <time>2013-03-04T10:19:49Z</time>
      </trkpt>
      <trkpt lat="45.54067" lon="6.78567">
        <ele>1777.13</ele>
        <time>2013-03-04T10:19:52Z</time>
      </trkpt>
      <trkpt lat="45.54068" lon="6.78569">
        <ele>1776.17</ele>
        <time>2013-03-04T10:20:03Z</time>
      </trkpt>
      <trkpt lat="45.54069" lon="6.78569">
        <ele>1775.21</ele>
        <time>2013-03-04T10:20:13Z</time>
      </trkpt>
      <trkpt lat="45.54071" lon="6.78572">
        <ele>1775.21</ele>
        <time>2013-03-04T10:20:22Z</time>
      </trkpt>
      <trkpt lat="45.54071" lon="6.78578">
        <ele>1776.17</ele>
        <time>2013-03-04T10:20:33Z</time>
      </trkpt>
      <trkpt lat="45.54073" lon="6.78584">
        <ele>1775.69</ele>
        <time>2013-03-04T10:20:43Z</time>
      </trkpt>
      <trkpt lat="45.54074" lon="6.78585">
        <ele>1775.21</ele>
        <time>2013-03-04T10:20:54Z</time>
      </trkpt>
      <trkpt lat="45.54074" lon="6.78587">
        <ele>1775.69</ele>
        <time>2013-03-04T10:21:05Z</time>
      </trkpt>
      <trkpt lat="45.54078" lon="6.78593">
        <ele>1773.77</ele>
        <time>2013-03-04T10:21:13Z</time>
      </trkpt>
      <trkpt lat="45.5408" lon="6.786">
        <ele>1774.73</ele>
        <time>2013-03-04T10:21:33Z</time>
      </trkpt>
      <trkpt lat="45.54075" lon="6.78605">
        <ele>1775.69</ele>
        <time>2013-03-04T10:21:41Z</time>
      </trkpt>
      <trkpt lat="45.54074" lon="6.78613">
        <ele>1776.17</ele>
        <time>2013-03-04T10:21:49Z</time>
      </trkpt>
      <trkpt lat="45.54078" lon="6.78614">
        <ele>1778.1</ele>
        <time>2013-03-04T10:21:59Z</time>
      </trkpt>
      <trkpt lat="45.54082" lon="6.78616">
        <ele>1777.61</ele>
        <time>2013-03-04T10:22:14Z</time>
      </trkpt>
      <trkpt lat="45.54085" lon="6.78616">
        <ele>1778.1</ele>
        <time>2013-03-04T10:22:33Z</time>
      </trkpt>
      <trkpt lat="45.54086" lon="6.78616">
        <ele>1778.1</ele>
        <time>2013-03-04T10:22:44Z</time>
      </trkpt>
      <trkpt lat="45.54087" lon="6.78618">
        <ele>1778.58</ele>
        <time>2013-03-04T10:22:54Z</time>
      </trkpt>
      <trkpt lat="45.54087" lon="6.78621">
        <ele>1778.1</ele>
        <time>2013-03-04T10:23:02Z</time>
      </trkpt>
      <trkpt lat="45.54087" lon="6.78623">
        <ele>1777.13</ele>
        <time>2013-03-04T10:23:14Z</time>
      </trkpt>
      <trkpt lat="45.54087" lon="6.78624">
        <ele>1776.65</ele>
        <time>2013-03-04T10:23:18Z</time>
      </trkpt>
      <trkpt lat="45.54088" lon="6.78627">
        <ele>1776.65</ele>
        <time>2013-03-04T10:23:26Z</time>
      </trkpt>
      <trkpt lat="45.54088" lon="6.78629">
        <ele>1777.13</ele>
        <time>2013-03-04T10:23:35Z</time>
      </trkpt>
      <trkpt lat="45.5409" lon="6.78631">
        <ele>1776.17</ele>
        <time>2013-03-04T10:23:49Z</time>
      </trkpt>
      <trkpt lat="45.5409" lon="6.78636">
        <ele>1776.17</ele>
        <time>2013-03-04T10:23:55Z</time>
      </trkpt>
      <trkpt lat="45.54091" lon="6.78641">
        <ele>1777.13</ele>
        <time>2013-03-04T10:24:02Z</time>
      </trkpt>
      <trkpt lat="45.54095" lon="6.78645">
        <ele>1778.58</ele>
        <time>2013-03-04T10:24:12Z</time>
      </trkpt>
      <trkpt lat="45.54095" lon="6.78646">
        <ele>1777.13</ele>
        <time>2013-03-04T10:24:29Z</time>
      </trkpt>
      <trkpt lat="45.54094" lon="6.78649">
        <ele>1777.13</ele>
        <time>2013-03-04T10:24:38Z</time>
      </trkpt>
      <trkpt lat="45.54095" lon="6.78652">
        <ele>1778.58</ele>
        <time>2013-03-04T10:24:50Z</time>
      </trkpt>
      <trkpt lat="45.54095" lon="6.78656">
        <ele>1780.02</ele>
        <time>2013-03-04T10:25:01Z</time>
      </trkpt>
      <trkpt lat="45.54095" lon="6.7866">
        <ele>1780.02</ele>
        <time>2013-03-04T10:25:09Z</time>
      </trkpt>
      <trkpt lat="45.54094" lon="6.78663">
        <ele>1780.02</ele>
        <time>2013-03-04T10:25:26Z</time>
      </trkpt>
      <trkpt lat="45.54093" lon="6.78667">
        <ele>1780.98</ele>
        <time>2013-03-04T10:25:30Z</time>
      </trkpt>
      <trkpt lat="45.54089" lon="6.7868">
        <ele>1784.34</ele>
        <time>2013-03-04T10:25:38Z</time>
      </trkpt>
      <trkpt lat="45.54088" lon="6.78684">
        <ele>1785.79</ele>
        <time>2013-03-04T10:25:44Z</time>
      </trkpt>
      <trkpt lat="45.5409" lon="6.78689">
        <ele>1786.27</ele>
        <time>2013-03-04T10:25:51Z</time>
      </trkpt>
      <trkpt lat="45.54087" lon="6.78693">
        <ele>1787.71</ele>
        <time>2013-03-04T10:25:57Z</time>
      </trkpt>
      <trkpt lat="45.54085" lon="6.78698">
        <ele>1787.71</ele>
        <time>2013-03-04T10:26:01Z</time>
      </trkpt>
      <trkpt lat="45.54085" lon="6.78702">
        <ele>1787.23</ele>
        <time>2013-03-04T10:26:07Z</time>
      </trkpt>
      <trkpt lat="45.54086" lon="6.78705">
        <ele>1785.79</ele>
        <time>2013-03-04T10:26:16Z</time>
      </trkpt>
      <trkpt lat="45.5409" lon="6.78704">
        <ele>1786.27</ele>
        <time>2013-03-04T10:26:39Z</time>
      </trkpt>
      <trkpt lat="45.54087" lon="6.78711">
        <ele>1785.79</ele>
        <time>2013-03-04T10:26:48Z</time>
      </trkpt>
      <trkpt lat="45.54085" lon="6.78714">
        <ele>1786.27</ele>
        <time>2013-03-04T10:26:59Z</time>
      </trkpt>
      <trkpt lat="45.54083" lon="6.78718">
        <ele>1785.79</ele>
        <time>2013-03-04T10:27:06Z</time>
      </trkpt>
      <trkpt lat="45.54076" lon="6.78729">
        <ele>1783.86</ele>
        <time>2013-03-04T10:27:16Z</time>
      </trkpt>
      <trkpt lat="45.54076" lon="6.78729">
        <ele>1783.86</ele>
        <time>2013-03-04T10:27:18Z</time>
      </trkpt>
      <trkpt lat="45.54076" lon="6.78732">
        <ele>1784.34</ele>
        <time>2013-03-04T10:27:26Z</time>
      </trkpt>
      <trkpt lat="45.54074" lon="6.78738">
        <ele>1784.34</ele>
        <time>2013-03-04T10:27:39Z</time>
      </trkpt>
      <trkpt lat="45.54072" lon="6.78743">
        <ele>1783.38</ele>
        <time>2013-03-04T10:27:47Z</time>
      </trkpt>
      <trkpt lat="45.54071" lon="6.78744">
        <ele>1783.86</ele>
        <time>2013-03-04T10:27:49Z</time>
      </trkpt>
      <trkpt lat="45.54074" lon="6.78746">
        <ele>1783.38</ele>
        <time>2013-03-04T10:27:53Z</time>
      </trkpt>
      <trkpt lat="45.54075" lon="6.78752">
        <ele>1784.34</ele>
        <time>2013-03-04T10:28:02Z</time>
      </trkpt>
      <trkpt lat="45.54076" lon="6.78754">
        <ele>1785.31</ele>
        <time>2013-03-04T10:28:18Z</time>
      </trkpt>
      <trkpt lat="45.54076" lon="6.78759">
        <ele>1786.27</ele>
        <time>2013-03-04T10:28:29Z</time>
      </trkpt>
      <trkpt lat="45.54075" lon="6.78763">
        <ele>1787.23</ele>
        <time>2013-03-04T10:28:40Z</time>
      </trkpt>
      <trkpt lat="45.54073" lon="6.78765">
        <ele>1786.27</ele>
        <time>2013-03-04T10:29:00Z</time>
      </trkpt>
      <trkpt lat="45.54074" lon="6.78765">
        <ele>1786.27</ele>
        <time>2013-03-04T10:29:04Z</time>
      </trkpt>
      <trkpt lat="45.54075" lon="6.78768">
        <ele>1786.27</ele>
        <time>2013-03-04T10:29:11Z</time>
      </trkpt>
      <trkpt lat="45.54075" lon="6.7877">
        <ele>1785.79</ele>
        <time>2013-03-04T10:29:24Z</time>
      </trkpt>
      <trkpt lat="45.54074" lon="6.78771">
        <ele>1786.27</ele>
        <time>2013-03-04T10:29:47Z</time>
      </trkpt>
      <trkpt lat="45.54073" lon="6.78773">
        <ele>1786.27</ele>
        <time>2013-03-04T10:30:03Z</time>
      </trkpt>
      <trkpt lat="45.54074" lon="6.78773">
        <ele>1785.79</ele>
        <time>2013-03-04T10:30:12Z</time>
      </trkpt>
      <trkpt lat="45.54076" lon="6.78775">
        <ele>1785.31</ele>
        <time>2013-03-04T10:30:28Z</time>
      </trkpt>
      <trkpt lat="45.54076" lon="6.78776">
        <ele>1784.82</ele>
        <time>2013-03-04T10:30:41Z</time>
      </trkpt>
      <trkpt lat="45.54077" lon="6.78779">
        <ele>1784.34</ele>
        <time>2013-03-04T10:30:49Z</time>
      </trkpt>
      <trkpt lat="45.5408" lon="6.7878">
        <ele>1783.86</ele>
        <time>2013-03-04T10:30:58Z</time>
      </trkpt>
      <trkpt lat="45.54081" lon="6.78782">
        <ele>1783.86</ele>
        <time>2013-03-04T10:31:06Z</time>
      </trkpt>
      <trkpt lat="45.54084" lon="6.78787">
        <ele>1784.34</ele>
        <time>2013-03-04T10:31:15Z</time>
      </trkpt>
      <trkpt lat="45.54087" lon="6.78793">
        <ele>1784.82</ele>
        <time>2013-03-04T10:31:27Z</time>
      </trkpt>
      <trkpt lat="45.54089" lon="6.788">
        <ele>1785.79</ele>
        <time>2013-03-04T10:31:36Z</time>
      </trkpt>
      <trkpt lat="45.54089" lon="6.78803">
        <ele>1785.79</ele>
        <time>2013-03-04T10:31:49Z</time>
      </trkpt>
      <trkpt lat="45.5409" lon="6.78803">
        <ele>1785.79</ele>
        <time>2013-03-04T10:32:07Z</time>
      </trkpt>
      <trkpt lat="45.5409" lon="6.78805">
        <ele>1785.79</ele>
        <time>2013-03-04T10:32:21Z</time>
      </trkpt>
      <trkpt lat="45.54089" lon="6.78807">
        <ele>1786.27</ele>
        <time>2013-03-04T10:32:34Z</time>
      </trkpt>
      <trkpt lat="45.54089" lon="6.78808">
        <ele>1786.27</ele>
        <time>2013-03-04T10:32:52Z</time>
      </trkpt>
      <trkpt lat="45.54089" lon="6.78808">
        <ele>1786.75</ele>
        <time>2013-03-04T10:33:19Z</time>
      </trkpt>
      <trkpt lat="45.54089" lon="6.7881">
        <ele>1787.23</ele>
        <time>2013-03-04T10:33:36Z</time>
      </trkpt>
      <trkpt lat="45.54086" lon="6.78813">
        <ele>1787.23</ele>
        <time>2013-03-04T10:33:59Z</time>
      </trkpt>
      <trkpt lat="45.54086" lon="6.78812">
        <ele>1787.71</ele>
        <time>2013-03-04T10:34:15Z</time>
      </trkpt>
      <trkpt lat="45.54085" lon="6.78814">
        <ele>1787.71</ele>
        <time>2013-03-04T10:34:26Z</time>
      </trkpt>
      <trkpt lat="45.54082" lon="6.78815">
        <ele>1786.75</ele>
        <time>2013-03-04T10:34:35Z</time>
      </trkpt>
      <trkpt lat="45.54084" lon="6.78815">
        <ele>1786.75</ele>
        <time>2013-03-04T10:34:54Z</time>
      </trkpt>
      <trkpt lat="45.54083" lon="6.78815">
        <ele>1786.75</ele>
        <time>2013-03-04T10:35:00Z</time>
      </trkpt>
      <trkpt lat="45.54079" lon="6.78811">
        <ele>1786.75</ele>
        <time>2013-03-04T10:35:09Z</time>
      </trkpt>
      <trkpt lat="45.54073" lon="6.78808">
        <ele>1787.23</ele>
        <time>2013-03-04T10:35:17Z</time>
      </trkpt>
      <trkpt lat="45.54066" lon="6.78807">
        <ele>1786.75</ele>
        <time>2013-03-04T10:35:25Z</time>
      </trkpt>
      <trkpt lat="45.54063" lon="6.78809">
        <ele>1785.79</ele>
        <time>2013-03-04T10:35:38Z</time>
      </trkpt>
      <trkpt lat="45.5406" lon="6.7881">
        <ele>1787.23</ele>
        <time>2013-03-04T10:35:50Z</time>
      </trkpt>
      <trkpt lat="45.54059" lon="6.78808">
        <ele>1789.63</ele>
        <time>2013-03-04T10:35:59Z</time>
      </trkpt>
      <trkpt lat="45.54059" lon="6.78808">
        <ele>1789.63</ele>
        <time>2013-03-04T10:36:23Z</time>
      </trkpt>
      <trkpt lat="45.54059" lon="6.78807">
        <ele>1791.55</ele>
        <time>2013-03-04T10:36:41Z</time>
      </trkpt>
      <trkpt lat="45.54057" lon="6.78806">
        <ele>1791.55</ele>
        <time>2013-03-04T10:36:51Z</time>
      </trkpt>
      <trkpt lat="45.54056" lon="6.78806">
        <ele>1791.55</ele>
        <time>2013-03-04T10:37:02Z</time>
      </trkpt>
      <trkpt lat="45.54053" lon="6.78805">
        <ele>1791.55</ele>
        <time>2013-03-04T10:37:20Z</time>
      </trkpt>
      <trkpt lat="45.54051" lon="6.78806">
        <ele>1791.55</ele>
        <time>2013-03-04T10:37:32Z</time>
      </trkpt>
      <trkpt lat="45.54051" lon="6.78804">
        <ele>1793.96</ele>
        <time>2013-03-04T10:37:47Z</time>
      </trkpt>
      <trkpt lat="45.54047" lon="6.78801">
        <ele>1793.48</ele>
        <time>2013-03-04T10:37:56Z</time>
      </trkpt>
      <trkpt lat="45.54035" lon="6.78795">
        <ele>1793.96</ele>
        <time>2013-03-04T10:38:06Z</time>
      </trkpt>
      <trkpt lat="45.54033" lon="6.78795">
        <ele>1793.48</ele>
        <time>2013-03-04T10:38:26Z</time>
      </trkpt>
      <trkpt lat="45.54029" lon="6.78791">
        <ele>1793.48</ele>
        <time>2013-03-04T10:38:37Z</time>
      </trkpt>
      <trkpt lat="45.54027" lon="6.78784">
        <ele>1793.48</ele>
        <time>2013-03-04T10:38:46Z</time>
      </trkpt>
      <trkpt lat="45.54018" lon="6.78775">
        <ele>1792.52</ele>
        <time>2013-03-04T10:38:55Z</time>
      </trkpt>
      <trkpt lat="45.54016" lon="6.78772">
        <ele>1792.52</ele>
        <time>2013-03-04T10:39:06Z</time>
      </trkpt>
      <trkpt lat="45.54016" lon="6.78772">
        <ele>1792.52</ele>
        <time>2013-03-04T10:39:09Z</time>
      </trkpt>
      <trkpt lat="45.54004" lon="6.78771">
        <ele>1792.03</ele>
        <time>2013-03-04T10:39:20Z</time>
      </trkpt>
      <trkpt lat="45.53995" lon="6.78771">
        <ele>1793</ele>
        <time>2013-03-04T10:39:30Z</time>
      </trkpt>
      <trkpt lat="45.53993" lon="6.78771">
        <ele>1793</ele>
        <time>2013-03-04T10:39:44Z</time>
      </trkpt>
      <trkpt lat="45.53992" lon="6.78771">
        <ele>1793</ele>
        <time>2013-03-04T10:40:00Z</time>
      </trkpt>
      <trkpt lat="45.53989" lon="6.78772">
        <ele>1794.92</ele>
        <time>2013-03-04T10:40:15Z</time>
      </trkpt>
      <trkpt lat="45.53988" lon="6.78773">
        <ele>1794.44</ele>
        <time>2013-03-04T10:40:37Z</time>
      </trkpt>
      <trkpt lat="45.53988" lon="6.78774">
        <ele>1794.44</ele>
        <time>2013-03-04T10:40:57Z</time>
      </trkpt>
      <trkpt lat="45.53985" lon="6.78774">
        <ele>1794.92</ele>
        <time>2013-03-04T10:41:10Z</time>
      </trkpt>
      <trkpt lat="45.53979" lon="6.78774">
        <ele>1794.92</ele>
        <time>2013-03-04T10:41:20Z</time>
      </trkpt>
      <trkpt lat="45.53964" lon="6.78769">
        <ele>1794.92</ele>
        <time>2013-03-04T10:41:32Z</time>
      </trkpt>
      <trkpt lat="45.53953" lon="6.78765">
        <ele>1794.44</ele>
        <time>2013-03-04T10:41:43Z</time>
      </trkpt>
      <trkpt lat="45.53949" lon="6.78764">
        <ele>1795.4</ele>
        <time>2013-03-04T10:41:54Z</time>
      </trkpt>
      <trkpt lat="45.53943" lon="6.78761">
        <ele>1797.8</ele>
        <time>2013-03-04T10:42:06Z</time>
      </trkpt>
      <trkpt lat="45.5393" lon="6.78757">
        <ele>1801.17</ele>
        <time>2013-03-04T10:42:19Z</time>
      </trkpt>
      <trkpt lat="45.53924" lon="6.78757">
        <ele>1803.09</ele>
        <time>2013-03-04T10:42:34Z</time>
      </trkpt>
      <trkpt lat="45.53914" lon="6.78753">
        <ele>1806.94</ele>
        <time>2013-03-04T10:42:42Z</time>
      </trkpt>
      <trkpt lat="45.53907" lon="6.78758">
        <ele>1807.9</ele>
        <time>2013-03-04T10:42:51Z</time>
      </trkpt>
      <trkpt lat="45.53902" lon="6.7876">
        <ele>1808.38</ele>
        <time>2013-03-04T10:43:01Z</time>
      </trkpt>
      <trkpt lat="45.53898" lon="6.78759">
        <ele>1808.86</ele>
        <time>2013-03-04T10:43:12Z</time>
      </trkpt>
      <trkpt lat="45.53886" lon="6.78761">
        <ele>1807.9</ele>
        <time>2013-03-04T10:43:24Z</time>
      </trkpt>
      <trkpt lat="45.53878" lon="6.78768">
        <ele>1805.97</ele>
        <time>2013-03-04T10:43:34Z</time>
      </trkpt>
      <trkpt lat="45.53867" lon="6.78767">
        <ele>1802.61</ele>
        <time>2013-03-04T10:43:45Z</time>
      </trkpt>
      <trkpt lat="45.53863" lon="6.78766">
        <ele>1801.65</ele>
        <time>2013-03-04T10:43:49Z</time>
      </trkpt>
      <trkpt lat="45.53858" lon="6.78767">
        <ele>1800.21</ele>
        <time>2013-03-04T10:43:55Z</time>
      </trkpt>
      <trkpt lat="45.53852" lon="6.78769">
        <ele>1799.24</ele>
        <time>2013-03-04T10:44:01Z</time>
      </trkpt>
      <trkpt lat="45.53842" lon="6.78765">
        <ele>1795.88</ele>
        <time>2013-03-04T10:44:13Z</time>
      </trkpt>
      <trkpt lat="45.53836" lon="6.78761">
        <ele>1793.96</ele>
        <time>2013-03-04T10:44:21Z</time>
      </trkpt>
      <trkpt lat="45.53832" lon="6.78755">
        <ele>1793.96</ele>
        <time>2013-03-04T10:44:27Z</time>
      </trkpt>
      <trkpt lat="45.53828" lon="6.78747">
        <ele>1793.96</ele>
        <time>2013-03-04T10:44:33Z</time>
      </trkpt>
      <trkpt lat="45.53827" lon="6.78746">
        <ele>1793</ele>
        <time>2013-03-04T10:44:46Z</time>
      </trkpt>
      <trkpt lat="45.53826" lon="6.78746">
        <ele>1793.48</ele>
        <time>2013-03-04T10:45:05Z</time>
      </trkpt>
      <trkpt lat="45.53827" lon="6.78745">
        <ele>1793.96</ele>
        <time>2013-03-04T10:45:18Z</time>
      </trkpt>
      <trkpt lat="45.53827" lon="6.78745">
        <ele>1793</ele>
        <time>2013-03-04T10:45:37Z</time>
      </trkpt>
      <trkpt lat="45.53826" lon="6.78744">
        <ele>1795.4</ele>
        <time>2013-03-04T10:45:59Z</time>
      </trkpt>
      <trkpt lat="45.53826" lon="6.78745">
        <ele>1794.92</ele>
        <time>2013-03-04T10:46:21Z</time>
      </trkpt>
      <trkpt lat="45.53827" lon="6.78745">
        <ele>1794.92</ele>
        <time>2013-03-04T10:46:36Z</time>
      </trkpt>
      <trkpt lat="45.53827" lon="6.78748">
        <ele>1793.48</ele>
        <time>2013-03-04T10:46:55Z</time>
      </trkpt>
      <trkpt lat="45.53829" lon="6.7875">
        <ele>1790.11</ele>
        <time>2013-03-04T10:47:20Z</time>
      </trkpt>
      <trkpt lat="45.53829" lon="6.78751">
        <ele>1789.63</ele>
        <time>2013-03-04T10:47:42Z</time>
      </trkpt>
      <trkpt lat="45.53829" lon="6.78749">
        <ele>1789.63</ele>
        <time>2013-03-04T10:47:52Z</time>
      </trkpt>
      <trkpt lat="45.5383" lon="6.78749">
        <ele>1789.15</ele>
        <time>2013-03-04T10:48:09Z</time>
      </trkpt>
      <trkpt lat="45.53831" lon="6.7875">
        <ele>1788.67</ele>
        <time>2013-03-04T10:48:21Z</time>
      </trkpt>
      <trkpt lat="45.53832" lon="6.7875">
        <ele>1788.67</ele>
        <time>2013-03-04T10:48:37Z</time>
      </trkpt>
      <trkpt lat="45.53831" lon="6.78749">
        <ele>1788.19</ele>
        <time>2013-03-04T10:48:55Z</time>
      </trkpt>
      <trkpt lat="45.53831" lon="6.7875">
        <ele>1788.19</ele>
        <time>2013-03-04T10:49:06Z</time>
      </trkpt>
      <trkpt lat="45.53831" lon="6.78749">
        <ele>1788.19</ele>
        <time>2013-03-04T10:49:17Z</time>
      </trkpt>
      <trkpt lat="45.53831" lon="6.78749">
        <ele>1788.19</ele>
        <time>2013-03-04T10:49:34Z</time>
      </trkpt>
      <trkpt lat="45.53833" lon="6.78745">
        <ele>1789.15</ele>
        <time>2013-03-04T10:49:49Z</time>
      </trkpt>
      <trkpt lat="45.53834" lon="6.78744">
        <ele>1790.11</ele>
        <time>2013-03-04T10:50:03Z</time>
      </trkpt>
      <trkpt lat="45.53832" lon="6.78742">
        <ele>1790.11</ele>
        <time>2013-03-04T10:50:11Z</time>
      </trkpt>
      <trkpt lat="45.53831" lon="6.78745">
        <ele>1790.11</ele>
        <time>2013-03-04T10:50:20Z</time>
      </trkpt>
      <trkpt lat="45.53833" lon="6.78745">
        <ele>1790.59</ele>
        <time>2013-03-04T10:50:38Z</time>
      </trkpt>
      <trkpt lat="45.53831" lon="6.78744">
        <ele>1790.59</ele>
        <time>2013-03-04T10:50:54Z</time>
      </trkpt>
      <trkpt lat="45.53831" lon="6.78745">
        <ele>1789.15</ele>
        <time>2013-03-04T10:51:19Z</time>
      </trkpt>
      <trkpt lat="45.53829" lon="6.78745">
        <ele>1790.59</ele>
        <time>2013-03-04T10:51:41Z</time>
      </trkpt>
      <trkpt lat="45.53828" lon="6.78746">
        <ele>1790.11</ele>
        <time>2013-03-04T10:51:58Z</time>
      </trkpt>
      <trkpt lat="45.53828" lon="6.78747">
        <ele>1789.63</ele>
        <time>2013-03-04T10:52:17Z</time>
      </trkpt>
      <trkpt lat="45.53829" lon="6.78747">
        <ele>1790.59</ele>
        <time>2013-03-04T10:52:37Z</time>
      </trkpt>
      <trkpt lat="45.5383" lon="6.78746">
        <ele>1791.07</ele>
        <time>2013-03-04T10:53:00Z</time>
      </trkpt>
      <trkpt lat="45.53829" lon="6.78747">
        <ele>1791.07</ele>
        <time>2013-03-04T10:53:12Z</time>
      </trkpt>
      <trkpt lat="45.53826" lon="6.78749">
        <ele>1791.07</ele>
        <time>2013-03-04T10:53:22Z</time>
      </trkpt>
      <trkpt lat="45.53823" lon="6.78751">
        <ele>1791.07</ele>
        <time>2013-03-04T10:53:29Z</time>
      </trkpt>
      <trkpt lat="45.53822" lon="6.78752">
        <ele>1791.55</ele>
        <time>2013-03-04T10:53:30Z</time>
      </trkpt>
      <trkpt lat="45.53814" lon="6.78754">
        <ele>1791.07</ele>
        <time>2013-03-04T10:53:38Z</time>
      </trkpt>
      <trkpt lat="45.5381" lon="6.78752">
        <ele>1790.11</ele>
        <time>2013-03-04T10:53:45Z</time>
      </trkpt>
      <trkpt lat="45.53805" lon="6.7875">
        <ele>1789.63</ele>
        <time>2013-03-04T10:53:53Z</time>
      </trkpt>
      <trkpt lat="45.53799" lon="6.78747">
        <ele>1789.63</ele>
        <time>2013-03-04T10:54:01Z</time>
      </trkpt>
      <trkpt lat="45.53796" lon="6.78745">
        <ele>1789.15</ele>
        <time>2013-03-04T10:54:06Z</time>
      </trkpt>
      <trkpt lat="45.5379" lon="6.78743">
        <ele>1789.15</ele>
        <time>2013-03-04T10:54:13Z</time>
      </trkpt>
      <trkpt lat="45.53782" lon="6.78744">
        <ele>1790.11</ele>
        <time>2013-03-04T10:54:21Z</time>
      </trkpt>
      <trkpt lat="45.53774" lon="6.78743">
        <ele>1791.07</ele>
        <time>2013-03-04T10:54:30Z</time>
      </trkpt>
      <trkpt lat="45.53767" lon="6.78741">
        <ele>1791.55</ele>
        <time>2013-03-04T10:54:38Z</time>
      </trkpt>
      <trkpt lat="45.53758" lon="6.78738">
        <ele>1791.55</ele>
        <time>2013-03-04T10:54:48Z</time>
      </trkpt>
      <trkpt lat="45.53753" lon="6.78738">
        <ele>1793</ele>
        <time>2013-03-04T10:54:55Z</time>
      </trkpt>
      <trkpt lat="45.53746" lon="6.78738">
        <ele>1794.44</ele>
        <time>2013-03-04T10:55:05Z</time>
      </trkpt>
      <trkpt lat="45.53744" lon="6.78737">
        <ele>1795.4</ele>
        <time>2013-03-04T10:55:08Z</time>
      </trkpt>
      <trkpt lat="45.53739" lon="6.78736">
        <ele>1797.32</ele>
        <time>2013-03-04T10:55:15Z</time>
      </trkpt>
      <trkpt lat="45.53738" lon="6.78736">
        <ele>1797.8</ele>
        <time>2013-03-04T10:55:17Z</time>
      </trkpt>
      <trkpt lat="45.53731" lon="6.78735">
        <ele>1800.21</ele>
        <time>2013-03-04T10:55:27Z</time>
      </trkpt>
      <trkpt lat="45.53722" lon="6.78737">
        <ele>1799.73</ele>
        <time>2013-03-04T10:55:37Z</time>
      </trkpt>
      <trkpt lat="45.53721" lon="6.78737">
        <ele>1798.76</ele>
        <time>2013-03-04T10:55:48Z</time>
      </trkpt>
      <trkpt lat="45.53716" lon="6.78737">
        <ele>1798.76</ele>
        <time>2013-03-04T10:55:55Z</time>
      </trkpt>
      <trkpt lat="45.53707" lon="6.78734">
        <ele>1800.69</ele>
        <time>2013-03-04T10:56:04Z</time>
      </trkpt>
      <trkpt lat="45.53699" lon="6.78734">
        <ele>1803.09</ele>
        <time>2013-03-04T10:56:14Z</time>
      </trkpt>
      <trkpt lat="45.53691" lon="6.78734">
        <ele>1803.09</ele>
        <time>2013-03-04T10:56:24Z</time>
      </trkpt>
      <trkpt lat="45.53683" lon="6.78735">
        <ele>1802.61</ele>
        <time>2013-03-04T10:56:33Z</time>
      </trkpt>
      <trkpt lat="45.53675" lon="6.78732">
        <ele>1803.09</ele>
        <time>2013-03-04T10:56:45Z</time>
      </trkpt>
      <trkpt lat="45.53668" lon="6.78729">
        <ele>1803.09</ele>
        <time>2013-03-04T10:56:53Z</time>
      </trkpt>
      <trkpt lat="45.53662" lon="6.78728">
        <ele>1803.09</ele>
        <time>2013-03-04T10:57:05Z</time>
      </trkpt>
      <trkpt lat="45.53659" lon="6.78724">
        <ele>1801.65</ele>
        <time>2013-03-04T10:57:12Z</time>
      </trkpt>
      <trkpt lat="45.5365" lon="6.78718">
        <ele>1800.69</ele>
        <time>2013-03-04T10:57:24Z</time>
      </trkpt>
      <trkpt lat="45.53642" lon="6.7871">
        <ele>1801.65</ele>
        <time>2013-03-04T10:57:35Z</time>
      </trkpt>
      <trkpt lat="45.53634" lon="6.78702">
        <ele>1804.05</ele>
        <time>2013-03-04T10:57:46Z</time>
      </trkpt>
      <trkpt lat="45.5363" lon="6.78699">
        <ele>1804.05</ele>
        <time>2013-03-04T10:57:55Z</time>
      </trkpt>
      <trkpt lat="45.53624" lon="6.78694">
        <ele>1804.53</ele>
        <time>2013-03-04T10:58:05Z</time>
      </trkpt>
      <trkpt lat="45.53619" lon="6.78691">
        <ele>1805.49</ele>
        <time>2013-03-04T10:58:14Z</time>
      </trkpt>
      <trkpt lat="45.53612" lon="6.78687">
        <ele>1805.97</ele>
        <time>2013-03-04T10:58:26Z</time>
      </trkpt>
      <trkpt lat="45.53612" lon="6.78687">
        <ele>1805.49</ele>
        <time>2013-03-04T10:58:35Z</time>
      </trkpt>
      <trkpt lat="45.53606" lon="6.78685">
        <ele>1805.97</ele>
        <time>2013-03-04T10:58:43Z</time>
      </trkpt>
      <trkpt lat="45.53598" lon="6.78679">
        <ele>1806.94</ele>
        <time>2013-03-04T10:58:53Z</time>
      </trkpt>
      <trkpt lat="45.5359" lon="6.78674">
        <ele>1809.34</ele>
        <time>2013-03-04T10:59:02Z</time>
      </trkpt>
      <trkpt lat="45.53588" lon="6.78674">
        <ele>1809.82</ele>
        <time>2013-03-04T10:59:05Z</time>
      </trkpt>
      <trkpt lat="45.53577" lon="6.7867">
        <ele>1811.26</ele>
        <time>2013-03-04T10:59:16Z</time>
      </trkpt>
      <trkpt lat="45.53574" lon="6.78669">
        <ele>1810.78</ele>
        <time>2013-03-04T10:59:19Z</time>
      </trkpt>
      <trkpt lat="45.53566" lon="6.78664">
        <ele>1812.22</ele>
        <time>2013-03-04T10:59:29Z</time>
      </trkpt>
      <trkpt lat="45.53561" lon="6.78662">
        <ele>1813.66</ele>
        <time>2013-03-04T10:59:37Z</time>
      </trkpt>
      <trkpt lat="45.53557" lon="6.78659">
        <ele>1813.18</ele>
        <time>2013-03-04T10:59:51Z</time>
      </trkpt>
      <trkpt lat="45.53548" lon="6.78661">
        <ele>1813.66</ele>
        <time>2013-03-04T10:59:59Z</time>
      </trkpt>
      <trkpt lat="45.53539" lon="6.78662">
        <ele>1814.15</ele>
        <time>2013-03-04T11:00:09Z</time>
      </trkpt>
      <trkpt lat="45.5353" lon="6.78657">
        <ele>1814.15</ele>
        <time>2013-03-04T11:00:21Z</time>
      </trkpt>
      <trkpt lat="45.53524" lon="6.78652">
        <ele>1815.11</ele>
        <time>2013-03-04T11:00:37Z</time>
      </trkpt>
      <trkpt lat="45.53515" lon="6.78649">
        <ele>1816.07</ele>
        <time>2013-03-04T11:00:49Z</time>
      </trkpt>
      <trkpt lat="45.53505" lon="6.78643">
        <ele>1817.99</ele>
        <time>2013-03-04T11:01:00Z</time>
      </trkpt>
      <trkpt lat="45.53506" lon="6.78643">
        <ele>1817.51</ele>
        <time>2013-03-04T11:01:10Z</time>
      </trkpt>
      <trkpt lat="45.53501" lon="6.78643">
        <ele>1817.51</ele>
        <time>2013-03-04T11:01:27Z</time>
      </trkpt>
      <trkpt lat="45.53497" lon="6.7864">
        <ele>1818.47</ele>
        <time>2013-03-04T11:01:33Z</time>
      </trkpt>
      <trkpt lat="45.53493" lon="6.78638">
        <ele>1818.95</ele>
        <time>2013-03-04T11:01:37Z</time>
      </trkpt>
      <trkpt lat="45.53482" lon="6.78636">
        <ele>1818.47</ele>
        <time>2013-03-04T11:01:48Z</time>
      </trkpt>
      <trkpt lat="45.53473" lon="6.78632">
        <ele>1818.47</ele>
        <time>2013-03-04T11:01:57Z</time>
      </trkpt>
      <trkpt lat="45.53471" lon="6.78632">
        <ele>1817.99</ele>
        <time>2013-03-04T11:02:10Z</time>
      </trkpt>
      <trkpt lat="45.53468" lon="6.78628">
        <ele>1818.47</ele>
        <time>2013-03-04T11:02:21Z</time>
      </trkpt>
      <trkpt lat="45.53463" lon="6.78623">
        <ele>1819.43</ele>
        <time>2013-03-04T11:02:34Z</time>
      </trkpt>
      <trkpt lat="45.53456" lon="6.7862">
        <ele>1821.35</ele>
        <time>2013-03-04T11:02:42Z</time>
      </trkpt>
      <trkpt lat="45.5345" lon="6.78616">
        <ele>1823.28</ele>
        <time>2013-03-04T11:02:51Z</time>
      </trkpt>
      <trkpt lat="45.53444" lon="6.78614">
        <ele>1824.24</ele>
        <time>2013-03-04T11:02:58Z</time>
      </trkpt>
      <trkpt lat="45.53436" lon="6.78611">
        <ele>1825.2</ele>
        <time>2013-03-04T11:03:07Z</time>
      </trkpt>
      <trkpt lat="45.53432" lon="6.78608">
        <ele>1826.16</ele>
        <time>2013-03-04T11:03:19Z</time>
      </trkpt>
      <trkpt lat="45.53431" lon="6.78607">
        <ele>1825.68</ele>
        <time>2013-03-04T11:03:26Z</time>
      </trkpt>
      <trkpt lat="45.53424" lon="6.7861">
        <ele>1828.56</ele>
        <time>2013-03-04T11:03:33Z</time>
      </trkpt>
      <trkpt lat="45.53422" lon="6.7861">
        <ele>1829.53</ele>
        <time>2013-03-04T11:03:36Z</time>
      </trkpt>
      <trkpt lat="45.53414" lon="6.78615">
        <ele>1831.45</ele>
        <time>2013-03-04T11:03:44Z</time>
      </trkpt>
      <trkpt lat="45.53409" lon="6.7862">
        <ele>1831.93</ele>
        <time>2013-03-04T11:03:52Z</time>
      </trkpt>
      <trkpt lat="45.53407" lon="6.78624">
        <ele>1833.85</ele>
        <time>2013-03-04T11:03:56Z</time>
      </trkpt>
      <trkpt lat="45.53407" lon="6.78628">
        <ele>1833.85</ele>
        <time>2013-03-04T11:03:58Z</time>
      </trkpt>
      <trkpt lat="45.53405" lon="6.78632">
        <ele>1834.81</ele>
        <time>2013-03-04T11:04:03Z</time>
      </trkpt>
      <trkpt lat="45.53403" lon="6.78636">
        <ele>1835.29</ele>
        <time>2013-03-04T11:04:09Z</time>
      </trkpt>
      <trkpt lat="45.53401" lon="6.78644">
        <ele>1836.74</ele>
        <time>2013-03-04T11:04:17Z</time>
      </trkpt>
      <trkpt lat="45.53399" lon="6.7865">
        <ele>1837.7</ele>
        <time>2013-03-04T11:04:22Z</time>
      </trkpt>
      <trkpt lat="45.53402" lon="6.78655">
        <ele>1838.66</ele>
        <time>2013-03-04T11:04:29Z</time>
      </trkpt>
      <trkpt lat="45.53409" lon="6.78655">
        <ele>1840.1</ele>
        <time>2013-03-04T11:04:38Z</time>
      </trkpt>
      <trkpt lat="45.53414" lon="6.78651">
        <ele>1841.06</ele>
        <time>2013-03-04T11:04:46Z</time>
      </trkpt>
      <trkpt lat="45.53415" lon="6.78651">
        <ele>1841.54</ele>
        <time>2013-03-04T11:05:05Z</time>
      </trkpt>
      <trkpt lat="45.53418" lon="6.78649">
        <ele>1842.5</ele>
        <time>2013-03-04T11:05:13Z</time>
      </trkpt>
      <trkpt lat="45.53423" lon="6.78646">
        <ele>1843.47</ele>
        <time>2013-03-04T11:05:20Z</time>
      </trkpt>
      <trkpt lat="45.53429" lon="6.78645">
        <ele>1843.95</ele>
        <time>2013-03-04T11:05:28Z</time>
      </trkpt>
      <trkpt lat="45.53431" lon="6.78649">
        <ele>1844.91</ele>
        <time>2013-03-04T11:05:38Z</time>
      </trkpt>
      <trkpt lat="45.53429" lon="6.78654">
        <ele>1845.39</ele>
        <time>2013-03-04T11:05:46Z</time>
      </trkpt>
      <trkpt lat="45.5343" lon="6.78656">
        <ele>1844.91</ele>
        <time>2013-03-04T11:06:13Z</time>
      </trkpt>
      <trkpt lat="45.53429" lon="6.78658">
        <ele>1844.91</ele>
        <time>2013-03-04T11:06:20Z</time>
      </trkpt>
      <trkpt lat="45.53423" lon="6.78663">
        <ele>1845.87</ele>
        <time>2013-03-04T11:06:29Z</time>
      </trkpt>
      <trkpt lat="45.5342" lon="6.78665">
        <ele>1846.35</ele>
        <time>2013-03-04T11:06:37Z</time>
      </trkpt>
      <trkpt lat="45.53416" lon="6.78666">
        <ele>1847.79</ele>
        <time>2013-03-04T11:06:41Z</time>
      </trkpt>
      <trkpt lat="45.53409" lon="6.7867">
        <ele>1848.75</ele>
        <time>2013-03-04T11:06:49Z</time>
      </trkpt>
      <trkpt lat="45.53407" lon="6.78674">
        <ele>1850.19</ele>
        <time>2013-03-04T11:06:56Z</time>
      </trkpt>
      <trkpt lat="45.53405" lon="6.78674">
        <ele>1850.68</ele>
        <time>2013-03-04T11:06:58Z</time>
      </trkpt>
      <trkpt lat="45.53401" lon="6.78678">
        <ele>1851.64</ele>
        <time>2013-03-04T11:07:09Z</time>
      </trkpt>
      <trkpt lat="45.534" lon="6.7868">
        <ele>1851.64</ele>
        <time>2013-03-04T11:07:14Z</time>
      </trkpt>
      <trkpt lat="45.53398" lon="6.78687">
        <ele>1851.64</ele>
        <time>2013-03-04T11:07:23Z</time>
      </trkpt>
      <trkpt lat="45.53397" lon="6.78691">
        <ele>1852.12</ele>
        <time>2013-03-04T11:07:26Z</time>
      </trkpt>
      <trkpt lat="45.53396" lon="6.78694">
        <ele>1852.6</ele>
        <time>2013-03-04T11:07:32Z</time>
      </trkpt>
      <trkpt lat="45.53396" lon="6.78695">
        <ele>1852.6</ele>
        <time>2013-03-04T11:07:43Z</time>
      </trkpt>
      <trkpt lat="45.53395" lon="6.78695">
        <ele>1853.56</ele>
        <time>2013-03-04T11:08:01Z</time>
      </trkpt>
      <trkpt lat="45.53396" lon="6.78699">
        <ele>1853.56</ele>
        <time>2013-03-04T11:08:16Z</time>
      </trkpt>
      <trkpt lat="45.53396" lon="6.78706">
        <ele>1853.08</ele>
        <time>2013-03-04T11:08:23Z</time>
      </trkpt>
      <trkpt lat="45.53395" lon="6.78708">
        <ele>1852.6</ele>
        <time>2013-03-04T11:08:26Z</time>
      </trkpt>
      <trkpt lat="45.53393" lon="6.78715">
        <ele>1852.12</ele>
        <time>2013-03-04T11:08:33Z</time>
      </trkpt>
      <trkpt lat="45.53391" lon="6.78721">
        <ele>1852.6</ele>
        <time>2013-03-04T11:08:39Z</time>
      </trkpt>
      <trkpt lat="45.53389" lon="6.78728">
        <ele>1854.04</ele>
        <time>2013-03-04T11:08:46Z</time>
      </trkpt>
      <trkpt lat="45.53387" lon="6.78738">
        <ele>1855.48</ele>
        <time>2013-03-04T11:08:53Z</time>
      </trkpt>
      <trkpt lat="45.53386" lon="6.78739">
        <ele>1855.96</ele>
        <time>2013-03-04T11:09:04Z</time>
      </trkpt>
      <trkpt lat="45.53384" lon="6.78744">
        <ele>1856.92</ele>
        <time>2013-03-04T11:09:12Z</time>
      </trkpt>
      <trkpt lat="45.53383" lon="6.78747">
        <ele>1856.92</ele>
        <time>2013-03-04T11:09:14Z</time>
      </trkpt>
      <trkpt lat="45.53379" lon="6.78751">
        <ele>1856.92</ele>
        <time>2013-03-04T11:09:19Z</time>
      </trkpt>
      <trkpt lat="45.53379" lon="6.78762">
        <ele>1857.89</ele>
        <time>2013-03-04T11:09:26Z</time>
      </trkpt>
      <trkpt lat="45.53381" lon="6.78768">
        <ele>1858.85</ele>
        <time>2013-03-04T11:09:34Z</time>
      </trkpt>
      <trkpt lat="45.53381" lon="6.78768">
        <ele>1859.33</ele>
        <time>2013-03-04T11:09:50Z</time>
      </trkpt>
      <trkpt lat="45.53384" lon="6.78767">
        <ele>1859.81</ele>
        <time>2013-03-04T11:09:55Z</time>
      </trkpt>
      <trkpt lat="45.53391" lon="6.78764">
        <ele>1859.81</ele>
        <time>2013-03-04T11:10:03Z</time>
      </trkpt>
      <trkpt lat="45.53393" lon="6.78763">
        <ele>1859.81</ele>
        <time>2013-03-04T11:10:05Z</time>
      </trkpt>
      <trkpt lat="45.53394" lon="6.78762">
        <ele>1859.81</ele>
        <time>2013-03-04T11:10:07Z</time>
      </trkpt>
      <trkpt lat="45.53399" lon="6.78756">
        <ele>1860.77</ele>
        <time>2013-03-04T11:10:14Z</time>
      </trkpt>
      <trkpt lat="45.53402" lon="6.7875">
        <ele>1862.21</ele>
        <time>2013-03-04T11:10:20Z</time>
      </trkpt>
      <trkpt lat="45.53406" lon="6.78746">
        <ele>1863.65</ele>
        <time>2013-03-04T11:10:26Z</time>
      </trkpt>
      <trkpt lat="45.53405" lon="6.78744">
        <ele>1864.13</ele>
        <time>2013-03-04T11:10:37Z</time>
      </trkpt>
      <trkpt lat="45.53408" lon="6.7874">
        <ele>1865.58</ele>
        <time>2013-03-04T11:10:44Z</time>
      </trkpt>
      <trkpt lat="45.53412" lon="6.78735">
        <ele>1866.54</ele>
        <time>2013-03-04T11:10:51Z</time>
      </trkpt>
      <trkpt lat="45.53414" lon="6.78733">
        <ele>1866.54</ele>
        <time>2013-03-04T11:10:54Z</time>
      </trkpt>
      <trkpt lat="45.53419" lon="6.7873">
        <ele>1866.54</ele>
        <time>2013-03-04T11:11:01Z</time>
      </trkpt>
      <trkpt lat="45.53421" lon="6.78726">
        <ele>1866.06</ele>
        <time>2013-03-04T11:11:07Z</time>
      </trkpt>
      <trkpt lat="45.53422" lon="6.78719">
        <ele>1867.5</ele>
        <time>2013-03-04T11:11:16Z</time>
      </trkpt>
      <trkpt lat="45.53423" lon="6.78717">
        <ele>1867.98</ele>
        <time>2013-03-04T11:11:28Z</time>
      </trkpt>
      <trkpt lat="45.53429" lon="6.78712">
        <ele>1868.94</ele>
        <time>2013-03-04T11:11:35Z</time>
      </trkpt>
      <trkpt lat="45.53431" lon="6.78712">
        <ele>1869.42</ele>
        <time>2013-03-04T11:11:37Z</time>
      </trkpt>
      <trkpt lat="45.53437" lon="6.78717">
        <ele>1869.9</ele>
        <time>2013-03-04T11:11:45Z</time>
      </trkpt>
      <trkpt lat="45.53435" lon="6.7872">
        <ele>1869.9</ele>
        <time>2013-03-04T11:11:56Z</time>
      </trkpt>
      <trkpt lat="45.53435" lon="6.78726">
        <ele>1870.86</ele>
        <time>2013-03-04T11:12:10Z</time>
      </trkpt>
      <trkpt lat="45.53432" lon="6.78734">
        <ele>1872.3</ele>
        <time>2013-03-04T11:12:19Z</time>
      </trkpt>
      <trkpt lat="45.53429" lon="6.78738">
        <ele>1873.75</ele>
        <time>2013-03-04T11:12:28Z</time>
      </trkpt>
      <trkpt lat="45.53428" lon="6.78738">
        <ele>1873.75</ele>
        <time>2013-03-04T11:12:45Z</time>
      </trkpt>
      <trkpt lat="45.53428" lon="6.78739">
        <ele>1873.75</ele>
        <time>2013-03-04T11:13:02Z</time>
      </trkpt>
      <trkpt lat="45.53427" lon="6.78739">
        <ele>1874.23</ele>
        <time>2013-03-04T11:13:18Z</time>
      </trkpt>
      <trkpt lat="45.53427" lon="6.7874">
        <ele>1875.67</ele>
        <time>2013-03-04T11:13:41Z</time>
      </trkpt>
      <trkpt lat="45.53428" lon="6.78741">
        <ele>1875.67</ele>
        <time>2013-03-04T11:14:05Z</time>
      </trkpt>
      <trkpt lat="45.53429" lon="6.78742">
        <ele>1876.15</ele>
        <time>2013-03-04T11:14:18Z</time>
      </trkpt>
      <trkpt lat="45.53427" lon="6.78741">
        <ele>1875.67</ele>
        <time>2013-03-04T11:14:42Z</time>
      </trkpt>
      <trkpt lat="45.53427" lon="6.7874">
        <ele>1875.67</ele>
        <time>2013-03-04T11:15:08Z</time>
      </trkpt>
      <trkpt lat="45.53427" lon="6.7874">
        <ele>1875.67</ele>
        <time>2013-03-04T11:15:22Z</time>
      </trkpt>
      <trkpt lat="45.53428" lon="6.7874">
        <ele>1875.67</ele>
        <time>2013-03-04T11:15:31Z</time>
      </trkpt>
      <trkpt lat="45.53428" lon="6.78741">
        <ele>1875.67</ele>
        <time>2013-03-04T11:15:51Z</time>
      </trkpt>
      <trkpt lat="45.53428" lon="6.78741">
        <ele>1875.67</ele>
        <time>2013-03-04T11:16:04Z</time>
      </trkpt>
      <trkpt lat="45.53427" lon="6.7874">
        <ele>1875.19</ele>
        <time>2013-03-04T11:16:26Z</time>
      </trkpt>
      <trkpt lat="45.53426" lon="6.7874">
        <ele>1876.63</ele>
        <time>2013-03-04T11:16:36Z</time>
      </trkpt>
      <trkpt lat="45.53426" lon="6.78741">
        <ele>1880</ele>
        <time>2013-03-04T11:16:53Z</time>
      </trkpt>
      <trkpt lat="45.53426" lon="6.78742">
        <ele>1880</ele>
        <time>2013-03-04T11:17:10Z</time>
      </trkpt>
      <trkpt lat="45.53426" lon="6.78742">
        <ele>1880</ele>
        <time>2013-03-04T11:17:23Z</time>
      </trkpt>
      <trkpt lat="45.53424" lon="6.78742">
        <ele>1880</ele>
        <time>2013-03-04T11:17:38Z</time>
      </trkpt>
      <trkpt lat="45.53421" lon="6.78746">
        <ele>1879.51</ele>
        <time>2013-03-04T11:17:46Z</time>
      </trkpt>
      <trkpt lat="45.53418" lon="6.78757">
        <ele>1880</ele>
        <time>2013-03-04T11:17:56Z</time>
      </trkpt>
      <trkpt lat="45.53416" lon="6.7876">
        <ele>1880</ele>
        <time>2013-03-04T11:18:00Z</time>
      </trkpt>
      <trkpt lat="45.53415" lon="6.78769">
        <ele>1879.51</ele>
        <time>2013-03-04T11:18:07Z</time>
      </trkpt>
      <trkpt lat="45.53412" lon="6.78776">
        <ele>1880.96</ele>
        <time>2013-03-04T11:18:14Z</time>
      </trkpt>
      <trkpt lat="45.5341" lon="6.78781">
        <ele>1881.92</ele>
        <time>2013-03-04T11:18:20Z</time>
      </trkpt>
      <trkpt lat="45.53407" lon="6.78789">
        <ele>1882.88</ele>
        <time>2013-03-04T11:18:28Z</time>
      </trkpt>
      <trkpt lat="45.53405" lon="6.78794">
        <ele>1883.84</ele>
        <time>2013-03-04T11:18:35Z</time>
      </trkpt>
      <trkpt lat="45.53402" lon="6.78799">
        <ele>1884.32</ele>
        <time>2013-03-04T11:18:42Z</time>
      </trkpt>
      <trkpt lat="45.53398" lon="6.78806">
        <ele>1885.28</ele>
        <time>2013-03-04T11:18:51Z</time>
      </trkpt>
      <trkpt lat="45.53397" lon="6.78809">
        <ele>1885.28</ele>
        <time>2013-03-04T11:19:01Z</time>
      </trkpt>
      <trkpt lat="45.53395" lon="6.78816">
        <ele>1884.8</ele>
        <time>2013-03-04T11:19:09Z</time>
      </trkpt>
      <trkpt lat="45.53394" lon="6.78827">
        <ele>1885.76</ele>
        <time>2013-03-04T11:19:17Z</time>
      </trkpt>
      <trkpt lat="45.53393" lon="6.78832">
        <ele>1886.24</ele>
        <time>2013-03-04T11:19:24Z</time>
      </trkpt>
      <trkpt lat="45.53394" lon="6.78834">
        <ele>1886.72</ele>
        <time>2013-03-04T11:19:43Z</time>
      </trkpt>
      <trkpt lat="45.53395" lon="6.78833">
        <ele>1883.84</ele>
        <time>2013-03-04T11:19:54Z</time>
      </trkpt>
      <trkpt lat="45.53395" lon="6.78833">
        <ele>1883.84</ele>
        <time>2013-03-04T11:20:13Z</time>
      </trkpt>
      <trkpt lat="45.53395" lon="6.78832">
        <ele>1883.84</ele>
        <time>2013-03-04T11:20:39Z</time>
      </trkpt>
      <trkpt lat="45.53395" lon="6.78833">
        <ele>1884.8</ele>
        <time>2013-03-04T11:21:01Z</time>
      </trkpt>
      <trkpt lat="45.53395" lon="6.78833">
        <ele>1884.32</ele>
        <time>2013-03-04T11:21:22Z</time>
      </trkpt>
      <trkpt lat="45.53395" lon="6.78833">
        <ele>1884.32</ele>
        <time>2013-03-04T11:21:39Z</time>
      </trkpt>
      <trkpt lat="45.53396" lon="6.78833">
        <ele>1883.84</ele>
        <time>2013-03-04T11:21:53Z</time>
      </trkpt>
      <trkpt lat="45.53399" lon="6.78831">
        <ele>1884.32</ele>
        <time>2013-03-04T11:21:58Z</time>
      </trkpt>
      <trkpt lat="45.53404" lon="6.78827">
        <ele>1884.32</ele>
        <time>2013-03-04T11:22:05Z</time>
      </trkpt>
      <trkpt lat="45.53406" lon="6.78821">
        <ele>1884.8</ele>
        <time>2013-03-04T11:22:12Z</time>
      </trkpt>
      <trkpt lat="45.53409" lon="6.78813">
        <ele>1885.28</ele>
        <time>2013-03-04T11:22:19Z</time>
      </trkpt>
      <trkpt lat="45.53409" lon="6.78809">
        <ele>1885.28</ele>
        <time>2013-03-04T11:22:21Z</time>
      </trkpt>
      <trkpt lat="45.53412" lon="6.78799">
        <ele>1885.76</ele>
        <time>2013-03-04T11:22:30Z</time>
      </trkpt>
      <trkpt lat="45.53415" lon="6.78791">
        <ele>1884.8</ele>
        <time>2013-03-04T11:22:40Z</time>
      </trkpt>
      <trkpt lat="45.5342" lon="6.78786">
        <ele>1882.88</ele>
        <time>2013-03-04T11:22:48Z</time>
      </trkpt>
      <trkpt lat="45.53424" lon="6.78783">
        <ele>1880.48</ele>
        <time>2013-03-04T11:22:53Z</time>
      </trkpt>
      <trkpt lat="45.53427" lon="6.78779">
        <ele>1880</ele>
        <time>2013-03-04T11:23:02Z</time>
      </trkpt>
      <trkpt lat="45.53429" lon="6.78775">
        <ele>1880.48</ele>
        <time>2013-03-04T11:23:08Z</time>
      </trkpt>
      <trkpt lat="45.53431" lon="6.7877">
        <ele>1880.96</ele>
        <time>2013-03-04T11:23:15Z</time>
      </trkpt>
      <trkpt lat="45.53434" lon="6.78767">
        <ele>1880.48</ele>
        <time>2013-03-04T11:23:22Z</time>
      </trkpt>
      <trkpt lat="45.53435" lon="6.78763">
        <ele>1881.44</ele>
        <time>2013-03-04T11:23:32Z</time>
      </trkpt>
      <trkpt lat="45.53436" lon="6.78761">
        <ele>1880.96</ele>
        <time>2013-03-04T11:23:34Z</time>
      </trkpt>
      <trkpt lat="45.53438" lon="6.78758">
        <ele>1878.55</ele>
        <time>2013-03-04T11:23:41Z</time>
      </trkpt>
      <trkpt lat="45.53439" lon="6.78755">
        <ele>1879.03</ele>
        <time>2013-03-04T11:23:52Z</time>
      </trkpt>
      <trkpt lat="45.53443" lon="6.7875">
        <ele>1879.03</ele>
        <time>2013-03-04T11:23:59Z</time>
      </trkpt>
      <trkpt lat="45.53453" lon="6.78745">
        <ele>1882.88</ele>
        <time>2013-03-04T11:24:06Z</time>
      </trkpt>
      <trkpt lat="45.53462" lon="6.78742">
        <ele>1889.13</ele>
        <time>2013-03-04T11:24:15Z</time>
      </trkpt>
      <trkpt lat="45.53463" lon="6.78742">
        <ele>1889.13</ele>
        <time>2013-03-04T11:24:16Z</time>
      </trkpt>
      <trkpt lat="45.5347" lon="6.7874">
        <ele>1889.13</ele>
        <time>2013-03-04T11:24:22Z</time>
      </trkpt>
      <trkpt lat="45.53474" lon="6.78742">
        <ele>1891.53</ele>
        <time>2013-03-04T11:24:31Z</time>
      </trkpt>
      <trkpt lat="45.53479" lon="6.78741">
        <ele>1892.49</ele>
        <time>2013-03-04T11:24:40Z</time>
      </trkpt>
      <trkpt lat="45.5348" lon="6.78742">
        <ele>1892.97</ele>
        <time>2013-03-04T11:24:43Z</time>
      </trkpt>
      <trkpt lat="45.53484" lon="6.78747">
        <ele>1894.9</ele>
        <time>2013-03-04T11:24:51Z</time>
      </trkpt>
      <trkpt lat="45.53486" lon="6.78755">
        <ele>1895.38</ele>
        <time>2013-03-04T11:25:00Z</time>
      </trkpt>
      <trkpt lat="45.53487" lon="6.78763">
        <ele>1897.3</ele>
        <time>2013-03-04T11:25:07Z</time>
      </trkpt>
      <trkpt lat="45.53488" lon="6.78765">
        <ele>1898.74</ele>
        <time>2013-03-04T11:25:19Z</time>
      </trkpt>
      <trkpt lat="45.53491" lon="6.7877">
        <ele>1899.7</ele>
        <time>2013-03-04T11:25:26Z</time>
      </trkpt>
      <trkpt lat="45.53493" lon="6.78777">
        <ele>1901.14</ele>
        <time>2013-03-04T11:25:34Z</time>
      </trkpt>
      <trkpt lat="45.53494" lon="6.78782">
        <ele>1900.66</ele>
        <time>2013-03-04T11:25:44Z</time>
      </trkpt>
      <trkpt lat="45.53493" lon="6.78787">
        <ele>1900.66</ele>
        <time>2013-03-04T11:25:54Z</time>
      </trkpt>
      <trkpt lat="45.53494" lon="6.78795">
        <ele>1901.14</ele>
        <time>2013-03-04T11:25:59Z</time>
      </trkpt>
      <trkpt lat="45.53491" lon="6.78803">
        <ele>1901.14</ele>
        <time>2013-03-04T11:26:06Z</time>
      </trkpt>
      <trkpt lat="45.5349" lon="6.78805">
        <ele>1901.63</ele>
        <time>2013-03-04T11:26:08Z</time>
      </trkpt>
      <trkpt lat="45.53487" lon="6.78815">
        <ele>1903.07</ele>
        <time>2013-03-04T11:26:15Z</time>
      </trkpt>
      <trkpt lat="45.53487" lon="6.78823">
        <ele>1904.03</ele>
        <time>2013-03-04T11:26:23Z</time>
      </trkpt>
      <trkpt lat="45.53488" lon="6.78828">
        <ele>1904.51</ele>
        <time>2013-03-04T11:26:35Z</time>
      </trkpt>
      <trkpt lat="45.53485" lon="6.78837">
        <ele>1905.47</ele>
        <time>2013-03-04T11:26:45Z</time>
      </trkpt>
      <trkpt lat="45.53486" lon="6.78847">
        <ele>1907.39</ele>
        <time>2013-03-04T11:26:51Z</time>
      </trkpt>
      <trkpt lat="45.53488" lon="6.78847">
        <ele>1908.35</ele>
        <time>2013-03-04T11:26:59Z</time>
      </trkpt>
      <trkpt lat="45.5349" lon="6.78846">
        <ele>1909.8</ele>
        <time>2013-03-04T11:27:13Z</time>
      </trkpt>
      <trkpt lat="45.53489" lon="6.78848">
        <ele>1912.68</ele>
        <time>2013-03-04T11:27:32Z</time>
      </trkpt>
      <trkpt lat="45.53489" lon="6.78848">
        <ele>1912.68</ele>
        <time>2013-03-04T11:27:35Z</time>
      </trkpt>
      <trkpt lat="45.53491" lon="6.78847">
        <ele>1913.16</ele>
        <time>2013-03-04T11:27:39Z</time>
      </trkpt>
      <trkpt lat="45.53494" lon="6.78843">
        <ele>1912.68</ele>
        <time>2013-03-04T11:27:47Z</time>
      </trkpt>
      <trkpt lat="45.53494" lon="6.78841">
        <ele>1912.68</ele>
        <time>2013-03-04T11:28:11Z</time>
      </trkpt>
      <trkpt lat="45.53496" lon="6.7884">
        <ele>1911.72</ele>
        <time>2013-03-04T11:28:16Z</time>
      </trkpt>
      <trkpt lat="45.53502" lon="6.78834">
        <ele>1912.2</ele>
        <time>2013-03-04T11:28:26Z</time>
      </trkpt>
      <trkpt lat="45.53507" lon="6.78829">
        <ele>1913.16</ele>
        <time>2013-03-04T11:28:33Z</time>
      </trkpt>
      <trkpt lat="45.53511" lon="6.78828">
        <ele>1913.16</ele>
        <time>2013-03-04T11:28:46Z</time>
      </trkpt>
      <trkpt lat="45.53516" lon="6.78823">
        <ele>1912.68</ele>
        <time>2013-03-04T11:28:53Z</time>
      </trkpt>
      <trkpt lat="45.53522" lon="6.78817">
        <ele>1915.08</ele>
        <time>2013-03-04T11:29:02Z</time>
      </trkpt>
      <trkpt lat="45.53526" lon="6.7881">
        <ele>1917.97</ele>
        <time>2013-03-04T11:29:10Z</time>
      </trkpt>
      <trkpt lat="45.53528" lon="6.78807">
        <ele>1918.93</ele>
        <time>2013-03-04T11:29:21Z</time>
      </trkpt>
      <trkpt lat="45.53528" lon="6.78807">
        <ele>1918.45</ele>
        <time>2013-03-04T11:29:37Z</time>
      </trkpt>
      <trkpt lat="45.5353" lon="6.7881">
        <ele>1919.41</ele>
        <time>2013-03-04T11:29:44Z</time>
      </trkpt>
      <trkpt lat="45.53529" lon="6.78813">
        <ele>1919.89</ele>
        <time>2013-03-04T11:29:49Z</time>
      </trkpt>
      <trkpt lat="45.53525" lon="6.7882">
        <ele>1919.89</ele>
        <time>2013-03-04T11:29:56Z</time>
      </trkpt>
      <trkpt lat="45.53523" lon="6.78822">
        <ele>1920.37</ele>
        <time>2013-03-04T11:30:02Z</time>
      </trkpt>
      <trkpt lat="45.53522" lon="6.78825">
        <ele>1919.41</ele>
        <time>2013-03-04T11:30:07Z</time>
      </trkpt>
      <trkpt lat="45.53519" lon="6.7883">
        <ele>1919.41</ele>
        <time>2013-03-04T11:30:15Z</time>
      </trkpt>
      <trkpt lat="45.53517" lon="6.78835">
        <ele>1917.97</ele>
        <time>2013-03-04T11:30:21Z</time>
      </trkpt>
      <trkpt lat="45.53515" lon="6.7884">
        <ele>1917.97</ele>
        <time>2013-03-04T11:30:28Z</time>
      </trkpt>
      <trkpt lat="45.53513" lon="6.78842">
        <ele>1918.45</ele>
        <time>2013-03-04T11:30:49Z</time>
      </trkpt>
      <trkpt lat="45.53512" lon="6.78844">
        <ele>1918.45</ele>
        <time>2013-03-04T11:30:58Z</time>
      </trkpt>
      <trkpt lat="45.53509" lon="6.7885">
        <ele>1919.89</ele>
        <time>2013-03-04T11:31:14Z</time>
      </trkpt>
      <trkpt lat="45.53508" lon="6.78857">
        <ele>1920.37</ele>
        <time>2013-03-04T11:31:20Z</time>
      </trkpt>
      <trkpt lat="45.53507" lon="6.78859">
        <ele>1920.85</ele>
        <time>2013-03-04T11:31:23Z</time>
      </trkpt>
      <trkpt lat="45.53504" lon="6.78865">
        <ele>1921.81</ele>
        <time>2013-03-04T11:31:31Z</time>
      </trkpt>
      <trkpt lat="45.53503" lon="6.78873">
        <ele>1922.29</ele>
        <time>2013-03-04T11:31:38Z</time>
      </trkpt>
      <trkpt lat="45.53501" lon="6.78883">
        <ele>1922.77</ele>
        <time>2013-03-04T11:31:45Z</time>
      </trkpt>
      <trkpt lat="45.53502" lon="6.78883">
        <ele>1923.74</ele>
        <time>2013-03-04T11:32:02Z</time>
      </trkpt>
      <trkpt lat="45.53502" lon="6.78884">
        <ele>1924.22</ele>
        <time>2013-03-04T11:32:07Z</time>
      </trkpt>
      <trkpt lat="45.53499" lon="6.78889">
        <ele>1924.7</ele>
        <time>2013-03-04T11:32:13Z</time>
      </trkpt>
      <trkpt lat="45.53496" lon="6.78893">
        <ele>1925.66</ele>
        <time>2013-03-04T11:32:21Z</time>
      </trkpt>
      <trkpt lat="45.53495" lon="6.78898">
        <ele>1928.06</ele>
        <time>2013-03-04T11:32:35Z</time>
      </trkpt>
      <trkpt lat="45.53491" lon="6.78906">
        <ele>1926.62</ele>
        <time>2013-03-04T11:32:42Z</time>
      </trkpt>
      <trkpt lat="45.53488" lon="6.78909">
        <ele>1926.62</ele>
        <time>2013-03-04T11:32:47Z</time>
      </trkpt>
      <trkpt lat="45.53484" lon="6.78913">
        <ele>1925.18</ele>
        <time>2013-03-04T11:32:55Z</time>
      </trkpt>
      <trkpt lat="45.53481" lon="6.78917">
        <ele>1923.74</ele>
        <time>2013-03-04T11:33:10Z</time>
      </trkpt>
      <trkpt lat="45.53476" lon="6.78923">
        <ele>1922.29</ele>
        <time>2013-03-04T11:33:18Z</time>
      </trkpt>
      <trkpt lat="45.53473" lon="6.78927">
        <ele>1923.25</ele>
        <time>2013-03-04T11:33:39Z</time>
      </trkpt>
      <trkpt lat="45.53471" lon="6.78929">
        <ele>1923.74</ele>
        <time>2013-03-04T11:33:42Z</time>
      </trkpt>
      <trkpt lat="45.5347" lon="6.78932">
        <ele>1923.74</ele>
        <time>2013-03-04T11:33:44Z</time>
      </trkpt>
      <trkpt lat="45.53462" lon="6.78934">
        <ele>1923.74</ele>
        <time>2013-03-04T11:33:51Z</time>
      </trkpt>
      <trkpt lat="45.53458" lon="6.7894">
        <ele>1924.22</ele>
        <time>2013-03-04T11:33:58Z</time>
      </trkpt>
      <trkpt lat="45.53456" lon="6.78941">
        <ele>1924.22</ele>
        <time>2013-03-04T11:34:01Z</time>
      </trkpt>
      <trkpt lat="45.5345" lon="6.78946">
        <ele>1925.18</ele>
        <time>2013-03-04T11:34:08Z</time>
      </trkpt>
      <trkpt lat="45.53447" lon="6.78952">
        <ele>1926.14</ele>
        <time>2013-03-04T11:34:14Z</time>
      </trkpt>
      <trkpt lat="45.53447" lon="6.78952">
        <ele>1926.14</ele>
        <time>2013-03-04T11:34:20Z</time>
      </trkpt>
      <trkpt lat="45.53448" lon="6.78962">
        <ele>1927.58</ele>
        <time>2013-03-04T11:34:28Z</time>
      </trkpt>
      <trkpt lat="45.5345" lon="6.78964">
        <ele>1928.06</ele>
        <time>2013-03-04T11:34:47Z</time>
      </trkpt>
      <trkpt lat="45.53451" lon="6.78965">
        <ele>1928.54</ele>
        <time>2013-03-04T11:35:02Z</time>
      </trkpt>
      <trkpt lat="45.53453" lon="6.78969">
        <ele>1927.1</ele>
        <time>2013-03-04T11:35:18Z</time>
      </trkpt>
      <trkpt lat="45.53457" lon="6.78973">
        <ele>1928.06</ele>
        <time>2013-03-04T11:35:23Z</time>
      </trkpt>
      <trkpt lat="45.5346" lon="6.7898">
        <ele>1931.43</ele>
        <time>2013-03-04T11:35:34Z</time>
      </trkpt>
      <trkpt lat="45.53465" lon="6.78981">
        <ele>1933.35</ele>
        <time>2013-03-04T11:35:42Z</time>
      </trkpt>
      <trkpt lat="45.53467" lon="6.78978">
        <ele>1934.31</ele>
        <time>2013-03-04T11:35:45Z</time>
      </trkpt>
      <trkpt lat="45.53472" lon="6.78976">
        <ele>1935.75</ele>
        <time>2013-03-04T11:35:52Z</time>
      </trkpt>
      <trkpt lat="45.53473" lon="6.78974">
        <ele>1936.23</ele>
        <time>2013-03-04T11:35:54Z</time>
      </trkpt>
      <trkpt lat="45.5348" lon="6.78967">
        <ele>1938.64</ele>
        <time>2013-03-04T11:36:02Z</time>
      </trkpt>
      <trkpt lat="45.53483" lon="6.78964">
        <ele>1939.12</ele>
        <time>2013-03-04T11:36:08Z</time>
      </trkpt>
      <trkpt lat="45.53488" lon="6.78961">
        <ele>1939.6</ele>
        <time>2013-03-04T11:36:16Z</time>
      </trkpt>
      <trkpt lat="45.53492" lon="6.78959">
        <ele>1942</ele>
        <time>2013-03-04T11:36:33Z</time>
      </trkpt>
      <trkpt lat="45.53496" lon="6.78957">
        <ele>1943.44</ele>
        <time>2013-03-04T11:36:39Z</time>
      </trkpt>
      <trkpt lat="45.53501" lon="6.78954">
        <ele>1945.85</ele>
        <time>2013-03-04T11:36:52Z</time>
      </trkpt>
      <trkpt lat="45.53502" lon="6.78954">
        <ele>1946.81</ele>
        <time>2013-03-04T11:36:58Z</time>
      </trkpt>
      <trkpt lat="45.53504" lon="6.78952">
        <ele>1949.21</ele>
        <time>2013-03-04T11:37:08Z</time>
      </trkpt>
      <trkpt lat="45.53506" lon="6.78951">
        <ele>1949.21</ele>
        <time>2013-03-04T11:37:19Z</time>
      </trkpt>
      <trkpt lat="45.53509" lon="6.78949">
        <ele>1949.21</ele>
        <time>2013-03-04T11:37:34Z</time>
      </trkpt>
      <trkpt lat="45.53512" lon="6.78947">
        <ele>1950.17</ele>
        <time>2013-03-04T11:37:38Z</time>
      </trkpt>
      <trkpt lat="45.53514" lon="6.78946">
        <ele>1950.65</ele>
        <time>2013-03-04T11:37:40Z</time>
      </trkpt>
      <trkpt lat="45.53519" lon="6.78943">
        <ele>1953.06</ele>
        <time>2013-03-04T11:37:48Z</time>
      </trkpt>
      <trkpt lat="45.53522" lon="6.78937">
        <ele>1954.98</ele>
        <time>2013-03-04T11:37:59Z</time>
      </trkpt>
      <trkpt lat="45.53524" lon="6.78934">
        <ele>1955.94</ele>
        <time>2013-03-04T11:38:11Z</time>
      </trkpt>
      <trkpt lat="45.53529" lon="6.78932">
        <ele>1958.34</ele>
        <time>2013-03-04T11:38:19Z</time>
      </trkpt>
      <trkpt lat="45.53537" lon="6.78929">
        <ele>1959.3</ele>
        <time>2013-03-04T11:38:28Z</time>
      </trkpt>
      <trkpt lat="45.53543" lon="6.78925">
        <ele>1959.3</ele>
        <time>2013-03-04T11:38:37Z</time>
      </trkpt>
      <trkpt lat="45.53549" lon="6.78922">
        <ele>1958.34</ele>
        <time>2013-03-04T11:38:45Z</time>
      </trkpt>
      <trkpt lat="45.53549" lon="6.78921">
        <ele>1958.82</ele>
        <time>2013-03-04T11:39:10Z</time>
      </trkpt>
      <trkpt lat="45.5355" lon="6.78921">
        <ele>1958.34</ele>
        <time>2013-03-04T11:39:34Z</time>
      </trkpt>
      <trkpt lat="45.53551" lon="6.78919">
        <ele>1959.3</ele>
        <time>2013-03-04T11:39:40Z</time>
      </trkpt>
      <trkpt lat="45.53561" lon="6.78909">
        <ele>1961.23</ele>
        <time>2013-03-04T11:39:51Z</time>
      </trkpt>
      <trkpt lat="45.53569" lon="6.78902">
        <ele>1962.19</ele>
        <time>2013-03-04T11:40:00Z</time>
      </trkpt>
      <trkpt lat="45.5357" lon="6.78902">
        <ele>1963.63</ele>
        <time>2013-03-04T11:40:10Z</time>
      </trkpt>
      <trkpt lat="45.53571" lon="6.78901">
        <ele>1963.15</ele>
        <time>2013-03-04T11:40:16Z</time>
      </trkpt>
      <trkpt lat="45.53572" lon="6.78899">
        <ele>1963.15</ele>
        <time>2013-03-04T11:40:25Z</time>
      </trkpt>
      <trkpt lat="45.53573" lon="6.78897">
        <ele>1963.15</ele>
        <time>2013-03-04T11:40:27Z</time>
      </trkpt>
      <trkpt lat="45.53576" lon="6.78893">
        <ele>1962.67</ele>
        <time>2013-03-04T11:40:35Z</time>
      </trkpt>
      <trkpt lat="45.53577" lon="6.78891">
        <ele>1961.71</ele>
        <time>2013-03-04T11:40:51Z</time>
      </trkpt>
      <trkpt lat="45.53576" lon="6.78892">
        <ele>1961.23</ele>
        <time>2013-03-04T11:41:00Z</time>
      </trkpt>
      <trkpt lat="45.53575" lon="6.78892">
        <ele>1960.27</ele>
        <time>2013-03-04T11:41:17Z</time>
      </trkpt>
      <trkpt lat="45.53573" lon="6.78894">
        <ele>1958.82</ele>
        <time>2013-03-04T11:41:40Z</time>
      </trkpt>
      <trkpt lat="45.53572" lon="6.78897">
        <ele>1959.3</ele>
        <time>2013-03-04T11:41:48Z</time>
      </trkpt>
      <trkpt lat="45.5357" lon="6.78907">
        <ele>1961.71</ele>
        <time>2013-03-04T11:41:57Z</time>
      </trkpt>
      <trkpt lat="45.53566" lon="6.78917">
        <ele>1964.11</ele>
        <time>2013-03-04T11:42:06Z</time>
      </trkpt>
      <trkpt lat="45.53564" lon="6.78924">
        <ele>1966.51</ele>
        <time>2013-03-04T11:42:16Z</time>
      </trkpt>
      <trkpt lat="45.53561" lon="6.78921">
        <ele>1967.48</ele>
        <time>2013-03-04T11:42:34Z</time>
      </trkpt>
      <trkpt lat="45.53558" lon="6.78924">
        <ele>1967.96</ele>
        <time>2013-03-04T11:42:40Z</time>
      </trkpt>
      <trkpt lat="45.53556" lon="6.78924">
        <ele>1967.96</ele>
        <time>2013-03-04T11:42:43Z</time>
      </trkpt>
      <trkpt lat="45.53552" lon="6.78935">
        <ele>1966.99</ele>
        <time>2013-03-04T11:42:54Z</time>
      </trkpt>
      <trkpt lat="45.53552" lon="6.78933">
        <ele>1966.99</ele>
        <time>2013-03-04T11:43:02Z</time>
      </trkpt>
      <trkpt lat="45.53549" lon="6.78938">
        <ele>1967.48</ele>
        <time>2013-03-04T11:43:13Z</time>
      </trkpt>
      <trkpt lat="45.53544" lon="6.78944">
        <ele>1967.96</ele>
        <time>2013-03-04T11:43:27Z</time>
      </trkpt>
      <trkpt lat="45.53539" lon="6.78952">
        <ele>1970.36</ele>
        <time>2013-03-04T11:43:37Z</time>
      </trkpt>
      <trkpt lat="45.53533" lon="6.78959">
        <ele>1972.76</ele>
        <time>2013-03-04T11:43:50Z</time>
      </trkpt>
      <trkpt lat="45.53535" lon="6.7896">
        <ele>1970.84</ele>
        <time>2013-03-04T11:44:13Z</time>
      </trkpt>
      <trkpt lat="45.53535" lon="6.78961">
        <ele>1972.76</ele>
        <time>2013-03-04T11:44:31Z</time>
      </trkpt>
      <trkpt lat="45.53535" lon="6.78963">
        <ele>1972.76</ele>
        <time>2013-03-04T11:44:56Z</time>
      </trkpt>
      <trkpt lat="45.53534" lon="6.78964">
        <ele>1972.76</ele>
        <time>2013-03-04T11:45:21Z</time>
      </trkpt>
      <trkpt lat="45.53534" lon="6.78964">
        <ele>1972.76</ele>
        <time>2013-03-04T11:45:35Z</time>
      </trkpt>
      <trkpt lat="45.53532" lon="6.78965">
        <ele>1972.76</ele>
        <time>2013-03-04T11:45:41Z</time>
      </trkpt>
      <trkpt lat="45.53527" lon="6.7897">
        <ele>1973.24</ele>
        <time>2013-03-04T11:45:50Z</time>
      </trkpt>
      <trkpt lat="45.53527" lon="6.7897">
        <ele>1973.24</ele>
        <time>2013-03-04T11:45:51Z</time>
      </trkpt>
      <trkpt lat="45.53522" lon="6.78974">
        <ele>1975.17</ele>
        <time>2013-03-04T11:45:59Z</time>
      </trkpt>
      <trkpt lat="45.53519" lon="6.78977">
        <ele>1975.65</ele>
        <time>2013-03-04T11:46:06Z</time>
      </trkpt>
      <trkpt lat="45.53517" lon="6.78978">
        <ele>1975.65</ele>
        <time>2013-03-04T11:46:12Z</time>
      </trkpt>
      <trkpt lat="45.53514" lon="6.78983">
        <ele>1976.13</ele>
        <time>2013-03-04T11:46:19Z</time>
      </trkpt>
      <trkpt lat="45.53511" lon="6.78987">
        <ele>1977.09</ele>
        <time>2013-03-04T11:46:28Z</time>
      </trkpt>
      <trkpt lat="45.53508" lon="6.78993">
        <ele>1978.05</ele>
        <time>2013-03-04T11:46:38Z</time>
      </trkpt>
      <trkpt lat="45.53505" lon="6.78994">
        <ele>1978.53</ele>
        <time>2013-03-04T11:46:45Z</time>
      </trkpt>
      <trkpt lat="45.53503" lon="6.78997">
        <ele>1978.53</ele>
        <time>2013-03-04T11:46:57Z</time>
      </trkpt>
      <trkpt lat="45.53499" lon="6.79002">
        <ele>1978.05</ele>
        <time>2013-03-04T11:47:03Z</time>
      </trkpt>
      <trkpt lat="45.53495" lon="6.79008">
        <ele>1979.01</ele>
        <time>2013-03-04T11:47:13Z</time>
      </trkpt>
      <trkpt lat="45.53494" lon="6.79009">
        <ele>1979.97</ele>
        <time>2013-03-04T11:47:32Z</time>
      </trkpt>
      <trkpt lat="45.53493" lon="6.79016">
        <ele>1980.45</ele>
        <time>2013-03-04T11:47:46Z</time>
      </trkpt>
      <trkpt lat="45.5349" lon="6.79024">
        <ele>1981.41</ele>
        <time>2013-03-04T11:47:54Z</time>
      </trkpt>
      <trkpt lat="45.53488" lon="6.79024">
        <ele>1982.38</ele>
        <time>2013-03-04T11:47:56Z</time>
      </trkpt>
      <trkpt lat="45.53485" lon="6.79028">
        <ele>1983.82</ele>
        <time>2013-03-04T11:48:03Z</time>
      </trkpt>
      <trkpt lat="45.53481" lon="6.79032">
        <ele>1985.26</ele>
        <time>2013-03-04T11:48:08Z</time>
      </trkpt>
      <trkpt lat="45.53476" lon="6.79037">
        <ele>1986.7</ele>
        <time>2013-03-04T11:48:17Z</time>
      </trkpt>
      <trkpt lat="45.53475" lon="6.79041">
        <ele>1986.7</ele>
        <time>2013-03-04T11:48:34Z</time>
      </trkpt>
      <trkpt lat="45.53475" lon="6.79043">
        <ele>1986.22</ele>
        <time>2013-03-04T11:48:36Z</time>
      </trkpt>
      <trkpt lat="45.53471" lon="6.7905">
        <ele>1987.18</ele>
        <time>2013-03-04T11:48:44Z</time>
      </trkpt>
      <trkpt lat="45.53465" lon="6.79054">
        <ele>1988.14</ele>
        <time>2013-03-04T11:48:51Z</time>
      </trkpt>
      <trkpt lat="45.53462" lon="6.79056">
        <ele>1988.14</ele>
        <time>2013-03-04T11:48:54Z</time>
      </trkpt>
      <trkpt lat="45.5346" lon="6.79059">
        <ele>1988.14</ele>
        <time>2013-03-04T11:48:57Z</time>
      </trkpt>
      <trkpt lat="45.53458" lon="6.79061">
        <ele>1987.66</ele>
        <time>2013-03-04T11:49:00Z</time>
      </trkpt>
      <trkpt lat="45.53453" lon="6.79066">
        <ele>1986.7</ele>
        <time>2013-03-04T11:49:09Z</time>
      </trkpt>
      <trkpt lat="45.53448" lon="6.79069">
        <ele>1985.74</ele>
        <time>2013-03-04T11:49:16Z</time>
      </trkpt>
      <trkpt lat="45.53446" lon="6.7907">
        <ele>1985.26</ele>
        <time>2013-03-04T11:49:27Z</time>
      </trkpt>
      <trkpt lat="45.53441" lon="6.79072">
        <ele>1985.26</ele>
        <time>2013-03-04T11:49:33Z</time>
      </trkpt>
      <trkpt lat="45.5344" lon="6.79073">
        <ele>1985.26</ele>
        <time>2013-03-04T11:49:35Z</time>
      </trkpt>
      <trkpt lat="45.53438" lon="6.79075">
        <ele>1985.74</ele>
        <time>2013-03-04T11:49:41Z</time>
      </trkpt>
      <trkpt lat="45.53433" lon="6.79075">
        <ele>1986.22</ele>
        <time>2013-03-04T11:49:45Z</time>
      </trkpt>
      <trkpt lat="45.5343" lon="6.79079">
        <ele>1986.22</ele>
        <time>2013-03-04T11:49:53Z</time>
      </trkpt>
      <trkpt lat="45.53426" lon="6.79082">
        <ele>1986.22</ele>
        <time>2013-03-04T11:50:04Z</time>
      </trkpt>
      <trkpt lat="45.53423" lon="6.79087">
        <ele>1986.22</ele>
        <time>2013-03-04T11:50:11Z</time>
      </trkpt>
      <trkpt lat="45.53422" lon="6.79089">
        <ele>1986.22</ele>
        <time>2013-03-04T11:50:28Z</time>
      </trkpt>
      <trkpt lat="45.53422" lon="6.79089">
        <ele>1986.7</ele>
        <time>2013-03-04T11:50:54Z</time>
      </trkpt>
      <trkpt lat="45.53422" lon="6.79091">
        <ele>1986.7</ele>
        <time>2013-03-04T11:51:02Z</time>
      </trkpt>
      <trkpt lat="45.53419" lon="6.79102">
        <ele>1987.18</ele>
        <time>2013-03-04T11:51:10Z</time>
      </trkpt>
      <trkpt lat="45.53418" lon="6.79114">
        <ele>1987.18</ele>
        <time>2013-03-04T11:51:18Z</time>
      </trkpt>
      <trkpt lat="45.53418" lon="6.79123">
        <ele>1987.18</ele>
        <time>2013-03-04T11:51:25Z</time>
      </trkpt>
      <trkpt lat="45.53417" lon="6.79132">
        <ele>1990.07</ele>
        <time>2013-03-04T11:51:32Z</time>
      </trkpt>
      <trkpt lat="45.53416" lon="6.7914">
        <ele>1992.47</ele>
        <time>2013-03-04T11:51:40Z</time>
      </trkpt>
      <trkpt lat="45.53416" lon="6.79144">
        <ele>1993.43</ele>
        <time>2013-03-04T11:51:55Z</time>
      </trkpt>
      <trkpt lat="45.53416" lon="6.79149">
        <ele>1993.43</ele>
        <time>2013-03-04T11:52:01Z</time>
      </trkpt>
      <trkpt lat="45.53415" lon="6.79156">
        <ele>1992.95</ele>
        <time>2013-03-04T11:52:09Z</time>
      </trkpt>
      <trkpt lat="45.53415" lon="6.79163">
        <ele>1993.43</ele>
        <time>2013-03-04T11:52:15Z</time>
      </trkpt>
      <trkpt lat="45.53416" lon="6.79163">
        <ele>1993.91</ele>
        <time>2013-03-04T11:52:27Z</time>
      </trkpt>
      <trkpt lat="45.53415" lon="6.79164">
        <ele>1995.35</ele>
        <time>2013-03-04T11:52:45Z</time>
      </trkpt>
      <trkpt lat="45.53415" lon="6.79164">
        <ele>1995.35</ele>
        <time>2013-03-04T11:52:46Z</time>
      </trkpt>
      <trkpt lat="45.53415" lon="6.79165">
        <ele>1995.83</ele>
        <time>2013-03-04T11:52:48Z</time>
      </trkpt>
      <trkpt lat="45.53415" lon="6.79176">
        <ele>1998.24</ele>
        <time>2013-03-04T11:52:55Z</time>
      </trkpt>
      <trkpt lat="45.53415" lon="6.7918">
        <ele>1998.72</ele>
        <time>2013-03-04T11:52:58Z</time>
      </trkpt>
      <trkpt lat="45.53414" lon="6.79188">
        <ele>2000.16</ele>
        <time>2013-03-04T11:53:04Z</time>
      </trkpt>
      <trkpt lat="45.53408" lon="6.79201">
        <ele>2002.56</ele>
        <time>2013-03-04T11:53:14Z</time>
      </trkpt>
      <trkpt lat="45.53401" lon="6.79209">
        <ele>2002.08</ele>
        <time>2013-03-04T11:53:23Z</time>
      </trkpt>
      <trkpt lat="45.53399" lon="6.79212">
        <ele>2003.04</ele>
        <time>2013-03-04T11:53:41Z</time>
      </trkpt>
      <trkpt lat="45.53396" lon="6.79214">
        <ele>2003.52</ele>
        <time>2013-03-04T11:54:02Z</time>
      </trkpt>
      <trkpt lat="45.53393" lon="6.79215">
        <ele>2003.04</ele>
        <time>2013-03-04T11:54:09Z</time>
      </trkpt>
      <trkpt lat="45.53391" lon="6.79215">
        <ele>2002.56</ele>
        <time>2013-03-04T11:54:20Z</time>
      </trkpt>
      <trkpt lat="45.53387" lon="6.79214">
        <ele>2002.56</ele>
        <time>2013-03-04T11:54:35Z</time>
      </trkpt>
      <trkpt lat="45.5338" lon="6.79212">
        <ele>2002.56</ele>
        <time>2013-03-04T11:54:42Z</time>
      </trkpt>
      <trkpt lat="45.53376" lon="6.79212">
        <ele>2003.04</ele>
        <time>2013-03-04T11:54:47Z</time>
      </trkpt>
      <trkpt lat="45.5337" lon="6.79212">
        <ele>2003.04</ele>
        <time>2013-03-04T11:54:53Z</time>
      </trkpt>
      <trkpt lat="45.53366" lon="6.79211">
        <ele>2003.04</ele>
        <time>2013-03-04T11:54:58Z</time>
      </trkpt>
      <trkpt lat="45.53357" lon="6.79211">
        <ele>2004.01</ele>
        <time>2013-03-04T11:55:09Z</time>
      </trkpt>
      <trkpt lat="45.53356" lon="6.79212">
        <ele>2004.97</ele>
        <time>2013-03-04T11:55:12Z</time>
      </trkpt>
      <trkpt lat="45.53351" lon="6.79217">
        <ele>2007.37</ele>
        <time>2013-03-04T11:55:19Z</time>
      </trkpt>
      <trkpt lat="45.53347" lon="6.79222">
        <ele>2007.85</ele>
        <time>2013-03-04T11:55:25Z</time>
      </trkpt>
      <trkpt lat="45.53345" lon="6.79225">
        <ele>2007.85</ele>
        <time>2013-03-04T11:55:37Z</time>
      </trkpt>
      <trkpt lat="45.53342" lon="6.79227">
        <ele>2008.33</ele>
        <time>2013-03-04T11:55:41Z</time>
      </trkpt>
      <trkpt lat="45.53336" lon="6.79234">
        <ele>2008.81</ele>
        <time>2013-03-04T11:55:49Z</time>
      </trkpt>
      <trkpt lat="45.53331" lon="6.79242">
        <ele>2007.85</ele>
        <time>2013-03-04T11:55:56Z</time>
      </trkpt>
      <trkpt lat="45.53331" lon="6.79245">
        <ele>2007.85</ele>
        <time>2013-03-04T11:56:09Z</time>
      </trkpt>
      <trkpt lat="45.53327" lon="6.7925">
        <ele>2006.89</ele>
        <time>2013-03-04T11:56:17Z</time>
      </trkpt>
      <trkpt lat="45.53324" lon="6.79257">
        <ele>2007.85</ele>
        <time>2013-03-04T11:56:29Z</time>
      </trkpt>
      <trkpt lat="45.53321" lon="6.79265">
        <ele>2009.29</ele>
        <time>2013-03-04T11:56:36Z</time>
      </trkpt>
      <trkpt lat="45.53317" lon="6.79271">
        <ele>2010.25</ele>
        <time>2013-03-04T11:56:42Z</time>
      </trkpt>
      <trkpt lat="45.53315" lon="6.79275">
        <ele>2010.73</ele>
        <time>2013-03-04T11:56:46Z</time>
      </trkpt>
      <trkpt lat="45.53308" lon="6.79286">
        <ele>2011.22</ele>
        <time>2013-03-04T11:56:55Z</time>
      </trkpt>
      <trkpt lat="45.53305" lon="6.79293">
        <ele>2011.7</ele>
        <time>2013-03-04T11:57:03Z</time>
      </trkpt>
      <trkpt lat="45.53302" lon="6.79302">
        <ele>2012.66</ele>
        <time>2013-03-04T11:57:11Z</time>
      </trkpt>
      <trkpt lat="45.533" lon="6.79309">
        <ele>2013.14</ele>
        <time>2013-03-04T11:57:20Z</time>
      </trkpt>
      <trkpt lat="45.533" lon="6.79318">
        <ele>2014.58</ele>
        <time>2013-03-04T11:57:28Z</time>
      </trkpt>
      <trkpt lat="45.53301" lon="6.79319">
        <ele>2014.58</ele>
        <time>2013-03-04T11:57:29Z</time>
      </trkpt>
      <trkpt lat="45.53302" lon="6.79324">
        <ele>2015.54</ele>
        <time>2013-03-04T11:57:37Z</time>
      </trkpt>
      <trkpt lat="45.53302" lon="6.79324">
        <ele>2015.54</ele>
        <time>2013-03-04T11:57:47Z</time>
      </trkpt>
      <trkpt lat="45.53302" lon="6.79325">
        <ele>2016.02</ele>
        <time>2013-03-04T11:57:59Z</time>
      </trkpt>
      <trkpt lat="45.53302" lon="6.79325">
        <ele>2016.02</ele>
        <time>2013-03-04T11:58:11Z</time>
      </trkpt>
      <trkpt lat="45.53302" lon="6.79326">
        <ele>2015.54</ele>
        <time>2013-03-04T11:58:24Z</time>
      </trkpt>
      <trkpt lat="45.53302" lon="6.79326">
        <ele>2015.06</ele>
        <time>2013-03-04T11:58:45Z</time>
      </trkpt>
      <trkpt lat="45.53302" lon="6.79326">
        <ele>2014.58</ele>
        <time>2013-03-04T11:59:04Z</time>
      </trkpt>
      <trkpt lat="45.53302" lon="6.79326">
        <ele>2015.06</ele>
        <time>2013-03-04T11:59:13Z</time>
      </trkpt>
      <trkpt lat="45.53302" lon="6.79326">
        <ele>2014.58</ele>
        <time>2013-03-04T11:59:31Z</time>
      </trkpt>
      <trkpt lat="45.53302" lon="6.79325">
        <ele>2014.58</ele>
        <time>2013-03-04T12:00:00Z</time>
      </trkpt>
      <trkpt lat="45.53302" lon="6.79325">
        <ele>2014.58</ele>
        <time>2013-03-04T12:00:28Z</time>
      </trkpt>
      <trkpt lat="45.53302" lon="6.79325">
        <ele>2015.06</ele>
        <time>2013-03-04T12:00:46Z</time>
      </trkpt>
      <trkpt lat="45.53302" lon="6.79325">
        <ele>2015.54</ele>
        <time>2013-03-04T12:01:11Z</time>
      </trkpt>
      <trkpt lat="45.53302" lon="6.79325">
        <ele>2015.54</ele>
        <time>2013-03-04T12:01:25Z</time>
      </trkpt>
      <trkpt lat="45.53302" lon="6.79325">
        <ele>2015.54</ele>
        <time>2013-03-04T12:01:41Z</time>
      </trkpt>
      <trkpt lat="45.53302" lon="6.79325">
        <ele>2015.54</ele>
        <time>2013-03-04T12:01:57Z</time>
      </trkpt>
      <trkpt lat="45.53302" lon="6.79325">
        <ele>2016.02</ele>
        <time>2013-03-04T12:02:20Z</time>
      </trkpt>
      <trkpt lat="45.53302" lon="6.79325">
        <ele>2016.02</ele>
        <time>2013-03-04T12:02:48Z</time>
      </trkpt>
      <trkpt lat="45.53302" lon="6.79325">
        <ele>2016.02</ele>
        <time>2013-03-04T12:03:10Z</time>
      </trkpt>
      <trkpt lat="45.53303" lon="6.79325">
        <ele>2016.02</ele>
        <time>2013-03-04T12:03:33Z</time>
      </trkpt>
      <trkpt lat="45.53303" lon="6.79324">
        <ele>2016.02</ele>
        <time>2013-03-04T12:04:03Z</time>
      </trkpt>
      <trkpt lat="45.53302" lon="6.79325">
        <ele>2016.02</ele>
        <time>2013-03-04T12:04:31Z</time>
      </trkpt>
      <trkpt lat="45.53302" lon="6.79324">
        <ele>2016.02</ele>
        <time>2013-03-04T12:04:54Z</time>
      </trkpt>
      <trkpt lat="45.53302" lon="6.79324">
        <ele>2016.02</ele>
        <time>2013-03-04T12:05:23Z</time>
      </trkpt>
      <trkpt lat="45.53302" lon="6.79325">
        <ele>2016.02</ele>
        <time>2013-03-04T12:05:45Z</time>
      </trkpt>
      <trkpt lat="45.53303" lon="6.79325">
        <ele>2016.98</ele>
        <time>2013-03-04T12:06:01Z</time>
      </trkpt>
      <trkpt lat="45.53302" lon="6.79325">
        <ele>2017.46</ele>
        <time>2013-03-04T12:06:25Z</time>
      </trkpt>
      <trkpt lat="45.53302" lon="6.79325">
        <ele>2017.94</ele>
        <time>2013-03-04T12:06:41Z</time>
      </trkpt>
      <trkpt lat="45.53302" lon="6.79325">
        <ele>2017.46</ele>
        <time>2013-03-04T12:06:57Z</time>
      </trkpt>
      <trkpt lat="45.53302" lon="6.79324">
        <ele>2016.98</ele>
        <time>2013-03-04T12:07:14Z</time>
      </trkpt>
      <trkpt lat="45.53302" lon="6.79325">
        <ele>2016.98</ele>
        <time>2013-03-04T12:07:33Z</time>
      </trkpt>
      <trkpt lat="45.53302" lon="6.79324">
        <ele>2016.98</ele>
        <time>2013-03-04T12:07:54Z</time>
      </trkpt>
      <trkpt lat="45.53302" lon="6.79324">
        <ele>2016.5</ele>
        <time>2013-03-04T12:08:17Z</time>
      </trkpt>
      <trkpt lat="45.53302" lon="6.79324">
        <ele>2016.02</ele>
        <time>2013-03-04T12:08:41Z</time>
      </trkpt>
      <trkpt lat="45.53302" lon="6.79324">
        <ele>2015.06</ele>
        <time>2013-03-04T12:09:06Z</time>
      </trkpt>
      <trkpt lat="45.53302" lon="6.79324">
        <ele>2015.54</ele>
        <time>2013-03-04T12:09:27Z</time>
      </trkpt>
      <trkpt lat="45.53303" lon="6.79325">
        <ele>2015.54</ele>
        <time>2013-03-04T12:09:44Z</time>
      </trkpt>
      <trkpt lat="45.53303" lon="6.79326">
        <ele>2015.54</ele>
        <time>2013-03-04T12:10:05Z</time>
      </trkpt>
      <trkpt lat="45.53303" lon="6.79325">
        <ele>2016.02</ele>
        <time>2013-03-04T12:10:28Z</time>
      </trkpt>
      <trkpt lat="45.53303" lon="6.79325">
        <ele>2016.5</ele>
        <time>2013-03-04T12:10:55Z</time>
      </trkpt>
      <trkpt lat="45.53302" lon="6.79324">
        <ele>2016.02</ele>
        <time>2013-03-04T12:11:12Z</time>
      </trkpt>
      <trkpt lat="45.53303" lon="6.79326">
        <ele>2015.54</ele>
        <time>2013-03-04T12:11:24Z</time>
      </trkpt>
      <trkpt lat="45.53303" lon="6.79325">
        <ele>2015.54</ele>
        <time>2013-03-04T12:11:28Z</time>
      </trkpt>
      <trkpt lat="45.53303" lon="6.79326">
        <ele>2015.54</ele>
        <time>2013-03-04T12:11:36Z</time>
      </trkpt>
      <trkpt lat="45.53303" lon="6.79326">
        <ele>2016.98</ele>
        <time>2013-03-04T12:11:57Z</time>
      </trkpt>
      <trkpt lat="45.53303" lon="6.79326">
        <ele>2016.98</ele>
        <time>2013-03-04T12:12:16Z</time>
      </trkpt>
      <trkpt lat="45.53302" lon="6.79327">
        <ele>2017.46</ele>
        <time>2013-03-04T12:12:32Z</time>
      </trkpt>
      <trkpt lat="45.53302" lon="6.79326">
        <ele>2017.46</ele>
        <time>2013-03-04T12:12:50Z</time>
      </trkpt>
      <trkpt lat="45.53302" lon="6.79323">
        <ele>2017.46</ele>
        <time>2013-03-04T12:13:10Z</time>
      </trkpt>
      <trkpt lat="45.53302" lon="6.79322">
        <ele>2017.46</ele>
        <time>2013-03-04T12:13:23Z</time>
      </trkpt>
      <trkpt lat="45.533" lon="6.79322">
        <ele>2016.5</ele>
        <time>2013-03-04T12:13:42Z</time>
      </trkpt>
      <trkpt lat="45.533" lon="6.79322">
        <ele>2016.98</ele>
        <time>2013-03-04T12:13:56Z</time>
      </trkpt>
      <trkpt lat="45.53301" lon="6.79322">
        <ele>2016.98</ele>
        <time>2013-03-04T12:14:10Z</time>
      </trkpt>
      <trkpt lat="45.53301" lon="6.79322">
        <ele>2017.46</ele>
        <time>2013-03-04T12:14:15Z</time>
      </trkpt>
      <trkpt lat="45.53302" lon="6.79322">
        <ele>2017.46</ele>
        <time>2013-03-04T12:14:24Z</time>
      </trkpt>
      <trkpt lat="45.53303" lon="6.79323">
        <ele>2017.46</ele>
        <time>2013-03-04T12:14:39Z</time>
      </trkpt>
      <trkpt lat="45.53303" lon="6.79325">
        <ele>2016.98</ele>
        <time>2013-03-04T12:14:46Z</time>
      </trkpt>
      <trkpt lat="45.53302" lon="6.79328">
        <ele>2016.98</ele>
        <time>2013-03-04T12:14:49Z</time>
      </trkpt>
      <trkpt lat="45.53302" lon="6.79334">
        <ele>2017.46</ele>
        <time>2013-03-04T12:14:54Z</time>
      </trkpt>
      <trkpt lat="45.53303" lon="6.7934">
        <ele>2016.02</ele>
        <time>2013-03-04T12:15:03Z</time>
      </trkpt>
      <trkpt lat="45.53303" lon="6.79341">
        <ele>2016.5</ele>
        <time>2013-03-04T12:15:26Z</time>
      </trkpt>
      <trkpt lat="45.53305" lon="6.79348">
        <ele>2016.02</ele>
        <time>2013-03-04T12:15:35Z</time>
      </trkpt>
      <trkpt lat="45.53305" lon="6.79349">
        <ele>2016.02</ele>
        <time>2013-03-04T12:15:36Z</time>
      </trkpt>
      <trkpt lat="45.53305" lon="6.79354">
        <ele>2016.02</ele>
        <time>2013-03-04T12:15:39Z</time>
      </trkpt>
      <trkpt lat="45.53309" lon="6.79366">
        <ele>2016.5</ele>
        <time>2013-03-04T12:15:48Z</time>
      </trkpt>
      <trkpt lat="45.53311" lon="6.79371">
        <ele>2016.5</ele>
        <time>2013-03-04T12:15:53Z</time>
      </trkpt>
      <trkpt lat="45.53313" lon="6.79375">
        <ele>2016.5</ele>
        <time>2013-03-04T12:15:56Z</time>
      </trkpt>
      <trkpt lat="45.53314" lon="6.79377">
        <ele>2016.98</ele>
        <time>2013-03-04T12:15:58Z</time>
      </trkpt>
      <trkpt lat="45.53317" lon="6.79383">
        <ele>2016.98</ele>
        <time>2013-03-04T12:16:06Z</time>
      </trkpt>
      <trkpt lat="45.5332" lon="6.79388">
        <ele>2017.46</ele>
        <time>2013-03-04T12:16:12Z</time>
      </trkpt>
      <trkpt lat="45.53323" lon="6.79398">
        <ele>2018.91</ele>
        <time>2013-03-04T12:16:20Z</time>
      </trkpt>
      <trkpt lat="45.53325" lon="6.79403">
        <ele>2018.91</ele>
        <time>2013-03-04T12:16:27Z</time>
      </trkpt>
      <trkpt lat="45.53326" lon="6.79409">
        <ele>2019.87</ele>
        <time>2013-03-04T12:16:31Z</time>
      </trkpt>
      <trkpt lat="45.53329" lon="6.79414">
        <ele>2020.83</ele>
        <time>2013-03-04T12:16:39Z</time>
      </trkpt>
      <trkpt lat="45.5333" lon="6.79417">
        <ele>2020.83</ele>
        <time>2013-03-04T12:16:41Z</time>
      </trkpt>
      <trkpt lat="45.53331" lon="6.79419">
        <ele>2022.27</ele>
        <time>2013-03-04T12:16:44Z</time>
      </trkpt>
      <trkpt lat="45.53331" lon="6.79424">
        <ele>2024.19</ele>
        <time>2013-03-04T12:16:52Z</time>
      </trkpt>
      <trkpt lat="45.53333" lon="6.79428">
        <ele>2026.6</ele>
        <time>2013-03-04T12:17:05Z</time>
      </trkpt>
      <trkpt lat="45.53333" lon="6.7943">
        <ele>2027.56</ele>
        <time>2013-03-04T12:17:20Z</time>
      </trkpt>
      <trkpt lat="45.53334" lon="6.79435">
        <ele>2029.48</ele>
        <time>2013-03-04T12:17:28Z</time>
      </trkpt>
      <trkpt lat="45.53336" lon="6.79442">
        <ele>2030.44</ele>
        <time>2013-03-04T12:17:33Z</time>
      </trkpt>
      <trkpt lat="45.53338" lon="6.79458">
        <ele>2029.96</ele>
        <time>2013-03-04T12:17:42Z</time>
      </trkpt>
      <trkpt lat="45.5334" lon="6.79465">
        <ele>2027.56</ele>
        <time>2013-03-04T12:17:49Z</time>
      </trkpt>
      <trkpt lat="45.53341" lon="6.79468">
        <ele>2026.6</ele>
        <time>2013-03-04T12:17:59Z</time>
      </trkpt>
      <trkpt lat="45.53342" lon="6.79467">
        <ele>2026.6</ele>
        <time>2013-03-04T12:18:16Z</time>
      </trkpt>
      <trkpt lat="45.53344" lon="6.79476">
        <ele>2026.12</ele>
        <time>2013-03-04T12:18:24Z</time>
      </trkpt>
      <trkpt lat="45.53344" lon="6.79479">
        <ele>2026.12</ele>
        <time>2013-03-04T12:18:26Z</time>
      </trkpt>
      <trkpt lat="45.53344" lon="6.79486">
        <ele>2027.08</ele>
        <time>2013-03-04T12:18:31Z</time>
      </trkpt>
      <trkpt lat="45.53344" lon="6.79497">
        <ele>2026.6</ele>
        <time>2013-03-04T12:18:39Z</time>
      </trkpt>
      <trkpt lat="45.53345" lon="6.79504">
        <ele>2026.6</ele>
        <time>2013-03-04T12:18:45Z</time>
      </trkpt>
      <trkpt lat="45.53346" lon="6.79514">
        <ele>2027.08</ele>
        <time>2013-03-04T12:18:51Z</time>
      </trkpt>
      <trkpt lat="45.53347" lon="6.79522">
        <ele>2028.04</ele>
        <time>2013-03-04T12:18:58Z</time>
      </trkpt>
      <trkpt lat="45.53349" lon="6.79528">
        <ele>2028.04</ele>
        <time>2013-03-04T12:19:04Z</time>
      </trkpt>
      <trkpt lat="45.5335" lon="6.79536">
        <ele>2028.52</ele>
        <time>2013-03-04T12:19:11Z</time>
      </trkpt>
      <trkpt lat="45.53351" lon="6.79541">
        <ele>2027.08</ele>
        <time>2013-03-04T12:19:19Z</time>
      </trkpt>
      <trkpt lat="45.53353" lon="6.79547">
        <ele>2026.12</ele>
        <time>2013-03-04T12:19:23Z</time>
      </trkpt>
      <trkpt lat="45.53355" lon="6.79552">
        <ele>2026.12</ele>
        <time>2013-03-04T12:19:27Z</time>
      </trkpt>
      <trkpt lat="45.53356" lon="6.79555">
        <ele>2027.56</ele>
        <time>2013-03-04T12:19:31Z</time>
      </trkpt>
      <trkpt lat="45.53356" lon="6.79556">
        <ele>2029</ele>
        <time>2013-03-04T12:19:33Z</time>
      </trkpt>
      <trkpt lat="45.5336" lon="6.79566">
        <ele>2029.48</ele>
        <time>2013-03-04T12:19:40Z</time>
      </trkpt>
      <trkpt lat="45.5336" lon="6.79568">
        <ele>2029</ele>
        <time>2013-03-04T12:19:41Z</time>
      </trkpt>
      <trkpt lat="45.53363" lon="6.7958">
        <ele>2027.56</ele>
        <time>2013-03-04T12:19:48Z</time>
      </trkpt>
      <trkpt lat="45.53365" lon="6.79587">
        <ele>2027.08</ele>
        <time>2013-03-04T12:19:54Z</time>
      </trkpt>
      <trkpt lat="45.53367" lon="6.79591">
        <ele>2026.12</ele>
        <time>2013-03-04T12:19:58Z</time>
      </trkpt>
      <trkpt lat="45.53368" lon="6.79599">
        <ele>2027.56</ele>
        <time>2013-03-04T12:20:06Z</time>
      </trkpt>
      <trkpt lat="45.5337" lon="6.79611">
        <ele>2028.04</ele>
        <time>2013-03-04T12:20:12Z</time>
      </trkpt>
      <trkpt lat="45.53372" lon="6.79623">
        <ele>2027.08</ele>
        <time>2013-03-04T12:20:20Z</time>
      </trkpt>
      <trkpt lat="45.53372" lon="6.79626">
        <ele>2027.08</ele>
        <time>2013-03-04T12:20:28Z</time>
      </trkpt>
      <trkpt lat="45.53373" lon="6.79634">
        <ele>2026.6</ele>
        <time>2013-03-04T12:20:40Z</time>
      </trkpt>
      <trkpt lat="45.53373" lon="6.79636">
        <ele>2030.92</ele>
        <time>2013-03-04T12:20:47Z</time>
      </trkpt>
      <trkpt lat="45.53377" lon="6.79648">
        <ele>2031.4</ele>
        <time>2013-03-04T12:20:54Z</time>
      </trkpt>
      <trkpt lat="45.53377" lon="6.79659">
        <ele>2030.92</ele>
        <time>2013-03-04T12:21:00Z</time>
      </trkpt>
      <trkpt lat="45.53378" lon="6.79664">
        <ele>2030.92</ele>
        <time>2013-03-04T12:21:02Z</time>
      </trkpt>
      <trkpt lat="45.5338" lon="6.79669">
        <ele>2031.88</ele>
        <time>2013-03-04T12:21:10Z</time>
      </trkpt>
      <trkpt lat="45.53381" lon="6.79676">
        <ele>2031.4</ele>
        <time>2013-03-04T12:21:14Z</time>
      </trkpt>
      <trkpt lat="45.53383" lon="6.79679">
        <ele>2030.92</ele>
        <time>2013-03-04T12:21:16Z</time>
      </trkpt>
      <trkpt lat="45.53385" lon="6.79687">
        <ele>2029.96</ele>
        <time>2013-03-04T12:21:22Z</time>
      </trkpt>
      <trkpt lat="45.53385" lon="6.7969">
        <ele>2030.44</ele>
        <time>2013-03-04T12:21:25Z</time>
      </trkpt>
      <trkpt lat="45.53387" lon="6.79697">
        <ele>2030.44</ele>
        <time>2013-03-04T12:21:32Z</time>
      </trkpt>
      <trkpt lat="45.53389" lon="6.79702">
        <ele>2030.92</ele>
        <time>2013-03-04T12:21:37Z</time>
      </trkpt>
      <trkpt lat="45.53391" lon="6.79709">
        <ele>2029.48</ele>
        <time>2013-03-04T12:21:46Z</time>
      </trkpt>
      <trkpt lat="45.53393" lon="6.79713">
        <ele>2029</ele>
        <time>2013-03-04T12:21:57Z</time>
      </trkpt>
      <trkpt lat="45.53395" lon="6.79724">
        <ele>2026.12</ele>
        <time>2013-03-04T12:22:06Z</time>
      </trkpt>
      <trkpt lat="45.53397" lon="6.79729">
        <ele>2026.12</ele>
        <time>2013-03-04T12:22:13Z</time>
      </trkpt>
      <trkpt lat="45.53397" lon="6.79732">
        <ele>2026.12</ele>
        <time>2013-03-04T12:22:15Z</time>
      </trkpt>
      <trkpt lat="45.534" lon="6.79746">
        <ele>2027.56</ele>
        <time>2013-03-04T12:22:24Z</time>
      </trkpt>
      <trkpt lat="45.53401" lon="6.79755">
        <ele>2029.48</ele>
        <time>2013-03-04T12:22:31Z</time>
      </trkpt>
      <trkpt lat="45.53402" lon="6.79763">
        <ele>2029</ele>
        <time>2013-03-04T12:22:37Z</time>
      </trkpt>
      <trkpt lat="45.53402" lon="6.79767">
        <ele>2029.48</ele>
        <time>2013-03-04T12:22:40Z</time>
      </trkpt>
      <trkpt lat="45.53406" lon="6.79776">
        <ele>2029</ele>
        <time>2013-03-04T12:22:48Z</time>
      </trkpt>
      <trkpt lat="45.53407" lon="6.79783">
        <ele>2028.04</ele>
        <time>2013-03-04T12:22:53Z</time>
      </trkpt>
      <trkpt lat="45.53407" lon="6.79783">
        <ele>2028.04</ele>
        <time>2013-03-04T12:22:55Z</time>
      </trkpt>
      <trkpt lat="45.53408" lon="6.79786">
        <ele>2027.08</ele>
        <time>2013-03-04T12:22:58Z</time>
      </trkpt>
      <trkpt lat="45.53412" lon="6.79789">
        <ele>2026.12</ele>
        <time>2013-03-04T12:23:06Z</time>
      </trkpt>
      <trkpt lat="45.53412" lon="6.79788">
        <ele>2027.56</ele>
        <time>2013-03-04T12:23:20Z</time>
      </trkpt>
      <trkpt lat="45.53415" lon="6.79795">
        <ele>2027.08</ele>
        <time>2013-03-04T12:23:33Z</time>
      </trkpt>
      <trkpt lat="45.53416" lon="6.79806">
        <ele>2025.15</ele>
        <time>2013-03-04T12:23:40Z</time>
      </trkpt>
      <trkpt lat="45.53417" lon="6.79812">
        <ele>2026.12</ele>
        <time>2013-03-04T12:23:46Z</time>
      </trkpt>
      <trkpt lat="45.53419" lon="6.79822">
        <ele>2025.15</ele>
        <time>2013-03-04T12:23:54Z</time>
      </trkpt>
      <trkpt lat="45.53421" lon="6.79831">
        <ele>2025.15</ele>
        <time>2013-03-04T12:24:01Z</time>
      </trkpt>
      <trkpt lat="45.53423" lon="6.79841">
        <ele>2023.71</ele>
        <time>2013-03-04T12:24:09Z</time>
      </trkpt>
      <trkpt lat="45.53426" lon="6.79848">
        <ele>2022.27</ele>
        <time>2013-03-04T12:24:17Z</time>
      </trkpt>
      <trkpt lat="45.53426" lon="6.79853">
        <ele>2020.35</ele>
        <time>2013-03-04T12:24:21Z</time>
      </trkpt>
      <trkpt lat="45.5343" lon="6.79859">
        <ele>2019.87</ele>
        <time>2013-03-04T12:24:27Z</time>
      </trkpt>
      <trkpt lat="45.5343" lon="6.79866">
        <ele>2022.27</ele>
        <time>2013-03-04T12:24:34Z</time>
      </trkpt>
      <trkpt lat="45.53431" lon="6.79872">
        <ele>2020.35</ele>
        <time>2013-03-04T12:24:43Z</time>
      </trkpt>
      <trkpt lat="45.53434" lon="6.79879">
        <ele>2021.79</ele>
        <time>2013-03-04T12:24:51Z</time>
      </trkpt>
      <trkpt lat="45.53434" lon="6.79882">
        <ele>2021.79</ele>
        <time>2013-03-04T12:24:54Z</time>
      </trkpt>
      <trkpt lat="45.53436" lon="6.79887">
        <ele>2024.19</ele>
        <time>2013-03-04T12:24:58Z</time>
      </trkpt>
      <trkpt lat="45.53438" lon="6.79895">
        <ele>2026.12</ele>
        <time>2013-03-04T12:25:06Z</time>
      </trkpt>
      <trkpt lat="45.53439" lon="6.79897">
        <ele>2027.08</ele>
        <time>2013-03-04T12:25:09Z</time>
      </trkpt>
      <trkpt lat="45.53441" lon="6.79903">
        <ele>2028.04</ele>
        <time>2013-03-04T12:25:16Z</time>
      </trkpt>
      <trkpt lat="45.53444" lon="6.79904">
        <ele>2028.04</ele>
        <time>2013-03-04T12:25:28Z</time>
      </trkpt>
      <trkpt lat="45.53445" lon="6.79905">
        <ele>2028.52</ele>
        <time>2013-03-04T12:25:36Z</time>
      </trkpt>
      <trkpt lat="45.53446" lon="6.79912">
        <ele>2029.96</ele>
        <time>2013-03-04T12:25:41Z</time>
      </trkpt>
      <trkpt lat="45.53445" lon="6.7992">
        <ele>2030.44</ele>
        <time>2013-03-04T12:25:49Z</time>
      </trkpt>
      <trkpt lat="45.53442" lon="6.79929">
        <ele>2031.4</ele>
        <time>2013-03-04T12:25:58Z</time>
      </trkpt>
      <trkpt lat="45.53441" lon="6.79933">
        <ele>2032.36</ele>
        <time>2013-03-04T12:26:01Z</time>
      </trkpt>
      <trkpt lat="45.53439" lon="6.79939">
        <ele>2034.29</ele>
        <time>2013-03-04T12:26:07Z</time>
      </trkpt>
      <trkpt lat="45.53438" lon="6.79946">
        <ele>2034.77</ele>
        <time>2013-03-04T12:26:14Z</time>
      </trkpt>
      <trkpt lat="45.53439" lon="6.79944">
        <ele>2036.21</ele>
        <time>2013-03-04T12:26:37Z</time>
      </trkpt>
      <trkpt lat="45.53438" lon="6.7995">
        <ele>2036.21</ele>
        <time>2013-03-04T12:26:46Z</time>
      </trkpt>
      <trkpt lat="45.53438" lon="6.79953">
        <ele>2036.69</ele>
        <time>2013-03-04T12:26:49Z</time>
      </trkpt>
      <trkpt lat="45.53439" lon="6.79962">
        <ele>2035.73</ele>
        <time>2013-03-04T12:26:57Z</time>
      </trkpt>
      <trkpt lat="45.5344" lon="6.79962">
        <ele>2035.73</ele>
        <time>2013-03-04T12:26:59Z</time>
      </trkpt>
      <trkpt lat="45.53441" lon="6.79963">
        <ele>2040.05</ele>
        <time>2013-03-04T12:27:07Z</time>
      </trkpt>
      <trkpt lat="45.53442" lon="6.79962">
        <ele>2044.86</ele>
        <time>2013-03-04T12:27:26Z</time>
      </trkpt>
      <trkpt lat="45.53443" lon="6.79963">
        <ele>2044.86</ele>
        <time>2013-03-04T12:27:27Z</time>
      </trkpt>
      <trkpt lat="45.53444" lon="6.79967">
        <ele>2045.34</ele>
        <time>2013-03-04T12:27:30Z</time>
      </trkpt>
      <trkpt lat="45.53448" lon="6.79977">
        <ele>2046.78</ele>
        <time>2013-03-04T12:27:38Z</time>
      </trkpt>
      <trkpt lat="45.53449" lon="6.79981">
        <ele>2046.78</ele>
        <time>2013-03-04T12:27:42Z</time>
      </trkpt>
      <trkpt lat="45.53451" lon="6.79988">
        <ele>2047.26</ele>
        <time>2013-03-04T12:27:50Z</time>
      </trkpt>
      <trkpt lat="45.53452" lon="6.79993">
        <ele>2046.78</ele>
        <time>2013-03-04T12:28:07Z</time>
      </trkpt>
      <trkpt lat="45.53454" lon="6.79998">
        <ele>2046.78</ele>
        <time>2013-03-04T12:28:11Z</time>
      </trkpt>
      <trkpt lat="45.53455" lon="6.80002">
        <ele>2046.78</ele>
        <time>2013-03-04T12:28:16Z</time>
      </trkpt>
      <trkpt lat="45.53454" lon="6.80013">
        <ele>2046.3</ele>
        <time>2013-03-04T12:28:24Z</time>
      </trkpt>
      <trkpt lat="45.53455" lon="6.80024">
        <ele>2045.82</ele>
        <time>2013-03-04T12:28:32Z</time>
      </trkpt>
      <trkpt lat="45.53456" lon="6.80031">
        <ele>2045.82</ele>
        <time>2013-03-04T12:28:38Z</time>
      </trkpt>
      <trkpt lat="45.53456" lon="6.8003">
        <ele>2046.78</ele>
        <time>2013-03-04T12:28:57Z</time>
      </trkpt>
      <trkpt lat="45.53456" lon="6.8003">
        <ele>2046.3</ele>
        <time>2013-03-04T12:29:16Z</time>
      </trkpt>
      <trkpt lat="45.53456" lon="6.80029">
        <ele>2045.82</ele>
        <time>2013-03-04T12:29:31Z</time>
      </trkpt>
      <trkpt lat="45.53456" lon="6.80016">
        <ele>2046.3</ele>
        <time>2013-03-04T12:29:40Z</time>
      </trkpt>
      <trkpt lat="45.53455" lon="6.80006">
        <ele>2044.86</ele>
        <time>2013-03-04T12:29:47Z</time>
      </trkpt>
      <trkpt lat="45.53455" lon="6.80004">
        <ele>2044.86</ele>
        <time>2013-03-04T12:29:48Z</time>
      </trkpt>
      <trkpt lat="45.53456" lon="6.80002">
        <ele>2044.86</ele>
        <time>2013-03-04T12:29:59Z</time>
      </trkpt>
      <trkpt lat="45.53456" lon="6.80002">
        <ele>2043.9</ele>
        <time>2013-03-04T12:30:10Z</time>
      </trkpt>
      <trkpt lat="45.53456" lon="6.80003">
        <ele>2045.34</ele>
        <time>2013-03-04T12:30:30Z</time>
      </trkpt>
      <trkpt lat="45.53456" lon="6.80003">
        <ele>2044.86</ele>
        <time>2013-03-04T12:30:53Z</time>
      </trkpt>
      <trkpt lat="45.53455" lon="6.80003">
        <ele>2044.38</ele>
        <time>2013-03-04T12:31:14Z</time>
      </trkpt>
      <trkpt lat="45.53456" lon="6.80003">
        <ele>2044.86</ele>
        <time>2013-03-04T12:31:28Z</time>
      </trkpt>
      <trkpt lat="45.53455" lon="6.80002">
        <ele>2043.9</ele>
        <time>2013-03-04T12:31:38Z</time>
      </trkpt>
      <trkpt lat="45.53455" lon="6.80002">
        <ele>2042.46</ele>
        <time>2013-03-04T12:31:55Z</time>
      </trkpt>
      <trkpt lat="45.53454" lon="6.80002">
        <ele>2041.98</ele>
        <time>2013-03-04T12:32:09Z</time>
      </trkpt>
      <trkpt lat="45.53455" lon="6.80002">
        <ele>2041.5</ele>
        <time>2013-03-04T12:32:35Z</time>
      </trkpt>
      <trkpt lat="45.53455" lon="6.80003">
        <ele>2041.5</ele>
        <time>2013-03-04T12:32:44Z</time>
      </trkpt>
      <trkpt lat="45.53455" lon="6.80003">
        <ele>2041.02</ele>
        <time>2013-03-04T12:32:59Z</time>
      </trkpt>
      <trkpt lat="45.53455" lon="6.80003">
        <ele>2041.02</ele>
        <time>2013-03-04T12:33:07Z</time>
      </trkpt>
      <trkpt lat="45.53455" lon="6.80002">
        <ele>2041.02</ele>
        <time>2013-03-04T12:33:17Z</time>
      </trkpt>
      <trkpt lat="45.53454" lon="6.80002">
        <ele>2040.54</ele>
        <time>2013-03-04T12:33:40Z</time>
      </trkpt>
      <trkpt lat="45.53454" lon="6.80002">
        <ele>2040.54</ele>
        <time>2013-03-04T12:33:55Z</time>
      </trkpt>
      <trkpt lat="45.53454" lon="6.80002">
        <ele>2040.05</ele>
        <time>2013-03-04T12:34:18Z</time>
      </trkpt>
      <trkpt lat="45.53453" lon="6.80002">
        <ele>2040.05</ele>
        <time>2013-03-04T12:34:39Z</time>
      </trkpt>
      <trkpt lat="45.53453" lon="6.80001">
        <ele>2040.05</ele>
        <time>2013-03-04T12:34:56Z</time>
      </trkpt>
      <trkpt lat="45.53453" lon="6.80002">
        <ele>2040.05</ele>
        <time>2013-03-04T12:34:59Z</time>
      </trkpt>
      <trkpt lat="45.53452" lon="6.80003">
        <ele>2039.57</ele>
        <time>2013-03-04T12:35:10Z</time>
      </trkpt>
      <trkpt lat="45.53453" lon="6.80004">
        <ele>2037.65</ele>
        <time>2013-03-04T12:35:37Z</time>
      </trkpt>
      <trkpt lat="45.53454" lon="6.80003">
        <ele>2038.13</ele>
        <time>2013-03-04T12:35:55Z</time>
      </trkpt>
      <trkpt lat="45.53454" lon="6.80003">
        <ele>2038.13</ele>
        <time>2013-03-04T12:36:15Z</time>
      </trkpt>
      <trkpt lat="45.53454" lon="6.80004">
        <ele>2038.13</ele>
        <time>2013-03-04T12:36:40Z</time>
      </trkpt>
      <trkpt lat="45.53455" lon="6.80004">
        <ele>2038.13</ele>
        <time>2013-03-04T12:37:06Z</time>
      </trkpt>
      <trkpt lat="45.53455" lon="6.80004">
        <ele>2037.65</ele>
        <time>2013-03-04T12:37:30Z</time>
      </trkpt>
      <trkpt lat="45.53456" lon="6.80004">
        <ele>2037.65</ele>
        <time>2013-03-04T12:38:01Z</time>
      </trkpt>
      <trkpt lat="45.53456" lon="6.80001">
        <ele>2036.69</ele>
        <time>2013-03-04T12:38:17Z</time>
      </trkpt>
      <trkpt lat="45.53456" lon="6.80001">
        <ele>2036.69</ele>
        <time>2013-03-04T12:38:34Z</time>
      </trkpt>
      <trkpt lat="45.53456" lon="6.80001">
        <ele>2036.69</ele>
        <time>2013-03-04T12:38:56Z</time>
      </trkpt>
      <trkpt lat="45.53456" lon="6.80001">
        <ele>2036.69</ele>
        <time>2013-03-04T12:39:16Z</time>
      </trkpt>
      <trkpt lat="45.53457" lon="6.80001">
        <ele>2036.21</ele>
        <time>2013-03-04T12:39:36Z</time>
      </trkpt>
      <trkpt lat="45.53457" lon="6.80003">
        <ele>2036.69</ele>
        <time>2013-03-04T12:39:49Z</time>
      </trkpt>
      <trkpt lat="45.53456" lon="6.80004">
        <ele>2036.69</ele>
        <time>2013-03-04T12:39:57Z</time>
      </trkpt>
      <trkpt lat="45.53456" lon="6.80012">
        <ele>2036.69</ele>
        <time>2013-03-04T12:40:04Z</time>
      </trkpt>
      <trkpt lat="45.53456" lon="6.80014">
        <ele>2036.69</ele>
        <time>2013-03-04T12:40:06Z</time>
      </trkpt>
      <trkpt lat="45.53457" lon="6.80021">
        <ele>2037.17</ele>
        <time>2013-03-04T12:40:13Z</time>
      </trkpt>
      <trkpt lat="45.53457" lon="6.80026">
        <ele>2037.65</ele>
        <time>2013-03-04T12:40:18Z</time>
      </trkpt>
      <trkpt lat="45.53459" lon="6.80029">
        <ele>2038.61</ele>
        <time>2013-03-04T12:40:21Z</time>
      </trkpt>
      <trkpt lat="45.53459" lon="6.80037">
        <ele>2039.57</ele>
        <time>2013-03-04T12:40:27Z</time>
      </trkpt>
      <trkpt lat="45.53462" lon="6.80045">
        <ele>2041.02</ele>
        <time>2013-03-04T12:40:34Z</time>
      </trkpt>
      <trkpt lat="45.53462" lon="6.80046">
        <ele>2041.02</ele>
        <time>2013-03-04T12:40:41Z</time>
      </trkpt>
      <trkpt lat="45.53463" lon="6.80049">
        <ele>2041.98</ele>
        <time>2013-03-04T12:40:43Z</time>
      </trkpt>
      <trkpt lat="45.53465" lon="6.8005">
        <ele>2041.5</ele>
        <time>2013-03-04T12:40:45Z</time>
      </trkpt>
      <trkpt lat="45.53466" lon="6.80059">
        <ele>2041.98</ele>
        <time>2013-03-04T12:40:53Z</time>
      </trkpt>
      <trkpt lat="45.53468" lon="6.80067">
        <ele>2042.46</ele>
        <time>2013-03-04T12:41:01Z</time>
      </trkpt>
      <trkpt lat="45.53469" lon="6.80071">
        <ele>2042.46</ele>
        <time>2013-03-04T12:41:11Z</time>
      </trkpt>
      <trkpt lat="45.5347" lon="6.80073">
        <ele>2041.5</ele>
        <time>2013-03-04T12:41:24Z</time>
      </trkpt>
      <trkpt lat="45.53471" lon="6.80078">
        <ele>2041.5</ele>
        <time>2013-03-04T12:41:28Z</time>
      </trkpt>
      <trkpt lat="45.53474" lon="6.80087">
        <ele>2042.46</ele>
        <time>2013-03-04T12:41:37Z</time>
      </trkpt>
      <trkpt lat="45.53475" lon="6.80088">
        <ele>2043.42</ele>
        <time>2013-03-04T12:41:39Z</time>
      </trkpt>
      <trkpt lat="45.53476" lon="6.80095">
        <ele>2043.9</ele>
        <time>2013-03-04T12:41:44Z</time>
      </trkpt>
      <trkpt lat="45.53477" lon="6.80099">
        <ele>2043.9</ele>
        <time>2013-03-04T12:41:46Z</time>
      </trkpt>
      <trkpt lat="45.53477" lon="6.801">
        <ele>2043.9</ele>
        <time>2013-03-04T12:41:48Z</time>
      </trkpt>
      <trkpt lat="45.53477" lon="6.80102">
        <ele>2043.42</ele>
        <time>2013-03-04T12:41:50Z</time>
      </trkpt>
      <trkpt lat="45.53479" lon="6.80106">
        <ele>2042.94</ele>
        <time>2013-03-04T12:41:53Z</time>
      </trkpt>
      <trkpt lat="45.5348" lon="6.80109">
        <ele>2043.42</ele>
        <time>2013-03-04T12:41:57Z</time>
      </trkpt>
      <trkpt lat="45.53481" lon="6.80112">
        <ele>2043.42</ele>
        <time>2013-03-04T12:42:00Z</time>
      </trkpt>
      <trkpt lat="45.53484" lon="6.80117">
        <ele>2044.38</ele>
        <time>2013-03-04T12:42:09Z</time>
      </trkpt>
      <trkpt lat="45.53484" lon="6.80116">
        <ele>2046.3</ele>
        <time>2013-03-04T12:42:24Z</time>
      </trkpt>
      <trkpt lat="45.53485" lon="6.80116">
        <ele>2047.75</ele>
        <time>2013-03-04T12:42:36Z</time>
      </trkpt>
      <trkpt lat="45.53484" lon="6.80115">
        <ele>2047.26</ele>
        <time>2013-03-04T12:42:54Z</time>
      </trkpt>
      <trkpt lat="45.53484" lon="6.80115">
        <ele>2049.19</ele>
        <time>2013-03-04T12:43:12Z</time>
      </trkpt>
      <trkpt lat="45.53485" lon="6.80118">
        <ele>2049.19</ele>
        <time>2013-03-04T12:43:24Z</time>
      </trkpt>
      <trkpt lat="45.53486" lon="6.80124">
        <ele>2049.19</ele>
        <time>2013-03-04T12:43:30Z</time>
      </trkpt>
      <trkpt lat="45.53482" lon="6.80133">
        <ele>2048.23</ele>
        <time>2013-03-04T12:43:38Z</time>
      </trkpt>
      <trkpt lat="45.53476" lon="6.80137">
        <ele>2047.26</ele>
        <time>2013-03-04T12:43:47Z</time>
      </trkpt>
      <trkpt lat="45.53472" lon="6.80137">
        <ele>2046.78</ele>
        <time>2013-03-04T12:43:50Z</time>
      </trkpt>
      <trkpt lat="45.53468" lon="6.80142">
        <ele>2045.82</ele>
        <time>2013-03-04T12:43:56Z</time>
      </trkpt>
      <trkpt lat="45.53467" lon="6.80146">
        <ele>2045.82</ele>
        <time>2013-03-04T12:43:58Z</time>
      </trkpt>
      <trkpt lat="45.53468" lon="6.80151">
        <ele>2045.34</ele>
        <time>2013-03-04T12:44:03Z</time>
      </trkpt>
      <trkpt lat="45.53471" lon="6.80155">
        <ele>2045.34</ele>
        <time>2013-03-04T12:44:08Z</time>
      </trkpt>
      <trkpt lat="45.53472" lon="6.80161">
        <ele>2046.3</ele>
        <time>2013-03-04T12:44:13Z</time>
      </trkpt>
      <trkpt lat="45.53474" lon="6.80163">
        <ele>2046.3</ele>
        <time>2013-03-04T12:44:15Z</time>
      </trkpt>
      <trkpt lat="45.53475" lon="6.80167">
        <ele>2046.3</ele>
        <time>2013-03-04T12:44:24Z</time>
      </trkpt>
      <trkpt lat="45.53475" lon="6.80167">
        <ele>2046.3</ele>
        <time>2013-03-04T12:44:42Z</time>
      </trkpt>
      <trkpt lat="45.53476" lon="6.80171">
        <ele>2046.78</ele>
        <time>2013-03-04T12:45:01Z</time>
      </trkpt>
      <trkpt lat="45.5348" lon="6.80182">
        <ele>2048.71</ele>
        <time>2013-03-04T12:45:08Z</time>
      </trkpt>
      <trkpt lat="45.53483" lon="6.8019">
        <ele>2047.75</ele>
        <time>2013-03-04T12:45:15Z</time>
      </trkpt>
      <trkpt lat="45.53485" lon="6.80195">
        <ele>2048.23</ele>
        <time>2013-03-04T12:45:19Z</time>
      </trkpt>
      <trkpt lat="45.53486" lon="6.80196">
        <ele>2048.23</ele>
        <time>2013-03-04T12:45:21Z</time>
      </trkpt>
      <trkpt lat="45.53486" lon="6.80201">
        <ele>2048.23</ele>
        <time>2013-03-04T12:45:24Z</time>
      </trkpt>
      <trkpt lat="45.53491" lon="6.80211">
        <ele>2050.63</ele>
        <time>2013-03-04T12:45:32Z</time>
      </trkpt>
      <trkpt lat="45.53494" lon="6.80218">
        <ele>2053.03</ele>
        <time>2013-03-04T12:45:39Z</time>
      </trkpt>
      <trkpt lat="45.53495" lon="6.8022">
        <ele>2053.99</ele>
        <time>2013-03-04T12:45:41Z</time>
      </trkpt>
      <trkpt lat="45.53494" lon="6.80223">
        <ele>2053.51</ele>
        <time>2013-03-04T12:45:43Z</time>
      </trkpt>
      <trkpt lat="45.53496" lon="6.80228">
        <ele>2053.51</ele>
        <time>2013-03-04T12:45:46Z</time>
      </trkpt>
      <trkpt lat="45.53497" lon="6.80234">
        <ele>2053.99</ele>
        <time>2013-03-04T12:45:51Z</time>
      </trkpt>
      <trkpt lat="45.53496" lon="6.80243">
        <ele>2053.99</ele>
        <time>2013-03-04T12:45:58Z</time>
      </trkpt>
      <trkpt lat="45.53496" lon="6.80249">
        <ele>2055.44</ele>
        <time>2013-03-04T12:46:04Z</time>
      </trkpt>
      <trkpt lat="45.53496" lon="6.80254">
        <ele>2055.44</ele>
        <time>2013-03-04T12:46:10Z</time>
      </trkpt>
      <trkpt lat="45.53497" lon="6.80254">
        <ele>2055.44</ele>
        <time>2013-03-04T12:46:31Z</time>
      </trkpt>
      <trkpt lat="45.53498" lon="6.8026">
        <ele>2056.4</ele>
        <time>2013-03-04T12:46:39Z</time>
      </trkpt>
      <trkpt lat="45.53498" lon="6.80267">
        <ele>2058.8</ele>
        <time>2013-03-04T12:46:45Z</time>
      </trkpt>
      <trkpt lat="45.53498" lon="6.80274">
        <ele>2058.32</ele>
        <time>2013-03-04T12:46:50Z</time>
      </trkpt>
      <trkpt lat="45.53499" lon="6.80276">
        <ele>2058.32</ele>
        <time>2013-03-04T12:46:52Z</time>
      </trkpt>
      <trkpt lat="45.535" lon="6.80278">
        <ele>2058.8</ele>
        <time>2013-03-04T12:47:03Z</time>
      </trkpt>
      <trkpt lat="45.535" lon="6.80284">
        <ele>2058.32</ele>
        <time>2013-03-04T12:47:17Z</time>
      </trkpt>
      <trkpt lat="45.53502" lon="6.80291">
        <ele>2058.32</ele>
        <time>2013-03-04T12:47:23Z</time>
      </trkpt>
      <trkpt lat="45.53504" lon="6.80299">
        <ele>2058.8</ele>
        <time>2013-03-04T12:47:30Z</time>
      </trkpt>
      <trkpt lat="45.53507" lon="6.80308">
        <ele>2059.76</ele>
        <time>2013-03-04T12:47:37Z</time>
      </trkpt>
      <trkpt lat="45.53508" lon="6.80316">
        <ele>2061.68</ele>
        <time>2013-03-04T12:47:44Z</time>
      </trkpt>
      <trkpt lat="45.5351" lon="6.80322">
        <ele>2063.13</ele>
        <time>2013-03-04T12:47:50Z</time>
      </trkpt>
      <trkpt lat="45.53513" lon="6.80325">
        <ele>2064.09</ele>
        <time>2013-03-04T12:47:59Z</time>
      </trkpt>
      <trkpt lat="45.53514" lon="6.80327">
        <ele>2064.09</ele>
        <time>2013-03-04T12:48:06Z</time>
      </trkpt>
      <trkpt lat="45.53514" lon="6.80332">
        <ele>2064.57</ele>
        <time>2013-03-04T12:48:09Z</time>
      </trkpt>
      <trkpt lat="45.53517" lon="6.80341">
        <ele>2063.61</ele>
        <time>2013-03-04T12:48:17Z</time>
      </trkpt>
      <trkpt lat="45.5352" lon="6.80348">
        <ele>2064.57</ele>
        <time>2013-03-04T12:48:24Z</time>
      </trkpt>
      <trkpt lat="45.53523" lon="6.80356">
        <ele>2065.53</ele>
        <time>2013-03-04T12:48:31Z</time>
      </trkpt>
      <trkpt lat="45.53523" lon="6.80361">
        <ele>2064.57</ele>
        <time>2013-03-04T12:48:38Z</time>
      </trkpt>
      <trkpt lat="45.53524" lon="6.80362">
        <ele>2066.01</ele>
        <time>2013-03-04T12:48:51Z</time>
      </trkpt>
      <trkpt lat="45.53525" lon="6.80362">
        <ele>2066.97</ele>
        <time>2013-03-04T12:49:03Z</time>
      </trkpt>
      <trkpt lat="45.53526" lon="6.80362">
        <ele>2066.01</ele>
        <time>2013-03-04T12:49:29Z</time>
      </trkpt>
      <trkpt lat="45.53527" lon="6.80362">
        <ele>2066.01</ele>
        <time>2013-03-04T12:49:32Z</time>
      </trkpt>
      <trkpt lat="45.53527" lon="6.80369">
        <ele>2067.45</ele>
        <time>2013-03-04T12:49:39Z</time>
      </trkpt>
      <trkpt lat="45.53526" lon="6.80378">
        <ele>2068.89</ele>
        <time>2013-03-04T12:49:46Z</time>
      </trkpt>
      <trkpt lat="45.53525" lon="6.80384">
        <ele>2069.38</ele>
        <time>2013-03-04T12:49:51Z</time>
      </trkpt>
      <trkpt lat="45.53527" lon="6.80393">
        <ele>2070.82</ele>
        <time>2013-03-04T12:49:58Z</time>
      </trkpt>
      <trkpt lat="45.53526" lon="6.80395">
        <ele>2071.3</ele>
        <time>2013-03-04T12:50:07Z</time>
      </trkpt>
      <trkpt lat="45.53526" lon="6.80401">
        <ele>2073.22</ele>
        <time>2013-03-04T12:50:28Z</time>
      </trkpt>
      <trkpt lat="45.53529" lon="6.80408">
        <ele>2073.7</ele>
        <time>2013-03-04T12:50:34Z</time>
      </trkpt>
      <trkpt lat="45.5353" lon="6.80411">
        <ele>2073.22</ele>
        <time>2013-03-04T12:50:37Z</time>
      </trkpt>
      <trkpt lat="45.53532" lon="6.80418">
        <ele>2074.18</ele>
        <time>2013-03-04T12:50:45Z</time>
      </trkpt>
      <trkpt lat="45.53531" lon="6.80416">
        <ele>2073.7</ele>
        <time>2013-03-04T12:51:06Z</time>
      </trkpt>
      <trkpt lat="45.5353" lon="6.80415">
        <ele>2076.1</ele>
        <time>2013-03-04T12:51:18Z</time>
      </trkpt>
      <trkpt lat="45.5353" lon="6.80415">
        <ele>2077.07</ele>
        <time>2013-03-04T12:51:33Z</time>
      </trkpt>
      <trkpt lat="45.53531" lon="6.8042">
        <ele>2077.55</ele>
        <time>2013-03-04T12:51:40Z</time>
      </trkpt>
      <trkpt lat="45.53531" lon="6.80423">
        <ele>2077.55</ele>
        <time>2013-03-04T12:51:43Z</time>
      </trkpt>
      <trkpt lat="45.53534" lon="6.80431">
        <ele>2079.47</ele>
        <time>2013-03-04T12:51:49Z</time>
      </trkpt>
      <trkpt lat="45.53536" lon="6.80439">
        <ele>2081.39</ele>
        <time>2013-03-04T12:51:56Z</time>
      </trkpt>
      <trkpt lat="45.53536" lon="6.80441">
        <ele>2081.87</ele>
        <time>2013-03-04T12:51:57Z</time>
      </trkpt>
      <trkpt lat="45.53539" lon="6.80449">
        <ele>2083.79</ele>
        <time>2013-03-04T12:52:04Z</time>
      </trkpt>
      <trkpt lat="45.53541" lon="6.80455">
        <ele>2084.28</ele>
        <time>2013-03-04T12:52:09Z</time>
      </trkpt>
      <trkpt lat="45.53541" lon="6.80461">
        <ele>2084.28</ele>
        <time>2013-03-04T12:52:17Z</time>
      </trkpt>
      <trkpt lat="45.53541" lon="6.80462">
        <ele>2083.31</ele>
        <time>2013-03-04T12:52:41Z</time>
      </trkpt>
      <trkpt lat="45.53542" lon="6.80465">
        <ele>2083.79</ele>
        <time>2013-03-04T12:52:59Z</time>
      </trkpt>
      <trkpt lat="45.53543" lon="6.80474">
        <ele>2085.24</ele>
        <time>2013-03-04T12:53:06Z</time>
      </trkpt>
      <trkpt lat="45.53543" lon="6.80482">
        <ele>2085.24</ele>
        <time>2013-03-04T12:53:13Z</time>
      </trkpt>
      <trkpt lat="45.53545" lon="6.80493">
        <ele>2082.83</ele>
        <time>2013-03-04T12:53:22Z</time>
      </trkpt>
      <trkpt lat="45.53544" lon="6.80501">
        <ele>2085.24</ele>
        <time>2013-03-04T12:53:32Z</time>
      </trkpt>
      <trkpt lat="45.53543" lon="6.80502">
        <ele>2086.2</ele>
        <time>2013-03-04T12:53:53Z</time>
      </trkpt>
      <trkpt lat="45.53544" lon="6.80501">
        <ele>2086.2</ele>
        <time>2013-03-04T12:54:16Z</time>
      </trkpt>
      <trkpt lat="45.53544" lon="6.80502">
        <ele>2086.2</ele>
        <time>2013-03-04T12:54:18Z</time>
      </trkpt>
      <trkpt lat="45.53544" lon="6.80512">
        <ele>2085.72</ele>
        <time>2013-03-04T12:54:26Z</time>
      </trkpt>
      <trkpt lat="45.53544" lon="6.80518">
        <ele>2085.72</ele>
        <time>2013-03-04T12:54:31Z</time>
      </trkpt>
      <trkpt lat="45.53544" lon="6.80528">
        <ele>2087.64</ele>
        <time>2013-03-04T12:54:40Z</time>
      </trkpt>
      <trkpt lat="45.53544" lon="6.80536">
        <ele>2089.56</ele>
        <time>2013-03-04T12:54:48Z</time>
      </trkpt>
      <trkpt lat="45.53544" lon="6.80542">
        <ele>2091.49</ele>
        <time>2013-03-04T12:54:56Z</time>
      </trkpt>
      <trkpt lat="45.53545" lon="6.80543">
        <ele>2091.49</ele>
        <time>2013-03-04T12:55:15Z</time>
      </trkpt>
      <trkpt lat="45.53546" lon="6.80545">
        <ele>2091.49</ele>
        <time>2013-03-04T12:55:31Z</time>
      </trkpt>
      <trkpt lat="45.53546" lon="6.80544">
        <ele>2092.45</ele>
        <time>2013-03-04T12:55:47Z</time>
      </trkpt>
      <trkpt lat="45.53547" lon="6.80544">
        <ele>2091.49</ele>
        <time>2013-03-04T12:56:13Z</time>
      </trkpt>
      <trkpt lat="45.53547" lon="6.80542">
        <ele>2091.97</ele>
        <time>2013-03-04T12:56:26Z</time>
      </trkpt>
      <trkpt lat="45.53547" lon="6.80542">
        <ele>2091.97</ele>
        <time>2013-03-04T12:56:44Z</time>
      </trkpt>
      <trkpt lat="45.53548" lon="6.80541">
        <ele>2091.97</ele>
        <time>2013-03-04T12:57:04Z</time>
      </trkpt>
      <trkpt lat="45.5355" lon="6.80548">
        <ele>2092.93</ele>
        <time>2013-03-04T12:57:11Z</time>
      </trkpt>
      <trkpt lat="45.53551" lon="6.80554">
        <ele>2094.85</ele>
        <time>2013-03-04T12:57:17Z</time>
      </trkpt>
      <trkpt lat="45.53552" lon="6.80561">
        <ele>2095.81</ele>
        <time>2013-03-04T12:57:26Z</time>
      </trkpt>
      <trkpt lat="45.53554" lon="6.80566">
        <ele>2096.29</ele>
        <time>2013-03-04T12:57:32Z</time>
      </trkpt>
      <trkpt lat="45.53555" lon="6.80567">
        <ele>2097.73</ele>
        <time>2013-03-04T12:57:47Z</time>
      </trkpt>
      <trkpt lat="45.53555" lon="6.80568">
        <ele>2098.21</ele>
        <time>2013-03-04T12:57:49Z</time>
      </trkpt>
      <trkpt lat="45.53557" lon="6.80569">
        <ele>2099.18</ele>
        <time>2013-03-04T12:58:02Z</time>
      </trkpt>
      <trkpt lat="45.53557" lon="6.8057">
        <ele>2100.14</ele>
        <time>2013-03-04T12:58:25Z</time>
      </trkpt>
      <trkpt lat="45.53559" lon="6.80577">
        <ele>2099.66</ele>
        <time>2013-03-04T12:58:30Z</time>
      </trkpt>
      <trkpt lat="45.5356" lon="6.80579">
        <ele>2099.66</ele>
        <time>2013-03-04T12:58:33Z</time>
      </trkpt>
      <trkpt lat="45.53562" lon="6.80582">
        <ele>2100.62</ele>
        <time>2013-03-04T12:58:35Z</time>
      </trkpt>
      <trkpt lat="45.53564" lon="6.80589">
        <ele>2101.58</ele>
        <time>2013-03-04T12:58:43Z</time>
      </trkpt>
      <trkpt lat="45.53567" lon="6.80598">
        <ele>2101.1</ele>
        <time>2013-03-04T12:58:50Z</time>
      </trkpt>
      <trkpt lat="45.53568" lon="6.806">
        <ele>2101.58</ele>
        <time>2013-03-04T12:58:52Z</time>
      </trkpt>
      <trkpt lat="45.5357" lon="6.80601">
        <ele>2102.54</ele>
        <time>2013-03-04T12:58:54Z</time>
      </trkpt>
      <trkpt lat="45.53571" lon="6.80605">
        <ele>2101.1</ele>
        <time>2013-03-04T12:59:03Z</time>
      </trkpt>
      <trkpt lat="45.53571" lon="6.80605">
        <ele>2101.58</ele>
        <time>2013-03-04T12:59:11Z</time>
      </trkpt>
      <trkpt lat="45.53572" lon="6.80605">
        <ele>2101.58</ele>
        <time>2013-03-04T12:59:13Z</time>
      </trkpt>
      <trkpt lat="45.53575" lon="6.80614">
        <ele>2103.02</ele>
        <time>2013-03-04T12:59:21Z</time>
      </trkpt>
      <trkpt lat="45.53577" lon="6.80619">
        <ele>2104.46</ele>
        <time>2013-03-04T12:59:26Z</time>
      </trkpt>
      <trkpt lat="45.53579" lon="6.80625">
        <ele>2105.91</ele>
        <time>2013-03-04T12:59:34Z</time>
      </trkpt>
      <trkpt lat="45.5358" lon="6.80626">
        <ele>2107.35</ele>
        <time>2013-03-04T12:59:51Z</time>
      </trkpt>
      <trkpt lat="45.5358" lon="6.80626">
        <ele>2108.31</ele>
        <time>2013-03-04T13:00:09Z</time>
      </trkpt>
      <trkpt lat="45.53583" lon="6.80632">
        <ele>2108.31</ele>
        <time>2013-03-04T13:00:16Z</time>
      </trkpt>
      <trkpt lat="45.53587" lon="6.80636">
        <ele>2109.75</ele>
        <time>2013-03-04T13:00:22Z</time>
      </trkpt>
      <trkpt lat="45.5359" lon="6.80641">
        <ele>2111.19</ele>
        <time>2013-03-04T13:00:28Z</time>
      </trkpt>
      <trkpt lat="45.53589" lon="6.80645">
        <ele>2112.15</ele>
        <time>2013-03-04T13:00:41Z</time>
      </trkpt>
      <trkpt lat="45.53591" lon="6.8065">
        <ele>2112.63</ele>
        <time>2013-03-04T13:00:54Z</time>
      </trkpt>
      <trkpt lat="45.53594" lon="6.80654">
        <ele>2114.08</ele>
        <time>2013-03-04T13:01:02Z</time>
      </trkpt>
      <trkpt lat="45.53595" lon="6.80654">
        <ele>2116</ele>
        <time>2013-03-04T13:01:20Z</time>
      </trkpt>
      <trkpt lat="45.53597" lon="6.80656">
        <ele>2116.48</ele>
        <time>2013-03-04T13:01:33Z</time>
      </trkpt>
      <trkpt lat="45.536" lon="6.80661">
        <ele>2117.92</ele>
        <time>2013-03-04T13:01:38Z</time>
      </trkpt>
      <trkpt lat="45.53605" lon="6.80669">
        <ele>2120.32</ele>
        <time>2013-03-04T13:01:45Z</time>
      </trkpt>
      <trkpt lat="45.53608" lon="6.80673">
        <ele>2121.29</ele>
        <time>2013-03-04T13:01:52Z</time>
      </trkpt>
      <trkpt lat="45.53611" lon="6.80673">
        <ele>2123.21</ele>
        <time>2013-03-04T13:02:04Z</time>
      </trkpt>
      <trkpt lat="45.53612" lon="6.80674">
        <ele>2123.21</ele>
        <time>2013-03-04T13:02:18Z</time>
      </trkpt>
      <trkpt lat="45.53612" lon="6.80674">
        <ele>2123.21</ele>
        <time>2013-03-04T13:02:33Z</time>
      </trkpt>
      <trkpt lat="45.53612" lon="6.80674">
        <ele>2123.21</ele>
        <time>2013-03-04T13:02:56Z</time>
      </trkpt>
      <trkpt lat="45.53612" lon="6.80678">
        <ele>2123.21</ele>
        <time>2013-03-04T13:03:18Z</time>
      </trkpt>
      <trkpt lat="45.53612" lon="6.80679">
        <ele>2123.69</ele>
        <time>2013-03-04T13:03:20Z</time>
      </trkpt>
      <trkpt lat="45.53617" lon="6.80687">
        <ele>2124.65</ele>
        <time>2013-03-04T13:03:28Z</time>
      </trkpt>
      <trkpt lat="45.53619" lon="6.80692">
        <ele>2124.65</ele>
        <time>2013-03-04T13:03:35Z</time>
      </trkpt>
      <trkpt lat="45.5362" lon="6.80691">
        <ele>2125.13</ele>
        <time>2013-03-04T13:03:52Z</time>
      </trkpt>
      <trkpt lat="45.53618" lon="6.80692">
        <ele>2125.13</ele>
        <time>2013-03-04T13:03:55Z</time>
      </trkpt>
      <trkpt lat="45.53616" lon="6.80693">
        <ele>2125.13</ele>
        <time>2013-03-04T13:03:57Z</time>
      </trkpt>
      <trkpt lat="45.53614" lon="6.80693">
        <ele>2125.13</ele>
        <time>2013-03-04T13:03:59Z</time>
      </trkpt>
      <trkpt lat="45.53607" lon="6.80697">
        <ele>2128.02</ele>
        <time>2013-03-04T13:04:09Z</time>
      </trkpt>
      <trkpt lat="45.53603" lon="6.807">
        <ele>2129.46</ele>
        <time>2013-03-04T13:04:21Z</time>
      </trkpt>
      <trkpt lat="45.53602" lon="6.807">
        <ele>2130.9</ele>
        <time>2013-03-04T13:04:44Z</time>
      </trkpt>
      <trkpt lat="45.53602" lon="6.80701">
        <ele>2129.94</ele>
        <time>2013-03-04T13:05:12Z</time>
      </trkpt>
      <trkpt lat="45.53598" lon="6.80705">
        <ele>2130.42</ele>
        <time>2013-03-04T13:05:27Z</time>
      </trkpt>
      <trkpt lat="45.53593" lon="6.80712">
        <ele>2131.38</ele>
        <time>2013-03-04T13:05:38Z</time>
      </trkpt>
      <trkpt lat="45.53588" lon="6.8072">
        <ele>2133.3</ele>
        <time>2013-03-04T13:05:48Z</time>
      </trkpt>
      <trkpt lat="45.53587" lon="6.80721">
        <ele>2133.3</ele>
        <time>2013-03-04T13:06:02Z</time>
      </trkpt>
      <trkpt lat="45.53588" lon="6.80721">
        <ele>2133.3</ele>
        <time>2013-03-04T13:06:20Z</time>
      </trkpt>
      <trkpt lat="45.53595" lon="6.80724">
        <ele>2133.78</ele>
        <time>2013-03-04T13:06:28Z</time>
      </trkpt>
      <trkpt lat="45.53596" lon="6.80725">
        <ele>2132.82</ele>
        <time>2013-03-04T13:06:39Z</time>
      </trkpt>
      <trkpt lat="45.53596" lon="6.80724">
        <ele>2132.34</ele>
        <time>2013-03-04T13:06:58Z</time>
      </trkpt>
      <trkpt lat="45.53596" lon="6.80725">
        <ele>2132.82</ele>
        <time>2013-03-04T13:07:17Z</time>
      </trkpt>
      <trkpt lat="45.53598" lon="6.80725">
        <ele>2133.3</ele>
        <time>2013-03-04T13:07:19Z</time>
      </trkpt>
      <trkpt lat="45.53608" lon="6.80727">
        <ele>2136.19</ele>
        <time>2013-03-04T13:07:29Z</time>
      </trkpt>
      <trkpt lat="45.53609" lon="6.80728">
        <ele>2136.67</ele>
        <time>2013-03-04T13:07:31Z</time>
      </trkpt>
      <trkpt lat="45.53617" lon="6.80733">
        <ele>2137.63</ele>
        <time>2013-03-04T13:07:42Z</time>
      </trkpt>
      <trkpt lat="45.53618" lon="6.80733">
        <ele>2138.11</ele>
        <time>2013-03-04T13:07:43Z</time>
      </trkpt>
      <trkpt lat="45.53624" lon="6.80736">
        <ele>2139.55</ele>
        <time>2013-03-04T13:07:56Z</time>
      </trkpt>
      <trkpt lat="45.53624" lon="6.80735">
        <ele>2140.03</ele>
        <time>2013-03-04T13:08:12Z</time>
      </trkpt>
      <trkpt lat="45.53623" lon="6.80734">
        <ele>2139.55</ele>
        <time>2013-03-04T13:08:30Z</time>
      </trkpt>
      <trkpt lat="45.53622" lon="6.80734">
        <ele>2139.55</ele>
        <time>2013-03-04T13:08:32Z</time>
      </trkpt>
      <trkpt lat="45.53616" lon="6.80736">
        <ele>2139.55</ele>
        <time>2013-03-04T13:08:39Z</time>
      </trkpt>
      <trkpt lat="45.53609" lon="6.80741">
        <ele>2140.51</ele>
        <time>2013-03-04T13:08:48Z</time>
      </trkpt>
      <trkpt lat="45.53608" lon="6.80741">
        <ele>2140.51</ele>
        <time>2013-03-04T13:08:49Z</time>
      </trkpt>
      <trkpt lat="45.536" lon="6.80752">
        <ele>2144.36</ele>
        <time>2013-03-04T13:09:00Z</time>
      </trkpt>
      <trkpt lat="45.53598" lon="6.80751">
        <ele>2146.76</ele>
        <time>2013-03-04T13:09:27Z</time>
      </trkpt>
      <trkpt lat="45.53598" lon="6.80756">
        <ele>2147.24</ele>
        <time>2013-03-04T13:09:39Z</time>
      </trkpt>
      <trkpt lat="45.536" lon="6.80755">
        <ele>2147.24</ele>
        <time>2013-03-04T13:09:41Z</time>
      </trkpt>
      <trkpt lat="45.53609" lon="6.80757">
        <ele>2147.24</ele>
        <time>2013-03-04T13:09:50Z</time>
      </trkpt>
      <trkpt lat="45.5361" lon="6.80756">
        <ele>2147.24</ele>
        <time>2013-03-04T13:09:54Z</time>
      </trkpt>
      <trkpt lat="45.53616" lon="6.80757">
        <ele>2147.24</ele>
        <time>2013-03-04T13:09:59Z</time>
      </trkpt>
      <trkpt lat="45.53625" lon="6.80759">
        <ele>2147.72</ele>
        <time>2013-03-04T13:10:09Z</time>
      </trkpt>
      <trkpt lat="45.53624" lon="6.80761">
        <ele>2147.72</ele>
        <time>2013-03-04T13:10:31Z</time>
      </trkpt>
      <trkpt lat="45.53625" lon="6.80763">
        <ele>2147.24</ele>
        <time>2013-03-04T13:10:46Z</time>
      </trkpt>
      <trkpt lat="45.53629" lon="6.80768">
        <ele>2147.72</ele>
        <time>2013-03-04T13:10:53Z</time>
      </trkpt>
      <trkpt lat="45.53633" lon="6.80772">
        <ele>2149.65</ele>
        <time>2013-03-04T13:11:01Z</time>
      </trkpt>
      <trkpt lat="45.53636" lon="6.80775">
        <ele>2150.13</ele>
        <time>2013-03-04T13:11:09Z</time>
      </trkpt>
      <trkpt lat="45.53635" lon="6.80776">
        <ele>2150.13</ele>
        <time>2013-03-04T13:11:31Z</time>
      </trkpt>
      <trkpt lat="45.53634" lon="6.80775">
        <ele>2149.65</ele>
        <time>2013-03-04T13:11:56Z</time>
      </trkpt>
      <trkpt lat="45.53634" lon="6.80772">
        <ele>2149.16</ele>
        <time>2013-03-04T13:12:14Z</time>
      </trkpt>
      <trkpt lat="45.53635" lon="6.80772">
        <ele>2150.13</ele>
        <time>2013-03-04T13:12:29Z</time>
      </trkpt>
      <trkpt lat="45.53635" lon="6.80772">
        <ele>2150.13</ele>
        <time>2013-03-04T13:12:35Z</time>
      </trkpt>
      <trkpt lat="45.53635" lon="6.80773">
        <ele>2151.09</ele>
        <time>2013-03-04T13:12:45Z</time>
      </trkpt>
      <trkpt lat="45.53635" lon="6.80773">
        <ele>2151.09</ele>
        <time>2013-03-04T13:13:06Z</time>
      </trkpt>
      <trkpt lat="45.53634" lon="6.80774">
        <ele>2151.57</ele>
        <time>2013-03-04T13:13:29Z</time>
      </trkpt>
      <trkpt lat="45.53634" lon="6.80774">
        <ele>2152.05</ele>
        <time>2013-03-04T13:13:48Z</time>
      </trkpt>
      <trkpt lat="45.53634" lon="6.80774">
        <ele>2152.05</ele>
        <time>2013-03-04T13:14:13Z</time>
      </trkpt>
      <trkpt lat="45.53634" lon="6.80774">
        <ele>2152.05</ele>
        <time>2013-03-04T13:14:37Z</time>
      </trkpt>
      <trkpt lat="45.53634" lon="6.80775">
        <ele>2152.53</ele>
        <time>2013-03-04T13:15:05Z</time>
      </trkpt>
      <trkpt lat="45.53635" lon="6.80775">
        <ele>2152.53</ele>
        <time>2013-03-04T13:15:23Z</time>
      </trkpt>
      <trkpt lat="45.53637" lon="6.80777">
        <ele>2152.53</ele>
        <time>2013-03-04T13:15:26Z</time>
      </trkpt>
      <trkpt lat="45.53637" lon="6.80783">
        <ele>2152.53</ele>
        <time>2013-03-04T13:15:35Z</time>
      </trkpt>
      <trkpt lat="45.53638" lon="6.80785">
        <ele>2153.01</ele>
        <time>2013-03-04T13:15:44Z</time>
      </trkpt>
      <trkpt lat="45.5364" lon="6.80787">
        <ele>2153.01</ele>
        <time>2013-03-04T13:15:59Z</time>
      </trkpt>
      <trkpt lat="45.53641" lon="6.80793">
        <ele>2153.97</ele>
        <time>2013-03-04T13:16:06Z</time>
      </trkpt>
      <trkpt lat="45.53641" lon="6.80795">
        <ele>2153.97</ele>
        <time>2013-03-04T13:16:13Z</time>
      </trkpt>
      <trkpt lat="45.53642" lon="6.80797">
        <ele>2154.45</ele>
        <time>2013-03-04T13:16:17Z</time>
      </trkpt>
      <trkpt lat="45.53642" lon="6.80799">
        <ele>2154.93</ele>
        <time>2013-03-04T13:16:21Z</time>
      </trkpt>
      <trkpt lat="45.53642" lon="6.80803">
        <ele>2154.93</ele>
        <time>2013-03-04T13:16:24Z</time>
      </trkpt>
      <trkpt lat="45.53643" lon="6.80808">
        <ele>2154.93</ele>
        <time>2013-03-04T13:16:31Z</time>
      </trkpt>
      <trkpt lat="45.53644" lon="6.80812">
        <ele>2154.45</ele>
        <time>2013-03-04T13:16:44Z</time>
      </trkpt>
      <trkpt lat="45.53645" lon="6.80817">
        <ele>2154.93</ele>
        <time>2013-03-04T13:16:51Z</time>
      </trkpt>
      <trkpt lat="45.53644" lon="6.80822">
        <ele>2156.37</ele>
        <time>2013-03-04T13:17:01Z</time>
      </trkpt>
      <trkpt lat="45.53644" lon="6.80824">
        <ele>2156.86</ele>
        <time>2013-03-04T13:17:26Z</time>
      </trkpt>
      <trkpt lat="45.53644" lon="6.80829">
        <ele>2158.3</ele>
        <time>2013-03-04T13:17:34Z</time>
      </trkpt>
      <trkpt lat="45.53645" lon="6.80835">
        <ele>2160.7</ele>
        <time>2013-03-04T13:17:41Z</time>
      </trkpt>
      <trkpt lat="45.53646" lon="6.80843">
        <ele>2162.14</ele>
        <time>2013-03-04T13:17:49Z</time>
      </trkpt>
      <trkpt lat="45.53647" lon="6.80846">
        <ele>2163.58</ele>
        <time>2013-03-04T13:17:57Z</time>
      </trkpt>
      <trkpt lat="45.53651" lon="6.8085">
        <ele>2164.55</ele>
        <time>2013-03-04T13:18:03Z</time>
      </trkpt>
      <trkpt lat="45.53656" lon="6.80853">
        <ele>2166.95</ele>
        <time>2013-03-04T13:18:12Z</time>
      </trkpt>
      <trkpt lat="45.53656" lon="6.80855">
        <ele>2165.99</ele>
        <time>2013-03-04T13:18:29Z</time>
      </trkpt>
      <trkpt lat="45.53657" lon="6.80854">
        <ele>2165.99</ele>
        <time>2013-03-04T13:18:50Z</time>
      </trkpt>
      <trkpt lat="45.53656" lon="6.80855">
        <ele>2164.06</ele>
        <time>2013-03-04T13:19:15Z</time>
      </trkpt>
      <trkpt lat="45.53656" lon="6.80857">
        <ele>2164.06</ele>
        <time>2013-03-04T13:19:17Z</time>
      </trkpt>
      <trkpt lat="45.53655" lon="6.80863">
        <ele>2165.99</ele>
        <time>2013-03-04T13:19:24Z</time>
      </trkpt>
      <trkpt lat="45.53655" lon="6.80871">
        <ele>2167.91</ele>
        <time>2013-03-04T13:19:32Z</time>
      </trkpt>
      <trkpt lat="45.53655" lon="6.80873">
        <ele>2168.39</ele>
        <time>2013-03-04T13:19:35Z</time>
      </trkpt>
      <trkpt lat="45.53655" lon="6.80878">
        <ele>2169.35</ele>
        <time>2013-03-04T13:19:43Z</time>
      </trkpt>
      <trkpt lat="45.53656" lon="6.80879">
        <ele>2169.35</ele>
        <time>2013-03-04T13:19:45Z</time>
      </trkpt>
      <trkpt lat="45.53661" lon="6.80882">
        <ele>2171.27</ele>
        <time>2013-03-04T13:19:53Z</time>
      </trkpt>
      <trkpt lat="45.53662" lon="6.80884">
        <ele>2171.27</ele>
        <time>2013-03-04T13:20:12Z</time>
      </trkpt>
      <trkpt lat="45.53666" lon="6.80888">
        <ele>2173.68</ele>
        <time>2013-03-04T13:20:20Z</time>
      </trkpt>
      <trkpt lat="45.5367" lon="6.80889">
        <ele>2175.12</ele>
        <time>2013-03-04T13:20:28Z</time>
      </trkpt>
      <trkpt lat="45.53671" lon="6.80891">
        <ele>2176.56</ele>
        <time>2013-03-04T13:20:39Z</time>
      </trkpt>
      <trkpt lat="45.53671" lon="6.80894">
        <ele>2177.52</ele>
        <time>2013-03-04T13:20:46Z</time>
      </trkpt>
      <trkpt lat="45.53671" lon="6.80896">
        <ele>2177.52</ele>
        <time>2013-03-04T13:20:49Z</time>
      </trkpt>
      <trkpt lat="45.5367" lon="6.80903">
        <ele>2178</ele>
        <time>2013-03-04T13:20:57Z</time>
      </trkpt>
      <trkpt lat="45.5367" lon="6.80904">
        <ele>2178.48</ele>
        <time>2013-03-04T13:21:12Z</time>
      </trkpt>
      <trkpt lat="45.5367" lon="6.80905">
        <ele>2178</ele>
        <time>2013-03-04T13:21:33Z</time>
      </trkpt>
      <trkpt lat="45.5367" lon="6.80905">
        <ele>2178</ele>
        <time>2013-03-04T13:21:56Z</time>
      </trkpt>
      <trkpt lat="45.53671" lon="6.8091">
        <ele>2178.48</ele>
        <time>2013-03-04T13:22:02Z</time>
      </trkpt>
      <trkpt lat="45.53671" lon="6.80913">
        <ele>2179.93</ele>
        <time>2013-03-04T13:22:05Z</time>
      </trkpt>
      <trkpt lat="45.53672" lon="6.80923">
        <ele>2180.89</ele>
        <time>2013-03-04T13:22:12Z</time>
      </trkpt>
      <trkpt lat="45.53672" lon="6.80924">
        <ele>2180.41</ele>
        <time>2013-03-04T13:22:21Z</time>
      </trkpt>
      <trkpt lat="45.53671" lon="6.80925">
        <ele>2179.93</ele>
        <time>2013-03-04T13:22:32Z</time>
      </trkpt>
      <trkpt lat="45.53672" lon="6.80925">
        <ele>2179.93</ele>
        <time>2013-03-04T13:22:50Z</time>
      </trkpt>
      <trkpt lat="45.53673" lon="6.8093">
        <ele>2179.93</ele>
        <time>2013-03-04T13:22:58Z</time>
      </trkpt>
      <trkpt lat="45.53673" lon="6.80936">
        <ele>2179.93</ele>
        <time>2013-03-04T13:23:04Z</time>
      </trkpt>
      <trkpt lat="45.5367" lon="6.80948">
        <ele>2181.37</ele>
        <time>2013-03-04T13:23:12Z</time>
      </trkpt>
      <trkpt lat="45.53669" lon="6.80952">
        <ele>2181.37</ele>
        <time>2013-03-04T13:23:14Z</time>
      </trkpt>
      <trkpt lat="45.53667" lon="6.80958">
        <ele>2182.81</ele>
        <time>2013-03-04T13:23:22Z</time>
      </trkpt>
      <trkpt lat="45.53667" lon="6.80966">
        <ele>2182.81</ele>
        <time>2013-03-04T13:23:30Z</time>
      </trkpt>
      <trkpt lat="45.53666" lon="6.80971">
        <ele>2182.81</ele>
        <time>2013-03-04T13:23:40Z</time>
      </trkpt>
      <trkpt lat="45.53666" lon="6.80974">
        <ele>2182.81</ele>
        <time>2013-03-04T13:23:57Z</time>
      </trkpt>
      <trkpt lat="45.53664" lon="6.8098">
        <ele>2183.29</ele>
        <time>2013-03-04T13:24:04Z</time>
      </trkpt>
      <trkpt lat="45.53664" lon="6.80981">
        <ele>2184.73</ele>
        <time>2013-03-04T13:24:13Z</time>
      </trkpt>
      <trkpt lat="45.53668" lon="6.80978">
        <ele>2186.66</ele>
        <time>2013-03-04T13:24:20Z</time>
      </trkpt>
      <trkpt lat="45.53669" lon="6.80975">
        <ele>2187.62</ele>
        <time>2013-03-04T13:24:27Z</time>
      </trkpt>
      <trkpt lat="45.53674" lon="6.8097">
        <ele>2189.54</ele>
        <time>2013-03-04T13:24:34Z</time>
      </trkpt>
      <trkpt lat="45.53676" lon="6.80968">
        <ele>2190.5</ele>
        <time>2013-03-04T13:24:42Z</time>
      </trkpt>
      <trkpt lat="45.53676" lon="6.80967">
        <ele>2190.98</ele>
        <time>2013-03-04T13:24:51Z</time>
      </trkpt>
      <trkpt lat="45.53678" lon="6.80967">
        <ele>2190.98</ele>
        <time>2013-03-04T13:25:00Z</time>
      </trkpt>
      <trkpt lat="45.53678" lon="6.80967">
        <ele>2190.98</ele>
        <time>2013-03-04T13:25:13Z</time>
      </trkpt>
      <trkpt lat="45.53678" lon="6.80968">
        <ele>2190.98</ele>
        <time>2013-03-04T13:25:17Z</time>
      </trkpt>
      <trkpt lat="45.53677" lon="6.80978">
        <ele>2190.5</ele>
        <time>2013-03-04T13:25:26Z</time>
      </trkpt>
      <trkpt lat="45.53675" lon="6.80985">
        <ele>2188.58</ele>
        <time>2013-03-04T13:25:34Z</time>
      </trkpt>
      <trkpt lat="45.53674" lon="6.80987">
        <ele>2189.06</ele>
        <time>2013-03-04T13:25:45Z</time>
      </trkpt>
      <trkpt lat="45.53674" lon="6.8099">
        <ele>2190.02</ele>
        <time>2013-03-04T13:25:58Z</time>
      </trkpt>
      <trkpt lat="45.53674" lon="6.80995">
        <ele>2190.02</ele>
        <time>2013-03-04T13:26:07Z</time>
      </trkpt>
      <trkpt lat="45.53673" lon="6.80996">
        <ele>2190.02</ele>
        <time>2013-03-04T13:26:33Z</time>
      </trkpt>
      <trkpt lat="45.53672" lon="6.80998">
        <ele>2190.5</ele>
        <time>2013-03-04T13:26:41Z</time>
      </trkpt>
      <trkpt lat="45.53674" lon="6.80998">
        <ele>2190.5</ele>
        <time>2013-03-04T13:27:01Z</time>
      </trkpt>
      <trkpt lat="45.53673" lon="6.81">
        <ele>2190.02</ele>
        <time>2013-03-04T13:27:22Z</time>
      </trkpt>
      <trkpt lat="45.53673" lon="6.80999">
        <ele>2190.5</ele>
        <time>2013-03-04T13:27:45Z</time>
      </trkpt>
      <trkpt lat="45.53672" lon="6.80999">
        <ele>2190.98</ele>
        <time>2013-03-04T13:28:08Z</time>
      </trkpt>
      <trkpt lat="45.53672" lon="6.81">
        <ele>2190.98</ele>
        <time>2013-03-04T13:28:32Z</time>
      </trkpt>
      <trkpt lat="45.53672" lon="6.81">
        <ele>2191.46</ele>
        <time>2013-03-04T13:28:55Z</time>
      </trkpt>
      <trkpt lat="45.53673" lon="6.81">
        <ele>2191.46</ele>
        <time>2013-03-04T13:29:20Z</time>
      </trkpt>
      <trkpt lat="45.53673" lon="6.81001">
        <ele>2191.94</ele>
        <time>2013-03-04T13:29:41Z</time>
      </trkpt>
      <trkpt lat="45.53672" lon="6.81005">
        <ele>2191.94</ele>
        <time>2013-03-04T13:29:57Z</time>
      </trkpt>
      <trkpt lat="45.53672" lon="6.81009">
        <ele>2191.94</ele>
        <time>2013-03-04T13:30:07Z</time>
      </trkpt>
      <trkpt lat="45.53672" lon="6.81013">
        <ele>2192.9</ele>
        <time>2013-03-04T13:30:13Z</time>
      </trkpt>
      <trkpt lat="45.53671" lon="6.81022">
        <ele>2194.35</ele>
        <time>2013-03-04T13:30:20Z</time>
      </trkpt>
      <trkpt lat="45.53672" lon="6.81024">
        <ele>2195.79</ele>
        <time>2013-03-04T13:30:30Z</time>
      </trkpt>
      <trkpt lat="45.53673" lon="6.81021">
        <ele>2197.71</ele>
        <time>2013-03-04T13:30:36Z</time>
      </trkpt>
      <trkpt lat="45.53675" lon="6.81017">
        <ele>2200.11</ele>
        <time>2013-03-04T13:30:42Z</time>
      </trkpt>
      <trkpt lat="45.53679" lon="6.8101">
        <ele>2202.52</ele>
        <time>2013-03-04T13:30:49Z</time>
      </trkpt>
      <trkpt lat="45.53683" lon="6.81003">
        <ele>2205.88</ele>
        <time>2013-03-04T13:30:57Z</time>
      </trkpt>
      <trkpt lat="45.53685" lon="6.81001">
        <ele>2207.32</ele>
        <time>2013-03-04T13:31:07Z</time>
      </trkpt>
      <trkpt lat="45.53685" lon="6.81">
        <ele>2207.81</ele>
        <time>2013-03-04T13:31:26Z</time>
      </trkpt>
      <trkpt lat="45.53688" lon="6.80995">
        <ele>2207.81</ele>
        <time>2013-03-04T13:31:39Z</time>
      </trkpt>
      <trkpt lat="45.53689" lon="6.80996">
        <ele>2207.32</ele>
        <time>2013-03-04T13:31:48Z</time>
      </trkpt>
      <trkpt lat="45.53689" lon="6.80996">
        <ele>2207.81</ele>
        <time>2013-03-04T13:31:55Z</time>
      </trkpt>
      <trkpt lat="45.5369" lon="6.81006">
        <ele>2206.36</ele>
        <time>2013-03-04T13:32:03Z</time>
      </trkpt>
      <trkpt lat="45.53691" lon="6.81013">
        <ele>2205.88</ele>
        <time>2013-03-04T13:32:10Z</time>
      </trkpt>
      <trkpt lat="45.5369" lon="6.81017">
        <ele>2205.4</ele>
        <time>2013-03-04T13:32:17Z</time>
      </trkpt>
      <trkpt lat="45.5369" lon="6.81024">
        <ele>2204.92</ele>
        <time>2013-03-04T13:32:24Z</time>
      </trkpt>
      <trkpt lat="45.53691" lon="6.81026">
        <ele>2204.44</ele>
        <time>2013-03-04T13:32:35Z</time>
      </trkpt>
      <trkpt lat="45.5369" lon="6.81027">
        <ele>2203.96</ele>
        <time>2013-03-04T13:32:45Z</time>
      </trkpt>
      <trkpt lat="45.53692" lon="6.81028">
        <ele>2203.96</ele>
        <time>2013-03-04T13:32:50Z</time>
      </trkpt>
      <trkpt lat="45.53695" lon="6.81025">
        <ele>2204.92</ele>
        <time>2013-03-04T13:32:57Z</time>
      </trkpt>
      <trkpt lat="45.53696" lon="6.81024">
        <ele>2205.88</ele>
        <time>2013-03-04T13:32:59Z</time>
      </trkpt>
      <trkpt lat="45.53695" lon="6.8102">
        <ele>2205.88</ele>
        <time>2013-03-04T13:33:06Z</time>
      </trkpt>
      <trkpt lat="45.53696" lon="6.81017">
        <ele>2205.88</ele>
        <time>2013-03-04T13:33:11Z</time>
      </trkpt>
      <trkpt lat="45.537" lon="6.81009">
        <ele>2207.81</ele>
        <time>2013-03-04T13:33:18Z</time>
      </trkpt>
      <trkpt lat="45.53702" lon="6.81005">
        <ele>2208.77</ele>
        <time>2013-03-04T13:33:28Z</time>
      </trkpt>
      <trkpt lat="45.53705" lon="6.81009">
        <ele>2208.77</ele>
        <time>2013-03-04T13:33:36Z</time>
      </trkpt>
      <trkpt lat="45.53704" lon="6.8101">
        <ele>2208.77</ele>
        <time>2013-03-04T13:33:37Z</time>
      </trkpt>
      <trkpt lat="45.53705" lon="6.81012">
        <ele>2209.25</ele>
        <time>2013-03-04T13:33:39Z</time>
      </trkpt>
      <trkpt lat="45.53707" lon="6.81017">
        <ele>2209.73</ele>
        <time>2013-03-04T13:33:44Z</time>
      </trkpt>
      <trkpt lat="45.53708" lon="6.81019">
        <ele>2209.73</ele>
        <time>2013-03-04T13:33:56Z</time>
      </trkpt>
      <trkpt lat="45.53708" lon="6.81019">
        <ele>2210.21</ele>
        <time>2013-03-04T13:34:12Z</time>
      </trkpt>
      <trkpt lat="45.53711" lon="6.81021">
        <ele>2210.21</ele>
        <time>2013-03-04T13:34:24Z</time>
      </trkpt>
      <trkpt lat="45.5371" lon="6.81026">
        <ele>2212.13</ele>
        <time>2013-03-04T13:34:32Z</time>
      </trkpt>
      <trkpt lat="45.5371" lon="6.81027">
        <ele>2212.13</ele>
        <time>2013-03-04T13:34:33Z</time>
      </trkpt>
      <trkpt lat="45.53714" lon="6.81024">
        <ele>2212.61</ele>
        <time>2013-03-04T13:34:40Z</time>
      </trkpt>
      <trkpt lat="45.53714" lon="6.81024">
        <ele>2213.09</ele>
        <time>2013-03-04T13:34:42Z</time>
      </trkpt>
      <trkpt lat="45.53719" lon="6.8102">
        <ele>2214.53</ele>
        <time>2013-03-04T13:34:49Z</time>
      </trkpt>
      <trkpt lat="45.5372" lon="6.81016">
        <ele>2215.98</ele>
        <time>2013-03-04T13:34:54Z</time>
      </trkpt>
      <trkpt lat="45.5372" lon="6.81015">
        <ele>2216.46</ele>
        <time>2013-03-04T13:35:05Z</time>
      </trkpt>
      <trkpt lat="45.53722" lon="6.81017">
        <ele>2216.46</ele>
        <time>2013-03-04T13:35:14Z</time>
      </trkpt>
      <trkpt lat="45.53722" lon="6.81024">
        <ele>2216.94</ele>
        <time>2013-03-04T13:35:22Z</time>
      </trkpt>
      <trkpt lat="45.53722" lon="6.81028">
        <ele>2215.98</ele>
        <time>2013-03-04T13:35:27Z</time>
      </trkpt>
      <trkpt lat="45.53722" lon="6.81034">
        <ele>2215.5</ele>
        <time>2013-03-04T13:35:34Z</time>
      </trkpt>
      <trkpt lat="45.53723" lon="6.81038">
        <ele>2215.5</ele>
        <time>2013-03-04T13:35:45Z</time>
      </trkpt>
      <trkpt lat="45.53723" lon="6.81039">
        <ele>2215.98</ele>
        <time>2013-03-04T13:36:07Z</time>
      </trkpt>
      <trkpt lat="45.53723" lon="6.81042">
        <ele>2215.98</ele>
        <time>2013-03-04T13:36:09Z</time>
      </trkpt>
      <trkpt lat="45.53723" lon="6.81051">
        <ele>2216.46</ele>
        <time>2013-03-04T13:36:17Z</time>
      </trkpt>
      <trkpt lat="45.53723" lon="6.81058">
        <ele>2216.94</ele>
        <time>2013-03-04T13:36:24Z</time>
      </trkpt>
      <trkpt lat="45.53723" lon="6.81059">
        <ele>2217.42</ele>
        <time>2013-03-04T13:36:36Z</time>
      </trkpt>
      <trkpt lat="45.53722" lon="6.8106">
        <ele>2218.38</ele>
        <time>2013-03-04T13:36:44Z</time>
      </trkpt>
      <trkpt lat="45.53725" lon="6.81056">
        <ele>2220.3</ele>
        <time>2013-03-04T13:36:51Z</time>
      </trkpt>
      <trkpt lat="45.53726" lon="6.81054">
        <ele>2220.78</ele>
        <time>2013-03-04T13:36:53Z</time>
      </trkpt>
      <trkpt lat="45.53729" lon="6.81048">
        <ele>2221.74</ele>
        <time>2013-03-04T13:37:00Z</time>
      </trkpt>
      <trkpt lat="45.5373" lon="6.81047">
        <ele>2222.71</ele>
        <time>2013-03-04T13:37:18Z</time>
      </trkpt>
      <trkpt lat="45.5373" lon="6.81046">
        <ele>2223.19</ele>
        <time>2013-03-04T13:37:34Z</time>
      </trkpt>
      <trkpt lat="45.53732" lon="6.81041">
        <ele>2223.19</ele>
        <time>2013-03-04T13:37:41Z</time>
      </trkpt>
      <trkpt lat="45.53732" lon="6.81041">
        <ele>2223.19</ele>
        <time>2013-03-04T13:37:54Z</time>
      </trkpt>
      <trkpt lat="45.53732" lon="6.81041">
        <ele>2222.71</ele>
        <time>2013-03-04T13:38:06Z</time>
      </trkpt>
      <trkpt lat="45.53732" lon="6.81041">
        <ele>2222.71</ele>
        <time>2013-03-04T13:38:25Z</time>
      </trkpt>
      <trkpt lat="45.53733" lon="6.81044">
        <ele>2222.71</ele>
        <time>2013-03-04T13:38:37Z</time>
      </trkpt>
      <trkpt lat="45.53733" lon="6.81046">
        <ele>2222.71</ele>
        <time>2013-03-04T13:38:45Z</time>
      </trkpt>
      <trkpt lat="45.53733" lon="6.81055">
        <ele>2222.71</ele>
        <time>2013-03-04T13:38:53Z</time>
      </trkpt>
      <trkpt lat="45.53734" lon="6.81061">
        <ele>2223.67</ele>
        <time>2013-03-04T13:39:04Z</time>
      </trkpt>
      <trkpt lat="45.53735" lon="6.81065">
        <ele>2223.19</ele>
        <time>2013-03-04T13:39:20Z</time>
      </trkpt>
      <trkpt lat="45.53736" lon="6.81072">
        <ele>2224.15</ele>
        <time>2013-03-04T13:39:27Z</time>
      </trkpt>
      <trkpt lat="45.53735" lon="6.81073">
        <ele>2223.67</ele>
        <time>2013-03-04T13:39:39Z</time>
      </trkpt>
      <trkpt lat="45.53736" lon="6.81073">
        <ele>2224.15</ele>
        <time>2013-03-04T13:39:59Z</time>
      </trkpt>
      <trkpt lat="45.53735" lon="6.81077">
        <ele>2223.67</ele>
        <time>2013-03-04T13:40:09Z</time>
      </trkpt>
      <trkpt lat="45.53735" lon="6.81077">
        <ele>2224.63</ele>
        <time>2013-03-04T13:40:34Z</time>
      </trkpt>
      <trkpt lat="45.53735" lon="6.81077">
        <ele>2226.07</ele>
        <time>2013-03-04T13:40:51Z</time>
      </trkpt>
      <trkpt lat="45.53735" lon="6.81077">
        <ele>2225.59</ele>
        <time>2013-03-04T13:41:13Z</time>
      </trkpt>
      <trkpt lat="45.53735" lon="6.81077">
        <ele>2225.59</ele>
        <time>2013-03-04T13:41:32Z</time>
      </trkpt>
      <trkpt lat="45.53735" lon="6.81078">
        <ele>2225.59</ele>
        <time>2013-03-04T13:41:53Z</time>
      </trkpt>
      <trkpt lat="45.53737" lon="6.8108">
        <ele>2226.07</ele>
        <time>2013-03-04T13:42:13Z</time>
      </trkpt>
      <trkpt lat="45.53738" lon="6.81088">
        <ele>2225.59</ele>
        <time>2013-03-04T13:42:20Z</time>
      </trkpt>
      <trkpt lat="45.53743" lon="6.81094">
        <ele>2227.03</ele>
        <time>2013-03-04T13:42:27Z</time>
      </trkpt>
      <trkpt lat="45.53749" lon="6.81097">
        <ele>2228.47</ele>
        <time>2013-03-04T13:42:37Z</time>
      </trkpt>
      <trkpt lat="45.53751" lon="6.81095">
        <ele>2229.92</ele>
        <time>2013-03-04T13:42:43Z</time>
      </trkpt>
      <trkpt lat="45.53753" lon="6.81093">
        <ele>2231.36</ele>
        <time>2013-03-04T13:42:51Z</time>
      </trkpt>
      <trkpt lat="45.53753" lon="6.81093">
        <ele>2232.32</ele>
        <time>2013-03-04T13:43:09Z</time>
      </trkpt>
      <trkpt lat="45.53754" lon="6.81092">
        <ele>2232.8</ele>
        <time>2013-03-04T13:43:33Z</time>
      </trkpt>
      <trkpt lat="45.53754" lon="6.81092">
        <ele>2233.28</ele>
        <time>2013-03-04T13:43:45Z</time>
      </trkpt>
      <trkpt lat="45.53757" lon="6.81089">
        <ele>2233.28</ele>
        <time>2013-03-04T13:43:52Z</time>
      </trkpt>
      <trkpt lat="45.53758" lon="6.8109">
        <ele>2233.28</ele>
        <time>2013-03-04T13:43:55Z</time>
      </trkpt>
      <trkpt lat="45.53759" lon="6.81093">
        <ele>2233.76</ele>
        <time>2013-03-04T13:44:02Z</time>
      </trkpt>
      <trkpt lat="45.5376" lon="6.81093">
        <ele>2233.76</ele>
        <time>2013-03-04T13:44:08Z</time>
      </trkpt>
      <trkpt lat="45.53765" lon="6.81096">
        <ele>2235.2</ele>
        <time>2013-03-04T13:44:17Z</time>
      </trkpt>
      <trkpt lat="45.53766" lon="6.81096">
        <ele>2235.2</ele>
        <time>2013-03-04T13:44:19Z</time>
      </trkpt>
      <trkpt lat="45.53769" lon="6.81091">
        <ele>2237.61</ele>
        <time>2013-03-04T13:44:26Z</time>
      </trkpt>
      <trkpt lat="45.53771" lon="6.81085">
        <ele>2239.05</ele>
        <time>2013-03-04T13:44:33Z</time>
      </trkpt>
      <trkpt lat="45.53772" lon="6.81084">
        <ele>2240.01</ele>
        <time>2013-03-04T13:44:49Z</time>
      </trkpt>
      <trkpt lat="45.53772" lon="6.81084">
        <ele>2240.49</ele>
        <time>2013-03-04T13:45:07Z</time>
      </trkpt>
      <trkpt lat="45.53774" lon="6.81085">
        <ele>2240.97</ele>
        <time>2013-03-04T13:45:18Z</time>
      </trkpt>
      <trkpt lat="45.53779" lon="6.81087">
        <ele>2240.97</ele>
        <time>2013-03-04T13:45:26Z</time>
      </trkpt>
      <trkpt lat="45.53782" lon="6.81087">
        <ele>2241.45</ele>
        <time>2013-03-04T13:45:36Z</time>
      </trkpt>
      <trkpt lat="45.53783" lon="6.81088">
        <ele>2240.97</ele>
        <time>2013-03-04T13:46:02Z</time>
      </trkpt>
      <trkpt lat="45.53783" lon="6.81088">
        <ele>2241.45</ele>
        <time>2013-03-04T13:46:25Z</time>
      </trkpt>
      <trkpt lat="45.53786" lon="6.81091">
        <ele>2241.45</ele>
        <time>2013-03-04T13:46:48Z</time>
      </trkpt>
      <trkpt lat="45.53786" lon="6.81091">
        <ele>2241.45</ele>
        <time>2013-03-04T13:46:52Z</time>
      </trkpt>
      <trkpt lat="45.53792" lon="6.81096">
        <ele>2243.37</ele>
        <time>2013-03-04T13:47:02Z</time>
      </trkpt>
      <trkpt lat="45.53793" lon="6.81096">
        <ele>2242.89</ele>
        <time>2013-03-04T13:47:22Z</time>
      </trkpt>
      <trkpt lat="45.53793" lon="6.81097">
        <ele>2242.89</ele>
        <time>2013-03-04T13:47:38Z</time>
      </trkpt>
      <trkpt lat="45.53795" lon="6.811">
        <ele>2243.85</ele>
        <time>2013-03-04T13:47:41Z</time>
      </trkpt>
      <trkpt lat="45.53803" lon="6.81109">
        <ele>2245.78</ele>
        <time>2013-03-04T13:47:50Z</time>
      </trkpt>
      <trkpt lat="45.53807" lon="6.81114">
        <ele>2247.22</ele>
        <time>2013-03-04T13:47:58Z</time>
      </trkpt>
      <trkpt lat="45.53811" lon="6.81121">
        <ele>2249.14</ele>
        <time>2013-03-04T13:48:05Z</time>
      </trkpt>
      <trkpt lat="45.53813" lon="6.81124">
        <ele>2250.1</ele>
        <time>2013-03-04T13:48:13Z</time>
      </trkpt>
      <trkpt lat="45.53814" lon="6.81125">
        <ele>2250.1</ele>
        <time>2013-03-04T13:48:38Z</time>
      </trkpt>
      <trkpt lat="45.53814" lon="6.81125">
        <ele>2250.1</ele>
        <time>2013-03-04T13:48:42Z</time>
      </trkpt>
      <trkpt lat="45.53816" lon="6.81127">
        <ele>2250.58</ele>
        <time>2013-03-04T13:48:45Z</time>
      </trkpt>
      <trkpt lat="45.5382" lon="6.81134">
        <ele>2251.06</ele>
        <time>2013-03-04T13:48:53Z</time>
      </trkpt>
      <trkpt lat="45.53824" lon="6.81141">
        <ele>2251.54</ele>
        <time>2013-03-04T13:49:00Z</time>
      </trkpt>
      <trkpt lat="45.53828" lon="6.81148">
        <ele>2253.47</ele>
        <time>2013-03-04T13:49:07Z</time>
      </trkpt>
      <trkpt lat="45.5383" lon="6.81152">
        <ele>2254.43</ele>
        <time>2013-03-04T13:49:15Z</time>
      </trkpt>
      <trkpt lat="45.53831" lon="6.81152">
        <ele>2253.95</ele>
        <time>2013-03-04T13:49:38Z</time>
      </trkpt>
      <trkpt lat="45.53834" lon="6.81156">
        <ele>2254.91</ele>
        <time>2013-03-04T13:49:47Z</time>
      </trkpt>
      <trkpt lat="45.53835" lon="6.81158">
        <ele>2254.43</ele>
        <time>2013-03-04T13:50:04Z</time>
      </trkpt>
      <trkpt lat="45.53836" lon="6.81157">
        <ele>2254.91</ele>
        <time>2013-03-04T13:50:19Z</time>
      </trkpt>
      <trkpt lat="45.53835" lon="6.81157">
        <ele>2254.43</ele>
        <time>2013-03-04T13:50:32Z</time>
      </trkpt>
      <trkpt lat="45.53834" lon="6.81157">
        <ele>2255.39</ele>
        <time>2013-03-04T13:50:55Z</time>
      </trkpt>
      <trkpt lat="45.53834" lon="6.81157">
        <ele>2255.39</ele>
        <time>2013-03-04T13:51:17Z</time>
      </trkpt>
      <trkpt lat="45.53835" lon="6.81156">
        <ele>2255.39</ele>
        <time>2013-03-04T13:51:44Z</time>
      </trkpt>
      <trkpt lat="45.53835" lon="6.81156">
        <ele>2255.87</ele>
        <time>2013-03-04T13:52:07Z</time>
      </trkpt>
      <trkpt lat="45.53835" lon="6.81155">
        <ele>2256.35</ele>
        <time>2013-03-04T13:52:31Z</time>
      </trkpt>
      <trkpt lat="45.53835" lon="6.81155">
        <ele>2256.35</ele>
        <time>2013-03-04T13:52:57Z</time>
      </trkpt>
      <trkpt lat="45.53834" lon="6.81155">
        <ele>2256.35</ele>
        <time>2013-03-04T13:53:13Z</time>
      </trkpt>
      <trkpt lat="45.53834" lon="6.81155">
        <ele>2256.35</ele>
        <time>2013-03-04T13:53:26Z</time>
      </trkpt>
      <trkpt lat="45.53833" lon="6.81155">
        <ele>2256.35</ele>
        <time>2013-03-04T13:53:39Z</time>
      </trkpt>
      <trkpt lat="45.53833" lon="6.81155">
        <ele>2257.31</ele>
        <time>2013-03-04T13:53:52Z</time>
      </trkpt>
      <trkpt lat="45.53834" lon="6.81155">
        <ele>2257.79</ele>
        <time>2013-03-04T13:54:04Z</time>
      </trkpt>
      <trkpt lat="45.53835" lon="6.81156">
        <ele>2257.31</ele>
        <time>2013-03-04T13:54:15Z</time>
      </trkpt>
      <trkpt lat="45.53835" lon="6.81157">
        <ele>2256.83</ele>
        <time>2013-03-04T13:54:42Z</time>
      </trkpt>
      <trkpt lat="45.53836" lon="6.81157">
        <ele>2256.35</ele>
        <time>2013-03-04T13:54:51Z</time>
      </trkpt>
      <trkpt lat="45.53836" lon="6.81157">
        <ele>2256.35</ele>
        <time>2013-03-04T13:54:52Z</time>
      </trkpt>
      <trkpt lat="45.53835" lon="6.81156">
        <ele>2256.35</ele>
        <time>2013-03-04T13:55:00Z</time>
      </trkpt>
      <trkpt lat="45.53835" lon="6.81156">
        <ele>2256.35</ele>
        <time>2013-03-04T13:55:24Z</time>
      </trkpt>
      <trkpt lat="45.53835" lon="6.81155">
        <ele>2255.39</ele>
        <time>2013-03-04T13:55:33Z</time>
      </trkpt>
      <trkpt lat="45.53836" lon="6.81154">
        <ele>2255.39</ele>
        <time>2013-03-04T13:55:47Z</time>
      </trkpt>
      <trkpt lat="45.53836" lon="6.81155">
        <ele>2255.39</ele>
        <time>2013-03-04T13:56:04Z</time>
      </trkpt>
      <trkpt lat="45.53839" lon="6.81161">
        <ele>2255.39</ele>
        <time>2013-03-04T13:56:13Z</time>
      </trkpt>
      <trkpt lat="45.53843" lon="6.81168">
        <ele>2256.35</ele>
        <time>2013-03-04T13:56:21Z</time>
      </trkpt>
      <trkpt lat="45.53847" lon="6.81174">
        <ele>2258.27</ele>
        <time>2013-03-04T13:56:28Z</time>
      </trkpt>
      <trkpt lat="45.53849" lon="6.81175">
        <ele>2259.24</ele>
        <time>2013-03-04T13:56:39Z</time>
      </trkpt>
      <trkpt lat="45.5385" lon="6.81176">
        <ele>2259.24</ele>
        <time>2013-03-04T13:57:03Z</time>
      </trkpt>
      <trkpt lat="45.53854" lon="6.8118">
        <ele>2260.2</ele>
        <time>2013-03-04T13:57:09Z</time>
      </trkpt>
      <trkpt lat="45.53857" lon="6.81182">
        <ele>2261.16</ele>
        <time>2013-03-04T13:57:21Z</time>
      </trkpt>
      <trkpt lat="45.53861" lon="6.81184">
        <ele>2261.64</ele>
        <time>2013-03-04T13:57:43Z</time>
      </trkpt>
      <trkpt lat="45.53861" lon="6.81184">
        <ele>2261.16</ele>
        <time>2013-03-04T13:58:02Z</time>
      </trkpt>
      <trkpt lat="45.53866" lon="6.81188">
        <ele>2262.12</ele>
        <time>2013-03-04T13:58:09Z</time>
      </trkpt>
      <trkpt lat="45.53868" lon="6.81192">
        <ele>2262.6</ele>
        <time>2013-03-04T13:58:17Z</time>
      </trkpt>
      <trkpt lat="45.53867" lon="6.81195">
        <ele>2263.56</ele>
        <time>2013-03-04T13:58:22Z</time>
      </trkpt>
      <trkpt lat="45.53867" lon="6.812">
        <ele>2264.52</ele>
        <time>2013-03-04T13:58:29Z</time>
      </trkpt>
      <trkpt lat="45.53869" lon="6.81202">
        <ele>2265</ele>
        <time>2013-03-04T13:58:36Z</time>
      </trkpt>
      <trkpt lat="45.53871" lon="6.81204">
        <ele>2266.93</ele>
        <time>2013-03-04T13:58:46Z</time>
      </trkpt>
      <trkpt lat="45.53871" lon="6.81205">
        <ele>2267.41</ele>
        <time>2013-03-04T13:58:53Z</time>
      </trkpt>
      <trkpt lat="45.53871" lon="6.81205">
        <ele>2266.45</ele>
        <time>2013-03-04T13:59:01Z</time>
      </trkpt>
      <trkpt lat="45.53868" lon="6.81209">
        <ele>2267.41</ele>
        <time>2013-03-04T13:59:11Z</time>
      </trkpt>
      <trkpt lat="45.53866" lon="6.81215">
        <ele>2266.45</ele>
        <time>2013-03-04T13:59:18Z</time>
      </trkpt>
      <trkpt lat="45.53865" lon="6.81218">
        <ele>2265.48</ele>
        <time>2013-03-04T13:59:33Z</time>
      </trkpt>
      <trkpt lat="45.53865" lon="6.81223">
        <ele>2265</ele>
        <time>2013-03-04T13:59:40Z</time>
      </trkpt>
      <trkpt lat="45.53865" lon="6.81223">
        <ele>2265</ele>
        <time>2013-03-04T13:59:41Z</time>
      </trkpt>
      <trkpt lat="45.5387" lon="6.81226">
        <ele>2265.48</ele>
        <time>2013-03-04T13:59:49Z</time>
      </trkpt>
      <trkpt lat="45.53876" lon="6.81227">
        <ele>2265</ele>
        <time>2013-03-04T13:59:56Z</time>
      </trkpt>
      <trkpt lat="45.53878" lon="6.81228">
        <ele>2265</ele>
        <time>2013-03-04T14:00:06Z</time>
      </trkpt>
      <trkpt lat="45.5388" lon="6.81227">
        <ele>2265</ele>
        <time>2013-03-04T14:00:29Z</time>
      </trkpt>
      <trkpt lat="45.53884" lon="6.81229">
        <ele>2265.48</ele>
        <time>2013-03-04T14:00:41Z</time>
      </trkpt>
      <trkpt lat="45.53884" lon="6.8123">
        <ele>2266.45</ele>
        <time>2013-03-04T14:00:48Z</time>
      </trkpt>
      <trkpt lat="45.53881" lon="6.81235">
        <ele>2267.89</ele>
        <time>2013-03-04T14:00:56Z</time>
      </trkpt>
      <trkpt lat="45.53876" lon="6.81239">
        <ele>2270.29</ele>
        <time>2013-03-04T14:01:02Z</time>
      </trkpt>
      <trkpt lat="45.53874" lon="6.81247">
        <ele>2272.21</ele>
        <time>2013-03-04T14:01:10Z</time>
      </trkpt>
      <trkpt lat="45.53877" lon="6.81249">
        <ele>2273.66</ele>
        <time>2013-03-04T14:01:19Z</time>
      </trkpt>
      <trkpt lat="45.53878" lon="6.81249">
        <ele>2274.62</ele>
        <time>2013-03-04T14:01:40Z</time>
      </trkpt>
      <trkpt lat="45.53878" lon="6.8125">
        <ele>2276.06</ele>
        <time>2013-03-04T14:01:47Z</time>
      </trkpt>
      <trkpt lat="45.53886" lon="6.81249">
        <ele>2278.94</ele>
        <time>2013-03-04T14:01:55Z</time>
      </trkpt>
      <trkpt lat="45.5389" lon="6.81249">
        <ele>2279.42</ele>
        <time>2013-03-04T14:02:00Z</time>
      </trkpt>
      <trkpt lat="45.53895" lon="6.81249">
        <ele>2279.9</ele>
        <time>2013-03-04T14:02:09Z</time>
      </trkpt>
      <trkpt lat="45.53895" lon="6.8125">
        <ele>2279.9</ele>
        <time>2013-03-04T14:02:20Z</time>
      </trkpt>
      <trkpt lat="45.53893" lon="6.81253">
        <ele>2279.9</ele>
        <time>2013-03-04T14:02:28Z</time>
      </trkpt>
      <trkpt lat="45.53891" lon="6.8126">
        <ele>2279.42</ele>
        <time>2013-03-04T14:02:36Z</time>
      </trkpt>
      <trkpt lat="45.53889" lon="6.81263">
        <ele>2280.38</ele>
        <time>2013-03-04T14:02:42Z</time>
      </trkpt>
      <trkpt lat="45.53888" lon="6.81264">
        <ele>2280.38</ele>
        <time>2013-03-04T14:03:03Z</time>
      </trkpt>
      <trkpt lat="45.53886" lon="6.81269">
        <ele>2281.83</ele>
        <time>2013-03-04T14:03:16Z</time>
      </trkpt>
      <trkpt lat="45.53884" lon="6.81275">
        <ele>2281.83</ele>
        <time>2013-03-04T14:03:23Z</time>
      </trkpt>
      <trkpt lat="45.53884" lon="6.81278">
        <ele>2282.31</ele>
        <time>2013-03-04T14:03:31Z</time>
      </trkpt>
      <trkpt lat="45.53888" lon="6.81279">
        <ele>2284.23</ele>
        <time>2013-03-04T14:03:42Z</time>
      </trkpt>
      <trkpt lat="45.53888" lon="6.81278">
        <ele>2285.19</ele>
        <time>2013-03-04T14:03:59Z</time>
      </trkpt>
      <trkpt lat="45.53889" lon="6.8128">
        <ele>2287.11</ele>
        <time>2013-03-04T14:04:20Z</time>
      </trkpt>
      <trkpt lat="45.53894" lon="6.81278">
        <ele>2289.52</ele>
        <time>2013-03-04T14:04:31Z</time>
      </trkpt>
      <trkpt lat="45.53901" lon="6.81276">
        <ele>2290.48</ele>
        <time>2013-03-04T14:04:38Z</time>
      </trkpt>
      <trkpt lat="45.53905" lon="6.81276">
        <ele>2293.36</ele>
        <time>2013-03-04T14:04:51Z</time>
      </trkpt>
      <trkpt lat="45.53906" lon="6.81275">
        <ele>2293.36</ele>
        <time>2013-03-04T14:05:11Z</time>
      </trkpt>
      <trkpt lat="45.53907" lon="6.81275">
        <ele>2293.36</ele>
        <time>2013-03-04T14:05:23Z</time>
      </trkpt>
      <trkpt lat="45.53911" lon="6.81274">
        <ele>2292.88</ele>
        <time>2013-03-04T14:05:28Z</time>
      </trkpt>
      <trkpt lat="45.53916" lon="6.81273">
        <ele>2293.36</ele>
        <time>2013-03-04T14:05:35Z</time>
      </trkpt>
      <trkpt lat="45.53919" lon="6.81271">
        <ele>2294.32</ele>
        <time>2013-03-04T14:05:43Z</time>
      </trkpt>
      <trkpt lat="45.53923" lon="6.81268">
        <ele>2296.73</ele>
        <time>2013-03-04T14:05:50Z</time>
      </trkpt>
      <trkpt lat="45.53927" lon="6.81265">
        <ele>2298.65</ele>
        <time>2013-03-04T14:05:57Z</time>
      </trkpt>
      <trkpt lat="45.53928" lon="6.81264">
        <ele>2300.57</ele>
        <time>2013-03-04T14:06:09Z</time>
      </trkpt>
      <trkpt lat="45.53928" lon="6.81264">
        <ele>2302.01</ele>
        <time>2013-03-04T14:06:25Z</time>
      </trkpt>
      <trkpt lat="45.5393" lon="6.8126">
        <ele>2304.42</ele>
        <time>2013-03-04T14:06:41Z</time>
      </trkpt>
      <trkpt lat="45.53933" lon="6.81258">
        <ele>2304.9</ele>
        <time>2013-03-04T14:06:48Z</time>
      </trkpt>
      <trkpt lat="45.53937" lon="6.81256">
        <ele>2305.86</ele>
        <time>2013-03-04T14:06:54Z</time>
      </trkpt>
      <trkpt lat="45.53941" lon="6.81252">
        <ele>2305.86</ele>
        <time>2013-03-04T14:07:02Z</time>
      </trkpt>
      <trkpt lat="45.53942" lon="6.8125">
        <ele>2307.3</ele>
        <time>2013-03-04T14:07:11Z</time>
      </trkpt>
      <trkpt lat="45.53945" lon="6.81249">
        <ele>2308.74</ele>
        <time>2013-03-04T14:07:27Z</time>
      </trkpt>
      <trkpt lat="45.53948" lon="6.81245">
        <ele>2310.19</ele>
        <time>2013-03-04T14:07:34Z</time>
      </trkpt>
      <trkpt lat="45.5395" lon="6.81242">
        <ele>2310.19</ele>
        <time>2013-03-04T14:07:40Z</time>
      </trkpt>
      <trkpt lat="45.53953" lon="6.8124">
        <ele>2311.15</ele>
        <time>2013-03-04T14:07:46Z</time>
      </trkpt>
      <trkpt lat="45.53955" lon="6.81238">
        <ele>2311.15</ele>
        <time>2013-03-04T14:08:06Z</time>
      </trkpt>
      <trkpt lat="45.53956" lon="6.81237">
        <ele>2311.63</ele>
        <time>2013-03-04T14:08:15Z</time>
      </trkpt>
      <trkpt lat="45.53957" lon="6.81237">
        <ele>2311.15</ele>
        <time>2013-03-04T14:08:31Z</time>
      </trkpt>
      <trkpt lat="45.53957" lon="6.81239">
        <ele>2311.15</ele>
        <time>2013-03-04T14:08:40Z</time>
      </trkpt>
      <trkpt lat="45.53958" lon="6.81239">
        <ele>2311.15</ele>
        <time>2013-03-04T14:08:57Z</time>
      </trkpt>
      <trkpt lat="45.53958" lon="6.8124">
        <ele>2311.15</ele>
        <time>2013-03-04T14:09:05Z</time>
      </trkpt>
      <trkpt lat="45.53958" lon="6.81242">
        <ele>2311.63</ele>
        <time>2013-03-04T14:09:20Z</time>
      </trkpt>
      <trkpt lat="45.53961" lon="6.81239">
        <ele>2312.59</ele>
        <time>2013-03-04T14:09:28Z</time>
      </trkpt>
      <trkpt lat="45.53965" lon="6.81237">
        <ele>2313.07</ele>
        <time>2013-03-04T14:09:37Z</time>
      </trkpt>
      <trkpt lat="45.53966" lon="6.81237">
        <ele>2313.55</ele>
        <time>2013-03-04T14:09:47Z</time>
      </trkpt>
      <trkpt lat="45.53966" lon="6.81238">
        <ele>2313.07</ele>
        <time>2013-03-04T14:10:04Z</time>
      </trkpt>
      <trkpt lat="45.53966" lon="6.81238">
        <ele>2313.07</ele>
        <time>2013-03-04T14:10:08Z</time>
      </trkpt>
      <trkpt lat="45.53966" lon="6.81244">
        <ele>2313.07</ele>
        <time>2013-03-04T14:10:16Z</time>
      </trkpt>
      <trkpt lat="45.53966" lon="6.81248">
        <ele>2314.51</ele>
        <time>2013-03-04T14:10:28Z</time>
      </trkpt>
      <trkpt lat="45.53965" lon="6.81249">
        <ele>2315.95</ele>
        <time>2013-03-04T14:10:41Z</time>
      </trkpt>
      <trkpt lat="45.53966" lon="6.81247">
        <ele>2316.43</ele>
        <time>2013-03-04T14:10:57Z</time>
      </trkpt>
      <trkpt lat="45.5397" lon="6.81245">
        <ele>2317.88</ele>
        <time>2013-03-04T14:11:03Z</time>
      </trkpt>
      <trkpt lat="45.53972" lon="6.81245">
        <ele>2317.4</ele>
        <time>2013-03-04T14:11:13Z</time>
      </trkpt>
      <trkpt lat="45.53975" lon="6.81243">
        <ele>2318.36</ele>
        <time>2013-03-04T14:11:23Z</time>
      </trkpt>
      <trkpt lat="45.53978" lon="6.8124">
        <ele>2319.32</ele>
        <time>2013-03-04T14:11:31Z</time>
      </trkpt>
      <trkpt lat="45.5398" lon="6.8124">
        <ele>2320.28</ele>
        <time>2013-03-04T14:11:40Z</time>
      </trkpt>
      <trkpt lat="45.53981" lon="6.8124">
        <ele>2320.76</ele>
        <time>2013-03-04T14:11:43Z</time>
      </trkpt>
      <trkpt lat="45.53984" lon="6.81239">
        <ele>2320.76</ele>
        <time>2013-03-04T14:11:54Z</time>
      </trkpt>
      <trkpt lat="45.53988" lon="6.8124">
        <ele>2321.72</ele>
        <time>2013-03-04T14:12:05Z</time>
      </trkpt>
      <trkpt lat="45.5399" lon="6.81239">
        <ele>2321.72</ele>
        <time>2013-03-04T14:12:19Z</time>
      </trkpt>
      <trkpt lat="45.5399" lon="6.81239">
        <ele>2323.16</ele>
        <time>2013-03-04T14:12:34Z</time>
      </trkpt>
      <trkpt lat="45.53991" lon="6.81241">
        <ele>2322.68</ele>
        <time>2013-03-04T14:12:57Z</time>
      </trkpt>
      <trkpt lat="45.53991" lon="6.81242">
        <ele>2321.24</ele>
        <time>2013-03-04T14:13:17Z</time>
      </trkpt>
      <trkpt lat="45.53992" lon="6.8124">
        <ele>2322.2</ele>
        <time>2013-03-04T14:13:29Z</time>
      </trkpt>
      <trkpt lat="45.53993" lon="6.81242">
        <ele>2321.72</ele>
        <time>2013-03-04T14:13:49Z</time>
      </trkpt>
      <trkpt lat="45.53996" lon="6.81241">
        <ele>2324.12</ele>
        <time>2013-03-04T14:13:56Z</time>
      </trkpt>
      <trkpt lat="45.54001" lon="6.81241">
        <ele>2324.61</ele>
        <time>2013-03-04T14:14:01Z</time>
      </trkpt>
      <trkpt lat="45.54003" lon="6.81243">
        <ele>2326.05</ele>
        <time>2013-03-04T14:14:13Z</time>
      </trkpt>
      <trkpt lat="45.54006" lon="6.81244">
        <ele>2327.01</ele>
        <time>2013-03-04T14:14:22Z</time>
      </trkpt>
      <trkpt lat="45.54011" lon="6.81248">
        <ele>2327.97</ele>
        <time>2013-03-04T14:14:29Z</time>
      </trkpt>
      <trkpt lat="45.54016" lon="6.8125">
        <ele>2328.45</ele>
        <time>2013-03-04T14:14:35Z</time>
      </trkpt>
      <trkpt lat="45.54022" lon="6.81254">
        <ele>2329.89</ele>
        <time>2013-03-04T14:14:44Z</time>
      </trkpt>
      <trkpt lat="45.54026" lon="6.81254">
        <ele>2329.89</ele>
        <time>2013-03-04T14:14:57Z</time>
      </trkpt>
      <trkpt lat="45.54033" lon="6.81258">
        <ele>2330.85</ele>
        <time>2013-03-04T14:15:06Z</time>
      </trkpt>
      <trkpt lat="45.54035" lon="6.81261">
        <ele>2331.81</ele>
        <time>2013-03-04T14:15:21Z</time>
      </trkpt>
      <trkpt lat="45.54039" lon="6.81262">
        <ele>2331.81</ele>
        <time>2013-03-04T14:15:39Z</time>
      </trkpt>
      <trkpt lat="45.54044" lon="6.81266">
        <ele>2333.26</ele>
        <time>2013-03-04T14:15:47Z</time>
      </trkpt>
      <trkpt lat="45.5405" lon="6.81266">
        <ele>2332.78</ele>
        <time>2013-03-04T14:15:55Z</time>
      </trkpt>
      <trkpt lat="45.54055" lon="6.81267">
        <ele>2334.7</ele>
        <time>2013-03-04T14:16:03Z</time>
      </trkpt>
      <trkpt lat="45.54059" lon="6.81269">
        <ele>2335.66</ele>
        <time>2013-03-04T14:16:15Z</time>
      </trkpt>
      <trkpt lat="45.54063" lon="6.81271">
        <ele>2336.14</ele>
        <time>2013-03-04T14:16:24Z</time>
      </trkpt>
      <trkpt lat="45.54067" lon="6.81272">
        <ele>2337.1</ele>
        <time>2013-03-04T14:16:33Z</time>
      </trkpt>
      <trkpt lat="45.54074" lon="6.81275">
        <ele>2338.06</ele>
        <time>2013-03-04T14:16:43Z</time>
      </trkpt>
      <trkpt lat="45.54081" lon="6.81278">
        <ele>2339.02</ele>
        <time>2013-03-04T14:16:52Z</time>
      </trkpt>
      <trkpt lat="45.54085" lon="6.81282">
        <ele>2338.06</ele>
        <time>2013-03-04T14:17:01Z</time>
      </trkpt>
      <trkpt lat="45.54086" lon="6.81282">
        <ele>2337.1</ele>
        <time>2013-03-04T14:17:20Z</time>
      </trkpt>
      <trkpt lat="45.54088" lon="6.81281">
        <ele>2337.1</ele>
        <time>2013-03-04T14:17:28Z</time>
      </trkpt>
      <trkpt lat="45.54093" lon="6.81281">
        <ele>2336.62</ele>
        <time>2013-03-04T14:17:38Z</time>
      </trkpt>
      <trkpt lat="45.54098" lon="6.81281">
        <ele>2336.62</ele>
        <time>2013-03-04T14:17:46Z</time>
      </trkpt>
      <trkpt lat="45.54102" lon="6.81281">
        <ele>2337.1</ele>
        <time>2013-03-04T14:17:55Z</time>
      </trkpt>
      <trkpt lat="45.54108" lon="6.81282">
        <ele>2336.14</ele>
        <time>2013-03-04T14:18:03Z</time>
      </trkpt>
      <trkpt lat="45.54113" lon="6.81283">
        <ele>2335.66</ele>
        <time>2013-03-04T14:18:11Z</time>
      </trkpt>
      <trkpt lat="45.54118" lon="6.81283">
        <ele>2336.62</ele>
        <time>2013-03-04T14:18:19Z</time>
      </trkpt>
      <trkpt lat="45.54119" lon="6.81284">
        <ele>2337.1</ele>
        <time>2013-03-04T14:18:21Z</time>
      </trkpt>
      <trkpt lat="45.54126" lon="6.81283">
        <ele>2336.62</ele>
        <time>2013-03-04T14:18:31Z</time>
      </trkpt>
      <trkpt lat="45.54129" lon="6.81282">
        <ele>2337.1</ele>
        <time>2013-03-04T14:18:40Z</time>
      </trkpt>
      <trkpt lat="45.54133" lon="6.81283">
        <ele>2334.7</ele>
        <time>2013-03-04T14:18:58Z</time>
      </trkpt>
      <trkpt lat="45.5414" lon="6.81282">
        <ele>2335.18</ele>
        <time>2013-03-04T14:19:06Z</time>
      </trkpt>
      <trkpt lat="45.54145" lon="6.81283">
        <ele>2334.7</ele>
        <time>2013-03-04T14:19:14Z</time>
      </trkpt>
      <trkpt lat="45.54155" lon="6.81283">
        <ele>2335.18</ele>
        <time>2013-03-04T14:19:25Z</time>
      </trkpt>
      <trkpt lat="45.54164" lon="6.81286">
        <ele>2337.58</ele>
        <time>2013-03-04T14:19:36Z</time>
      </trkpt>
      <trkpt lat="45.54164" lon="6.81287">
        <ele>2338.06</ele>
        <time>2013-03-04T14:19:47Z</time>
      </trkpt>
      <trkpt lat="45.54165" lon="6.81286">
        <ele>2338.54</ele>
        <time>2013-03-04T14:20:12Z</time>
      </trkpt>
      <trkpt lat="45.54166" lon="6.81287">
        <ele>2338.54</ele>
        <time>2013-03-04T14:20:27Z</time>
      </trkpt>
      <trkpt lat="45.54174" lon="6.81288">
        <ele>2337.1</ele>
        <time>2013-03-04T14:20:36Z</time>
      </trkpt>
      <trkpt lat="45.54179" lon="6.8129">
        <ele>2337.58</ele>
        <time>2013-03-04T14:20:44Z</time>
      </trkpt>
      <trkpt lat="45.54182" lon="6.81292">
        <ele>2338.06</ele>
        <time>2013-03-04T14:20:53Z</time>
      </trkpt>
      <trkpt lat="45.54184" lon="6.81292">
        <ele>2338.06</ele>
        <time>2013-03-04T14:21:12Z</time>
      </trkpt>
      <trkpt lat="45.5419" lon="6.81294">
        <ele>2339.02</ele>
        <time>2013-03-04T14:21:20Z</time>
      </trkpt>
      <trkpt lat="45.54195" lon="6.81298">
        <ele>2340.95</ele>
        <time>2013-03-04T14:21:29Z</time>
      </trkpt>
      <trkpt lat="45.54203" lon="6.81301">
        <ele>2341.43</ele>
        <time>2013-03-04T14:21:38Z</time>
      </trkpt>
      <trkpt lat="45.54202" lon="6.813">
        <ele>2341.91</ele>
        <time>2013-03-04T14:21:56Z</time>
      </trkpt>
      <trkpt lat="45.54211" lon="6.81302">
        <ele>2342.87</ele>
        <time>2013-03-04T14:22:05Z</time>
      </trkpt>
      <trkpt lat="45.54217" lon="6.81304">
        <ele>2344.31</ele>
        <time>2013-03-04T14:22:15Z</time>
      </trkpt>
      <trkpt lat="45.54217" lon="6.81303">
        <ele>2344.31</ele>
        <time>2013-03-04T14:22:43Z</time>
      </trkpt>
      <trkpt lat="45.54221" lon="6.81305">
        <ele>2343.83</ele>
        <time>2013-03-04T14:22:52Z</time>
      </trkpt>
      <trkpt lat="45.54221" lon="6.81305">
        <ele>2343.83</ele>
        <time>2013-03-04T14:22:53Z</time>
      </trkpt>
      <trkpt lat="45.54227" lon="6.81308">
        <ele>2343.83</ele>
        <time>2013-03-04T14:23:01Z</time>
      </trkpt>
      <trkpt lat="45.54229" lon="6.81309">
        <ele>2343.83</ele>
        <time>2013-03-04T14:23:05Z</time>
      </trkpt>
      <trkpt lat="45.54232" lon="6.81311">
        <ele>2345.27</ele>
        <time>2013-03-04T14:23:17Z</time>
      </trkpt>
      <trkpt lat="45.54231" lon="6.81311">
        <ele>2346.72</ele>
        <time>2013-03-04T14:23:41Z</time>
      </trkpt>
      <trkpt lat="45.54232" lon="6.81312">
        <ele>2346.72</ele>
        <time>2013-03-04T14:23:54Z</time>
      </trkpt>
      <trkpt lat="45.54235" lon="6.81315">
        <ele>2347.2</ele>
        <time>2013-03-04T14:24:01Z</time>
      </trkpt>
      <trkpt lat="45.5424" lon="6.81318">
        <ele>2348.64</ele>
        <time>2013-03-04T14:24:10Z</time>
      </trkpt>
      <trkpt lat="45.54246" lon="6.8132">
        <ele>2348.64</ele>
        <time>2013-03-04T14:24:17Z</time>
      </trkpt>
      <trkpt lat="45.54247" lon="6.81321">
        <ele>2349.12</ele>
        <time>2013-03-04T14:24:39Z</time>
      </trkpt>
      <trkpt lat="45.54253" lon="6.81322">
        <ele>2351.04</ele>
        <time>2013-03-04T14:24:49Z</time>
      </trkpt>
      <trkpt lat="45.54256" lon="6.81325">
        <ele>2352</ele>
        <time>2013-03-04T14:25:01Z</time>
      </trkpt>
      <trkpt lat="45.54257" lon="6.81325">
        <ele>2352</ele>
        <time>2013-03-04T14:25:19Z</time>
      </trkpt>
      <trkpt lat="45.54262" lon="6.81327">
        <ele>2353.93</ele>
        <time>2013-03-04T14:25:28Z</time>
      </trkpt>
      <trkpt lat="45.54263" lon="6.81328">
        <ele>2354.41</ele>
        <time>2013-03-04T14:25:29Z</time>
      </trkpt>
      <trkpt lat="45.54266" lon="6.81329">
        <ele>2355.37</ele>
        <time>2013-03-04T14:25:36Z</time>
      </trkpt>
      <trkpt lat="45.54267" lon="6.81329">
        <ele>2354.89</ele>
        <time>2013-03-04T14:25:52Z</time>
      </trkpt>
      <trkpt lat="45.54267" lon="6.81331">
        <ele>2354.41</ele>
        <time>2013-03-04T14:26:19Z</time>
      </trkpt>
      <trkpt lat="45.54268" lon="6.81329">
        <ele>2354.89</ele>
        <time>2013-03-04T14:26:31Z</time>
      </trkpt>
      <trkpt lat="45.54271" lon="6.81321">
        <ele>2356.81</ele>
        <time>2013-03-04T14:26:38Z</time>
      </trkpt>
      <trkpt lat="45.54271" lon="6.81319">
        <ele>2357.77</ele>
        <time>2013-03-04T14:26:41Z</time>
      </trkpt>
      <trkpt lat="45.54273" lon="6.81319">
        <ele>2359.69</ele>
        <time>2013-03-04T14:26:48Z</time>
      </trkpt>
      <trkpt lat="45.54273" lon="6.8132">
        <ele>2359.21</ele>
        <time>2013-03-04T14:26:49Z</time>
      </trkpt>
      <trkpt lat="45.54277" lon="6.81327">
        <ele>2359.69</ele>
        <time>2013-03-04T14:26:57Z</time>
      </trkpt>
      <trkpt lat="45.54278" lon="6.81326">
        <ele>2361.14</ele>
        <time>2013-03-04T14:27:01Z</time>
      </trkpt>
      <trkpt lat="45.5428" lon="6.8132">
        <ele>2364.02</ele>
        <time>2013-03-04T14:27:08Z</time>
      </trkpt>
      <trkpt lat="45.54282" lon="6.81319">
        <ele>2364.02</ele>
        <time>2013-03-04T14:27:23Z</time>
      </trkpt>
      <trkpt lat="45.54283" lon="6.81319">
        <ele>2363.54</ele>
        <time>2013-03-04T14:27:40Z</time>
      </trkpt>
      <trkpt lat="45.54287" lon="6.81324">
        <ele>2363.06</ele>
        <time>2013-03-04T14:27:48Z</time>
      </trkpt>
      <trkpt lat="45.5429" lon="6.81329">
        <ele>2362.1</ele>
        <time>2013-03-04T14:27:55Z</time>
      </trkpt>
      <trkpt lat="45.54293" lon="6.81332">
        <ele>2361.62</ele>
        <time>2013-03-04T14:28:01Z</time>
      </trkpt>
      <trkpt lat="45.54294" lon="6.81332">
        <ele>2361.62</ele>
        <time>2013-03-04T14:28:15Z</time>
      </trkpt>
      <trkpt lat="45.54298" lon="6.81335">
        <ele>2362.58</ele>
        <time>2013-03-04T14:28:22Z</time>
      </trkpt>
      <trkpt lat="45.54302" lon="6.81339">
        <ele>2364.02</ele>
        <time>2013-03-04T14:28:30Z</time>
      </trkpt>
      <trkpt lat="45.54307" lon="6.81342">
        <ele>2365.94</ele>
        <time>2013-03-04T14:28:37Z</time>
      </trkpt>
      <trkpt lat="45.54313" lon="6.81347">
        <ele>2366.42</ele>
        <time>2013-03-04T14:28:45Z</time>
      </trkpt>
      <trkpt lat="45.54313" lon="6.81347">
        <ele>2366.9</ele>
        <time>2013-03-04T14:28:58Z</time>
      </trkpt>
      <trkpt lat="45.54315" lon="6.81348">
        <ele>2368.35</ele>
        <time>2013-03-04T14:29:09Z</time>
      </trkpt>
      <trkpt lat="45.54321" lon="6.8135">
        <ele>2369.31</ele>
        <time>2013-03-04T14:29:16Z</time>
      </trkpt>
      <trkpt lat="45.54326" lon="6.81351">
        <ele>2370.75</ele>
        <time>2013-03-04T14:29:24Z</time>
      </trkpt>
      <trkpt lat="45.54331" lon="6.81349">
        <ele>2371.23</ele>
        <time>2013-03-04T14:29:32Z</time>
      </trkpt>
      <trkpt lat="45.54335" lon="6.81347">
        <ele>2371.23</ele>
        <time>2013-03-04T14:29:43Z</time>
      </trkpt>
      <trkpt lat="45.54336" lon="6.81346">
        <ele>2371.23</ele>
        <time>2013-03-04T14:30:04Z</time>
      </trkpt>
      <trkpt lat="45.54336" lon="6.81347">
        <ele>2371.23</ele>
        <time>2013-03-04T14:30:26Z</time>
      </trkpt>
      <trkpt lat="45.54336" lon="6.81347">
        <ele>2369.79</ele>
        <time>2013-03-04T14:30:44Z</time>
      </trkpt>
      <trkpt lat="45.54337" lon="6.81346">
        <ele>2369.79</ele>
        <time>2013-03-04T14:31:00Z</time>
      </trkpt>
      <trkpt lat="45.54341" lon="6.81343">
        <ele>2369.79</ele>
        <time>2013-03-04T14:31:07Z</time>
      </trkpt>
      <trkpt lat="45.54346" lon="6.81338">
        <ele>2369.31</ele>
        <time>2013-03-04T14:31:15Z</time>
      </trkpt>
      <trkpt lat="45.5435" lon="6.81335">
        <ele>2369.79</ele>
        <time>2013-03-04T14:31:21Z</time>
      </trkpt>
      <trkpt lat="45.54356" lon="6.81329">
        <ele>2369.31</ele>
        <time>2013-03-04T14:31:31Z</time>
      </trkpt>
      <trkpt lat="45.54362" lon="6.81324">
        <ele>2369.31</ele>
        <time>2013-03-04T14:31:40Z</time>
      </trkpt>
      <trkpt lat="45.54362" lon="6.81323">
        <ele>2369.31</ele>
        <time>2013-03-04T14:31:41Z</time>
      </trkpt>
      <trkpt lat="45.54371" lon="6.81319">
        <ele>2370.75</ele>
        <time>2013-03-04T14:31:51Z</time>
      </trkpt>
      <trkpt lat="45.54371" lon="6.81319">
        <ele>2368.83</ele>
        <time>2013-03-04T14:32:03Z</time>
      </trkpt>
      <trkpt lat="45.54371" lon="6.81319">
        <ele>2368.83</ele>
        <time>2013-03-04T14:32:19Z</time>
      </trkpt>
      <trkpt lat="45.54371" lon="6.8132">
        <ele>2368.83</ele>
        <time>2013-03-04T14:32:44Z</time>
      </trkpt>
      <trkpt lat="45.54372" lon="6.81319">
        <ele>2368.35</ele>
        <time>2013-03-04T14:33:06Z</time>
      </trkpt>
      <trkpt lat="45.54372" lon="6.81319">
        <ele>2367.86</ele>
        <time>2013-03-04T14:33:21Z</time>
      </trkpt>
      <trkpt lat="45.54372" lon="6.81319">
        <ele>2366.9</ele>
        <time>2013-03-04T14:33:44Z</time>
      </trkpt>
      <trkpt lat="45.54372" lon="6.81319">
        <ele>2367.86</ele>
        <time>2013-03-04T14:33:47Z</time>
      </trkpt>
      <trkpt lat="45.54373" lon="6.81319">
        <ele>2367.86</ele>
        <time>2013-03-04T14:33:57Z</time>
      </trkpt>
      <trkpt lat="45.54373" lon="6.81319">
        <ele>2367.86</ele>
        <time>2013-03-04T14:33:58Z</time>
      </trkpt>
      <trkpt lat="45.54374" lon="6.81319">
        <ele>2367.86</ele>
        <time>2013-03-04T14:34:00Z</time>
      </trkpt>
      <trkpt lat="45.54378" lon="6.8132">
        <ele>2367.38</ele>
        <time>2013-03-04T14:34:09Z</time>
      </trkpt>
      <trkpt lat="45.54386" lon="6.81322">
        <ele>2366.42</ele>
        <time>2013-03-04T14:34:18Z</time>
      </trkpt>
      <trkpt lat="45.54393" lon="6.81327">
        <ele>2367.86</ele>
        <time>2013-03-04T14:34:28Z</time>
      </trkpt>
      <trkpt lat="45.54395" lon="6.81327">
        <ele>2368.35</ele>
        <time>2013-03-04T14:34:32Z</time>
      </trkpt>
      <trkpt lat="45.54397" lon="6.81327">
        <ele>2368.35</ele>
        <time>2013-03-04T14:34:42Z</time>
      </trkpt>
      <trkpt lat="45.54405" lon="6.81329">
        <ele>2368.83</ele>
        <time>2013-03-04T14:34:53Z</time>
      </trkpt>
      <trkpt lat="45.5441" lon="6.8133">
        <ele>2368.83</ele>
        <time>2013-03-04T14:35:01Z</time>
      </trkpt>
      <trkpt lat="45.54411" lon="6.81331">
        <ele>2369.79</ele>
        <time>2013-03-04T14:35:10Z</time>
      </trkpt>
      <trkpt lat="45.54413" lon="6.81332">
        <ele>2369.79</ele>
        <time>2013-03-04T14:35:18Z</time>
      </trkpt>
      <trkpt lat="45.54415" lon="6.81331">
        <ele>2370.27</ele>
        <time>2013-03-04T14:35:21Z</time>
      </trkpt>
      <trkpt lat="45.5442" lon="6.81328">
        <ele>2372.19</ele>
        <time>2013-03-04T14:35:28Z</time>
      </trkpt>
      <trkpt lat="45.54423" lon="6.81327">
        <ele>2372.67</ele>
        <time>2013-03-04T14:35:34Z</time>
      </trkpt>
      <trkpt lat="45.54424" lon="6.81326">
        <ele>2374.11</ele>
        <time>2013-03-04T14:35:46Z</time>
      </trkpt>
      <trkpt lat="45.54425" lon="6.81325">
        <ele>2373.15</ele>
        <time>2013-03-04T14:36:05Z</time>
      </trkpt>
      <trkpt lat="45.5443" lon="6.81323">
        <ele>2374.11</ele>
        <time>2013-03-04T14:36:13Z</time>
      </trkpt>
      <trkpt lat="45.54434" lon="6.81321">
        <ele>2375.55</ele>
        <time>2013-03-04T14:36:19Z</time>
      </trkpt>
      <trkpt lat="45.54437" lon="6.81319">
        <ele>2376.04</ele>
        <time>2013-03-04T14:36:25Z</time>
      </trkpt>
      <trkpt lat="45.54444" lon="6.81317">
        <ele>2377.96</ele>
        <time>2013-03-04T14:36:34Z</time>
      </trkpt>
      <trkpt lat="45.54446" lon="6.81313">
        <ele>2380.36</ele>
        <time>2013-03-04T14:36:46Z</time>
      </trkpt>
      <trkpt lat="45.54449" lon="6.81311">
        <ele>2378.92</ele>
        <time>2013-03-04T14:37:10Z</time>
      </trkpt>
      <trkpt lat="45.54452" lon="6.81311">
        <ele>2380.84</ele>
        <time>2013-03-04T14:37:21Z</time>
      </trkpt>
      <trkpt lat="45.54457" lon="6.8131">
        <ele>2382.28</ele>
        <time>2013-03-04T14:37:28Z</time>
      </trkpt>
      <trkpt lat="45.54461" lon="6.81309">
        <ele>2383.25</ele>
        <time>2013-03-04T14:37:36Z</time>
      </trkpt>
      <trkpt lat="45.54465" lon="6.81308">
        <ele>2383.25</ele>
        <time>2013-03-04T14:37:43Z</time>
      </trkpt>
      <trkpt lat="45.5447" lon="6.81307">
        <ele>2384.21</ele>
        <time>2013-03-04T14:37:50Z</time>
      </trkpt>
      <trkpt lat="45.54471" lon="6.81307">
        <ele>2385.65</ele>
        <time>2013-03-04T14:38:05Z</time>
      </trkpt>
      <trkpt lat="45.54473" lon="6.81307">
        <ele>2386.61</ele>
        <time>2013-03-04T14:38:21Z</time>
      </trkpt>
      <trkpt lat="45.54477" lon="6.81305">
        <ele>2388.53</ele>
        <time>2013-03-04T14:38:29Z</time>
      </trkpt>
      <trkpt lat="45.54481" lon="6.81304">
        <ele>2390.46</ele>
        <time>2013-03-04T14:38:37Z</time>
      </trkpt>
      <trkpt lat="45.54488" lon="6.81306">
        <ele>2393.34</ele>
        <time>2013-03-04T14:38:46Z</time>
      </trkpt>
      <trkpt lat="45.54495" lon="6.81308">
        <ele>2393.34</ele>
        <time>2013-03-04T14:38:55Z</time>
      </trkpt>
      <trkpt lat="45.54497" lon="6.81309">
        <ele>2392.38</ele>
        <time>2013-03-04T14:39:07Z</time>
      </trkpt>
      <trkpt lat="45.54497" lon="6.8131">
        <ele>2390.94</ele>
        <time>2013-03-04T14:39:31Z</time>
      </trkpt>
      <trkpt lat="45.54497" lon="6.81309">
        <ele>2391.42</ele>
        <time>2013-03-04T14:40:01Z</time>
      </trkpt>
      <trkpt lat="45.54497" lon="6.81309">
        <ele>2391.9</ele>
        <time>2013-03-04T14:40:27Z</time>
      </trkpt>
      <trkpt lat="45.54497" lon="6.81309">
        <ele>2390.94</ele>
        <time>2013-03-04T14:40:40Z</time>
      </trkpt>
      <trkpt lat="45.54502" lon="6.81311">
        <ele>2392.38</ele>
        <time>2013-03-04T14:40:48Z</time>
      </trkpt>
      <trkpt lat="45.54507" lon="6.81314">
        <ele>2394.78</ele>
        <time>2013-03-04T14:40:56Z</time>
      </trkpt>
      <trkpt lat="45.54515" lon="6.81318">
        <ele>2396.22</ele>
        <time>2013-03-04T14:41:04Z</time>
      </trkpt>
      <trkpt lat="45.54524" lon="6.81322">
        <ele>2396.7</ele>
        <time>2013-03-04T14:41:13Z</time>
      </trkpt>
      <trkpt lat="45.54525" lon="6.81323">
        <ele>2395.74</ele>
        <time>2013-03-04T14:41:26Z</time>
      </trkpt>
      <trkpt lat="45.54529" lon="6.81324">
        <ele>2395.26</ele>
        <time>2013-03-04T14:41:31Z</time>
      </trkpt>
      <trkpt lat="45.54533" lon="6.81326">
        <ele>2394.3</ele>
        <time>2013-03-04T14:41:41Z</time>
      </trkpt>
      <trkpt lat="45.54532" lon="6.81326">
        <ele>2394.3</ele>
        <time>2013-03-04T14:42:01Z</time>
      </trkpt>
      <trkpt lat="45.54537" lon="6.81328">
        <ele>2393.34</ele>
        <time>2013-03-04T14:42:17Z</time>
      </trkpt>
      <trkpt lat="45.54542" lon="6.81332">
        <ele>2393.34</ele>
        <time>2013-03-04T14:42:25Z</time>
      </trkpt>
      <trkpt lat="45.54546" lon="6.81334">
        <ele>2393.34</ele>
        <time>2013-03-04T14:42:34Z</time>
      </trkpt>
      <trkpt lat="45.5455" lon="6.81337">
        <ele>2393.82</ele>
        <time>2013-03-04T14:42:46Z</time>
      </trkpt>
      <trkpt lat="45.54555" lon="6.8134">
        <ele>2396.22</ele>
        <time>2013-03-04T14:42:54Z</time>
      </trkpt>
      <trkpt lat="45.5456" lon="6.8134">
        <ele>2397.18</ele>
        <time>2013-03-04T14:43:02Z</time>
      </trkpt>
      <trkpt lat="45.54561" lon="6.81341">
        <ele>2398.15</ele>
        <time>2013-03-04T14:43:12Z</time>
      </trkpt>
      <trkpt lat="45.54561" lon="6.81342">
        <ele>2398.63</ele>
        <time>2013-03-04T14:43:40Z</time>
      </trkpt>
      <trkpt lat="45.54561" lon="6.81342">
        <ele>2398.63</ele>
        <time>2013-03-04T14:44:03Z</time>
      </trkpt>
      <trkpt lat="45.54561" lon="6.81341">
        <ele>2398.15</ele>
        <time>2013-03-04T14:44:22Z</time>
      </trkpt>
      <trkpt lat="45.54564" lon="6.81342">
        <ele>2398.15</ele>
        <time>2013-03-04T14:44:47Z</time>
      </trkpt>
      <trkpt lat="45.54567" lon="6.81342">
        <ele>2398.15</ele>
        <time>2013-03-04T14:44:55Z</time>
      </trkpt>
      <trkpt lat="45.54568" lon="6.81342">
        <ele>2398.63</ele>
        <time>2013-03-04T14:45:06Z</time>
      </trkpt>
      <trkpt lat="45.54573" lon="6.81344">
        <ele>2398.63</ele>
        <time>2013-03-04T14:45:15Z</time>
      </trkpt>
      <trkpt lat="45.54573" lon="6.81344">
        <ele>2399.59</ele>
        <time>2013-03-04T14:45:36Z</time>
      </trkpt>
      <trkpt lat="45.54578" lon="6.81345">
        <ele>2399.59</ele>
        <time>2013-03-04T14:45:47Z</time>
      </trkpt>
      <trkpt lat="45.54579" lon="6.81346">
        <ele>2399.59</ele>
        <time>2013-03-04T14:45:48Z</time>
      </trkpt>
      <trkpt lat="45.54583" lon="6.81351">
        <ele>2401.03</ele>
        <time>2013-03-04T14:45:56Z</time>
      </trkpt>
      <trkpt lat="45.54586" lon="6.81354">
        <ele>2401.99</ele>
        <time>2013-03-04T14:46:03Z</time>
      </trkpt>
      <trkpt lat="45.54586" lon="6.81356">
        <ele>2401.99</ele>
        <time>2013-03-04T14:46:23Z</time>
      </trkpt>
      <trkpt lat="45.54591" lon="6.81362">
        <ele>2404.88</ele>
        <time>2013-03-04T14:46:32Z</time>
      </trkpt>
      <trkpt lat="45.54593" lon="6.81365">
        <ele>2406.8</ele>
        <time>2013-03-04T14:46:39Z</time>
      </trkpt>
      <trkpt lat="45.54596" lon="6.8137">
        <ele>2406.8</ele>
        <time>2013-03-04T14:46:56Z</time>
      </trkpt>
      <trkpt lat="45.546" lon="6.81373">
        <ele>2404.88</ele>
        <time>2013-03-04T14:47:03Z</time>
      </trkpt>
      <trkpt lat="45.54604" lon="6.81379">
        <ele>2404.39</ele>
        <time>2013-03-04T14:47:12Z</time>
      </trkpt>
      <trkpt lat="45.54604" lon="6.81379">
        <ele>2405.36</ele>
        <time>2013-03-04T14:47:32Z</time>
      </trkpt>
      <trkpt lat="45.54606" lon="6.81381">
        <ele>2405.84</ele>
        <time>2013-03-04T14:47:41Z</time>
      </trkpt>
      <trkpt lat="45.54609" lon="6.81388">
        <ele>2406.32</ele>
        <time>2013-03-04T14:47:47Z</time>
      </trkpt>
      <trkpt lat="45.54612" lon="6.81396">
        <ele>2408.72</ele>
        <time>2013-03-04T14:47:55Z</time>
      </trkpt>
      <trkpt lat="45.54613" lon="6.81397">
        <ele>2408.72</ele>
        <time>2013-03-04T14:48:10Z</time>
      </trkpt>
      <trkpt lat="45.54614" lon="6.81398">
        <ele>2410.16</ele>
        <time>2013-03-04T14:48:36Z</time>
      </trkpt>
      <trkpt lat="45.54618" lon="6.81406">
        <ele>2409.2</ele>
        <time>2013-03-04T14:48:43Z</time>
      </trkpt>
      <trkpt lat="45.54621" lon="6.81408">
        <ele>2409.2</ele>
        <time>2013-03-04T14:48:50Z</time>
      </trkpt>
      <trkpt lat="45.54625" lon="6.81413">
        <ele>2410.16</ele>
        <time>2013-03-04T14:48:58Z</time>
      </trkpt>
      <trkpt lat="45.54625" lon="6.81414">
        <ele>2410.64</ele>
        <time>2013-03-04T14:49:12Z</time>
      </trkpt>
      <trkpt lat="45.5463" lon="6.81418">
        <ele>2410.16</ele>
        <time>2013-03-04T14:49:19Z</time>
      </trkpt>
      <trkpt lat="45.54636" lon="6.81422">
        <ele>2411.6</ele>
        <time>2013-03-04T14:49:27Z</time>
      </trkpt>
      <trkpt lat="45.54644" lon="6.81428">
        <ele>2411.6</ele>
        <time>2013-03-04T14:49:37Z</time>
      </trkpt>
      <trkpt lat="45.54645" lon="6.8143">
        <ele>2412.09</ele>
        <time>2013-03-04T14:49:51Z</time>
      </trkpt>
      <trkpt lat="45.54649" lon="6.81431">
        <ele>2413.05</ele>
        <time>2013-03-04T14:50:05Z</time>
      </trkpt>
      <trkpt lat="45.54653" lon="6.81431">
        <ele>2414.01</ele>
        <time>2013-03-04T14:50:12Z</time>
      </trkpt>
      <trkpt lat="45.54655" lon="6.81432">
        <ele>2415.45</ele>
        <time>2013-03-04T14:50:23Z</time>
      </trkpt>
      <trkpt lat="45.54655" lon="6.81432">
        <ele>2415.45</ele>
        <time>2013-03-04T14:50:44Z</time>
      </trkpt>
      <trkpt lat="45.54657" lon="6.81433">
        <ele>2415.45</ele>
        <time>2013-03-04T14:50:47Z</time>
      </trkpt>
      <trkpt lat="45.54665" lon="6.81438">
        <ele>2417.37</ele>
        <time>2013-03-04T14:50:57Z</time>
      </trkpt>
      <trkpt lat="45.54669" lon="6.8144">
        <ele>2418.81</ele>
        <time>2013-03-04T14:51:04Z</time>
      </trkpt>
      <trkpt lat="45.54671" lon="6.81443">
        <ele>2420.26</ele>
        <time>2013-03-04T14:51:15Z</time>
      </trkpt>
      <trkpt lat="45.54673" lon="6.81445">
        <ele>2421.7</ele>
        <time>2013-03-04T14:51:33Z</time>
      </trkpt>
      <trkpt lat="45.5468" lon="6.81447">
        <ele>2422.18</ele>
        <time>2013-03-04T14:51:43Z</time>
      </trkpt>
      <trkpt lat="45.54681" lon="6.81448">
        <ele>2422.66</ele>
        <time>2013-03-04T14:51:57Z</time>
      </trkpt>
      <trkpt lat="45.54681" lon="6.81449">
        <ele>2423.14</ele>
        <time>2013-03-04T14:52:16Z</time>
      </trkpt>
      <trkpt lat="45.54681" lon="6.81448">
        <ele>2423.14</ele>
        <time>2013-03-04T14:52:20Z</time>
      </trkpt>
      <trkpt lat="45.54681" lon="6.81442">
        <ele>2423.14</ele>
        <time>2013-03-04T14:52:28Z</time>
      </trkpt>
      <trkpt lat="45.54682" lon="6.81441">
        <ele>2424.1</ele>
        <time>2013-03-04T14:52:32Z</time>
      </trkpt>
      <trkpt lat="45.54685" lon="6.8144">
        <ele>2424.1</ele>
        <time>2013-03-04T14:52:40Z</time>
      </trkpt>
      <trkpt lat="45.54686" lon="6.81441">
        <ele>2424.58</ele>
        <time>2013-03-04T14:52:49Z</time>
      </trkpt>
      <trkpt lat="45.54687" lon="6.81442">
        <ele>2424.58</ele>
        <time>2013-03-04T14:53:06Z</time>
      </trkpt>
      <trkpt lat="45.54686" lon="6.81443">
        <ele>2426.02</ele>
        <time>2013-03-04T14:53:27Z</time>
      </trkpt>
      <trkpt lat="45.54686" lon="6.81443">
        <ele>2426.99</ele>
        <time>2013-03-04T14:53:52Z</time>
      </trkpt>
      <trkpt lat="45.54686" lon="6.81443">
        <ele>2426.99</ele>
        <time>2013-03-04T14:54:19Z</time>
      </trkpt>
      <trkpt lat="45.54686" lon="6.81444">
        <ele>2426.5</ele>
        <time>2013-03-04T14:54:34Z</time>
      </trkpt>
      <trkpt lat="45.54691" lon="6.81449">
        <ele>2426.99</ele>
        <time>2013-03-04T14:54:43Z</time>
      </trkpt>
      <trkpt lat="45.54693" lon="6.81451">
        <ele>2427.47</ele>
        <time>2013-03-04T14:54:47Z</time>
      </trkpt>
      <trkpt lat="45.54697" lon="6.81458">
        <ele>2429.87</ele>
        <time>2013-03-04T14:54:55Z</time>
      </trkpt>
      <trkpt lat="45.54698" lon="6.81459">
        <ele>2430.35</ele>
        <time>2013-03-04T14:55:02Z</time>
      </trkpt>
      <trkpt lat="45.547" lon="6.8146">
        <ele>2432.27</ele>
        <time>2013-03-04T14:55:19Z</time>
      </trkpt>
      <trkpt lat="45.54699" lon="6.81462">
        <ele>2433.23</ele>
        <time>2013-03-04T14:55:47Z</time>
      </trkpt>
      <trkpt lat="45.54701" lon="6.81464">
        <ele>2433.23</ele>
        <time>2013-03-04T14:56:06Z</time>
      </trkpt>
      <trkpt lat="45.54704" lon="6.81466">
        <ele>2434.68</ele>
        <time>2013-03-04T14:56:13Z</time>
      </trkpt>
      <trkpt lat="45.54707" lon="6.81469">
        <ele>2435.64</ele>
        <time>2013-03-04T14:56:21Z</time>
      </trkpt>
      <trkpt lat="45.54709" lon="6.81472">
        <ele>2435.64</ele>
        <time>2013-03-04T14:56:27Z</time>
      </trkpt>
      <trkpt lat="45.5471" lon="6.81473">
        <ele>2436.12</ele>
        <time>2013-03-04T14:56:29Z</time>
      </trkpt>
      <trkpt lat="45.54711" lon="6.81475">
        <ele>2437.08</ele>
        <time>2013-03-04T14:56:42Z</time>
      </trkpt>
      <trkpt lat="45.54712" lon="6.81478">
        <ele>2437.56</ele>
        <time>2013-03-04T14:56:54Z</time>
      </trkpt>
      <trkpt lat="45.54716" lon="6.81481">
        <ele>2440.44</ele>
        <time>2013-03-04T14:57:00Z</time>
      </trkpt>
      <trkpt lat="45.54721" lon="6.81484">
        <ele>2442.85</ele>
        <time>2013-03-04T14:57:08Z</time>
      </trkpt>
      <trkpt lat="45.5472" lon="6.81485">
        <ele>2444.29</ele>
        <time>2013-03-04T14:57:18Z</time>
      </trkpt>
      <trkpt lat="45.54722" lon="6.81487">
        <ele>2444.29</ele>
        <time>2013-03-04T14:57:30Z</time>
      </trkpt>
      <trkpt lat="45.54725" lon="6.81489">
        <ele>2443.81</ele>
        <time>2013-03-04T14:57:42Z</time>
      </trkpt>
      <trkpt lat="45.54731" lon="6.81496">
        <ele>2443.81</ele>
        <time>2013-03-04T14:57:49Z</time>
      </trkpt>
      <trkpt lat="45.54735" lon="6.81501">
        <ele>2443.81</ele>
        <time>2013-03-04T14:57:57Z</time>
      </trkpt>
      <trkpt lat="45.54741" lon="6.81505">
        <ele>2443.33</ele>
        <time>2013-03-04T14:58:05Z</time>
      </trkpt>
      <trkpt lat="45.54742" lon="6.81505">
        <ele>2443.81</ele>
        <time>2013-03-04T14:58:17Z</time>
      </trkpt>
      <trkpt lat="45.54744" lon="6.81505">
        <ele>2443.81</ele>
        <time>2013-03-04T14:58:19Z</time>
      </trkpt>
      <trkpt lat="45.54748" lon="6.815">
        <ele>2444.29</ele>
        <time>2013-03-04T14:58:27Z</time>
      </trkpt>
      <trkpt lat="45.54748" lon="6.81499">
        <ele>2445.73</ele>
        <time>2013-03-04T14:58:41Z</time>
      </trkpt>
      <trkpt lat="45.5475" lon="6.81499">
        <ele>2447.17</ele>
        <time>2013-03-04T14:59:06Z</time>
      </trkpt>
      <trkpt lat="45.5475" lon="6.81497">
        <ele>2448.13</ele>
        <time>2013-03-04T14:59:19Z</time>
      </trkpt>
      <trkpt lat="45.54751" lon="6.81493">
        <ele>2448.62</ele>
        <time>2013-03-04T14:59:28Z</time>
      </trkpt>
      <trkpt lat="45.54756" lon="6.81486">
        <ele>2450.06</ele>
        <time>2013-03-04T14:59:35Z</time>
      </trkpt>
      <trkpt lat="45.5476" lon="6.8148">
        <ele>2451.02</ele>
        <time>2013-03-04T14:59:43Z</time>
      </trkpt>
      <trkpt lat="45.54761" lon="6.81479">
        <ele>2451.02</ele>
        <time>2013-03-04T14:59:45Z</time>
      </trkpt>
      <trkpt lat="45.54765" lon="6.81479">
        <ele>2450.54</ele>
        <time>2013-03-04T14:59:52Z</time>
      </trkpt>
      <trkpt lat="45.54767" lon="6.81475">
        <ele>2451.5</ele>
        <time>2013-03-04T15:00:00Z</time>
      </trkpt>
      <trkpt lat="45.54767" lon="6.81474">
        <ele>2452.46</ele>
        <time>2013-03-04T15:00:19Z</time>
      </trkpt>
      <trkpt lat="45.54767" lon="6.81474">
        <ele>2453.9</ele>
        <time>2013-03-04T15:00:44Z</time>
      </trkpt>
      <trkpt lat="45.54766" lon="6.81473">
        <ele>2454.38</ele>
        <time>2013-03-04T15:01:09Z</time>
      </trkpt>
      <trkpt lat="45.54766" lon="6.81472">
        <ele>2454.86</ele>
        <time>2013-03-04T15:01:31Z</time>
      </trkpt>
      <trkpt lat="45.54766" lon="6.81472">
        <ele>2455.82</ele>
        <time>2013-03-04T15:01:53Z</time>
      </trkpt>
      <trkpt lat="45.54766" lon="6.81472">
        <ele>2455.82</ele>
        <time>2013-03-04T15:01:55Z</time>
      </trkpt>
      <trkpt lat="45.54769" lon="6.81467">
        <ele>2456.79</ele>
        <time>2013-03-04T15:02:02Z</time>
      </trkpt>
      <trkpt lat="45.54769" lon="6.81466">
        <ele>2457.27</ele>
        <time>2013-03-04T15:02:06Z</time>
      </trkpt>
      <trkpt lat="45.54772" lon="6.81465">
        <ele>2457.27</ele>
        <time>2013-03-04T15:02:08Z</time>
      </trkpt>
      <trkpt lat="45.54779" lon="6.81468">
        <ele>2458.71</ele>
        <time>2013-03-04T15:02:16Z</time>
      </trkpt>
      <trkpt lat="45.54784" lon="6.81467">
        <ele>2459.19</ele>
        <time>2013-03-04T15:02:24Z</time>
      </trkpt>
      <trkpt lat="45.54785" lon="6.81462">
        <ele>2460.63</ele>
        <time>2013-03-04T15:02:29Z</time>
      </trkpt>
      <trkpt lat="45.54787" lon="6.81459">
        <ele>2461.11</ele>
        <time>2013-03-04T15:02:36Z</time>
      </trkpt>
      <trkpt lat="45.54786" lon="6.81458">
        <ele>2461.59</ele>
        <time>2013-03-04T15:02:57Z</time>
      </trkpt>
      <trkpt lat="45.54787" lon="6.81459">
        <ele>2462.07</ele>
        <time>2013-03-04T15:03:07Z</time>
      </trkpt>
      <trkpt lat="45.54788" lon="6.81458">
        <ele>2462.55</ele>
        <time>2013-03-04T15:03:09Z</time>
      </trkpt>
      <trkpt lat="45.54791" lon="6.81461">
        <ele>2463.04</ele>
        <time>2013-03-04T15:03:17Z</time>
      </trkpt>
      <trkpt lat="45.54797" lon="6.81462">
        <ele>2464</ele>
        <time>2013-03-04T15:03:25Z</time>
      </trkpt>
      <trkpt lat="45.54798" lon="6.81462">
        <ele>2463.52</ele>
        <time>2013-03-04T15:03:38Z</time>
      </trkpt>
      <trkpt lat="45.54799" lon="6.81463">
        <ele>2464</ele>
        <time>2013-03-04T15:03:52Z</time>
      </trkpt>
      <trkpt lat="45.54798" lon="6.81462">
        <ele>2464.48</ele>
        <time>2013-03-04T15:03:56Z</time>
      </trkpt>
      <trkpt lat="45.54798" lon="6.81459">
        <ele>2464.48</ele>
        <time>2013-03-04T15:03:58Z</time>
      </trkpt>
      <trkpt lat="45.54797" lon="6.81457">
        <ele>2464.96</ele>
        <time>2013-03-04T15:04:01Z</time>
      </trkpt>
      <trkpt lat="45.54797" lon="6.81449">
        <ele>2467.36</ele>
        <time>2013-03-04T15:04:08Z</time>
      </trkpt>
      <trkpt lat="45.54798" lon="6.81446">
        <ele>2467.36</ele>
        <time>2013-03-04T15:04:20Z</time>
      </trkpt>
      <trkpt lat="45.54799" lon="6.81441">
        <ele>2469.28</ele>
        <time>2013-03-04T15:04:29Z</time>
      </trkpt>
      <trkpt lat="45.54799" lon="6.8144">
        <ele>2469.28</ele>
        <time>2013-03-04T15:04:55Z</time>
      </trkpt>
      <trkpt lat="45.548" lon="6.81436">
        <ele>2469.76</ele>
        <time>2013-03-04T15:05:10Z</time>
      </trkpt>
      <trkpt lat="45.54802" lon="6.81431">
        <ele>2471.21</ele>
        <time>2013-03-04T15:05:16Z</time>
      </trkpt>
      <trkpt lat="45.54802" lon="6.81431">
        <ele>2471.21</ele>
        <time>2013-03-04T15:05:37Z</time>
      </trkpt>
      <trkpt lat="45.54802" lon="6.81431">
        <ele>2470.73</ele>
        <time>2013-03-04T15:06:04Z</time>
      </trkpt>
      <trkpt lat="45.54802" lon="6.81431">
        <ele>2471.21</ele>
        <time>2013-03-04T15:06:30Z</time>
      </trkpt>
      <trkpt lat="45.54805" lon="6.81426">
        <ele>2471.21</ele>
        <time>2013-03-04T15:06:37Z</time>
      </trkpt>
      <trkpt lat="45.54807" lon="6.81423">
        <ele>2472.65</ele>
        <time>2013-03-04T15:06:43Z</time>
      </trkpt>
      <trkpt lat="45.5481" lon="6.8142">
        <ele>2474.09</ele>
        <time>2013-03-04T15:06:48Z</time>
      </trkpt>
      <trkpt lat="45.54812" lon="6.81418">
        <ele>2474.57</ele>
        <time>2013-03-04T15:06:51Z</time>
      </trkpt>
      <trkpt lat="45.54813" lon="6.81415">
        <ele>2474.09</ele>
        <time>2013-03-04T15:06:58Z</time>
      </trkpt>
      <trkpt lat="45.54815" lon="6.81413">
        <ele>2474.57</ele>
        <time>2013-03-04T15:07:18Z</time>
      </trkpt>
      <trkpt lat="45.54818" lon="6.81409">
        <ele>2476.49</ele>
        <time>2013-03-04T15:07:27Z</time>
      </trkpt>
      <trkpt lat="45.54819" lon="6.81407">
        <ele>2476.97</ele>
        <time>2013-03-04T15:07:33Z</time>
      </trkpt>
      <trkpt lat="45.54821" lon="6.81407">
        <ele>2479.38</ele>
        <time>2013-03-04T15:07:51Z</time>
      </trkpt>
      <trkpt lat="45.54821" lon="6.81406">
        <ele>2479.86</ele>
        <time>2013-03-04T15:08:10Z</time>
      </trkpt>
      <trkpt lat="45.54823" lon="6.81405">
        <ele>2480.82</ele>
        <time>2013-03-04T15:08:34Z</time>
      </trkpt>
      <trkpt lat="45.54824" lon="6.81404">
        <ele>2481.3</ele>
        <time>2013-03-04T15:08:58Z</time>
      </trkpt>
      <trkpt lat="45.54825" lon="6.81401">
        <ele>2482.26</ele>
        <time>2013-03-04T15:09:18Z</time>
      </trkpt>
      <trkpt lat="45.54826" lon="6.81401">
        <ele>2482.26</ele>
        <time>2013-03-04T15:09:20Z</time>
      </trkpt>
      <trkpt lat="45.54834" lon="6.81397">
        <ele>2480.34</ele>
        <time>2013-03-04T15:09:29Z</time>
      </trkpt>
      <trkpt lat="45.54836" lon="6.81396">
        <ele>2481.78</ele>
        <time>2013-03-04T15:09:37Z</time>
      </trkpt>
      <trkpt lat="45.54836" lon="6.81395">
        <ele>2482.26</ele>
        <time>2013-03-04T15:09:38Z</time>
      </trkpt>
      <trkpt lat="45.5484" lon="6.81393">
        <ele>2484.18</ele>
        <time>2013-03-04T15:09:45Z</time>
      </trkpt>
      <trkpt lat="45.54847" lon="6.8139">
        <ele>2485.63</ele>
        <time>2013-03-04T15:09:53Z</time>
      </trkpt>
      <trkpt lat="45.54847" lon="6.81389">
        <ele>2485.15</ele>
        <time>2013-03-04T15:10:10Z</time>
      </trkpt>
      <trkpt lat="45.54848" lon="6.81388">
        <ele>2485.63</ele>
        <time>2013-03-04T15:10:26Z</time>
      </trkpt>
      <trkpt lat="45.54849" lon="6.81387">
        <ele>2485.63</ele>
        <time>2013-03-04T15:10:33Z</time>
      </trkpt>
      <trkpt lat="45.54852" lon="6.81381">
        <ele>2486.11</ele>
        <time>2013-03-04T15:10:39Z</time>
      </trkpt>
      <trkpt lat="45.54856" lon="6.81376">
        <ele>2486.59</ele>
        <time>2013-03-04T15:10:45Z</time>
      </trkpt>
      <trkpt lat="45.5486" lon="6.8137">
        <ele>2487.55</ele>
        <time>2013-03-04T15:10:51Z</time>
      </trkpt>
      <trkpt lat="45.54863" lon="6.81367">
        <ele>2488.03</ele>
        <time>2013-03-04T15:10:58Z</time>
      </trkpt>
      <trkpt lat="45.54863" lon="6.81367">
        <ele>2485.63</ele>
        <time>2013-03-04T15:11:22Z</time>
      </trkpt>
      <trkpt lat="45.54867" lon="6.81365">
        <ele>2485.15</ele>
        <time>2013-03-04T15:11:39Z</time>
      </trkpt>
      <trkpt lat="45.5487" lon="6.81364">
        <ele>2485.63</ele>
        <time>2013-03-04T15:11:47Z</time>
      </trkpt>
      <trkpt lat="45.54874" lon="6.81361">
        <ele>2487.07</ele>
        <time>2013-03-04T15:11:54Z</time>
      </trkpt>
      <trkpt lat="45.54878" lon="6.81356">
        <ele>2488.03</ele>
        <time>2013-03-04T15:12:02Z</time>
      </trkpt>
      <trkpt lat="45.5488" lon="6.81355">
        <ele>2488.51</ele>
        <time>2013-03-04T15:12:21Z</time>
      </trkpt>
      <trkpt lat="45.54886" lon="6.81352">
        <ele>2488.99</ele>
        <time>2013-03-04T15:12:29Z</time>
      </trkpt>
      <trkpt lat="45.54893" lon="6.81349">
        <ele>2489.47</ele>
        <time>2013-03-04T15:12:36Z</time>
      </trkpt>
      <trkpt lat="45.54894" lon="6.81348">
        <ele>2490.91</ele>
        <time>2013-03-04T15:12:51Z</time>
      </trkpt>
      <trkpt lat="45.54894" lon="6.81348">
        <ele>2492.36</ele>
        <time>2013-03-04T15:13:11Z</time>
      </trkpt>
      <trkpt lat="45.54897" lon="6.81346">
        <ele>2492.36</ele>
        <time>2013-03-04T15:13:18Z</time>
      </trkpt>
      <trkpt lat="45.54901" lon="6.81343">
        <ele>2493.32</ele>
        <time>2013-03-04T15:13:25Z</time>
      </trkpt>
      <trkpt lat="45.54907" lon="6.81343">
        <ele>2493.32</ele>
        <time>2013-03-04T15:13:33Z</time>
      </trkpt>
      <trkpt lat="45.54912" lon="6.81342">
        <ele>2492.84</ele>
        <time>2013-03-04T15:13:40Z</time>
      </trkpt>
      <trkpt lat="45.54915" lon="6.81343">
        <ele>2493.32</ele>
        <time>2013-03-04T15:13:48Z</time>
      </trkpt>
      <trkpt lat="45.54915" lon="6.81343">
        <ele>2493.8</ele>
        <time>2013-03-04T15:14:07Z</time>
      </trkpt>
      <trkpt lat="45.54915" lon="6.81343">
        <ele>2494.28</ele>
        <time>2013-03-04T15:14:19Z</time>
      </trkpt>
      <trkpt lat="45.54916" lon="6.81343">
        <ele>2494.28</ele>
        <time>2013-03-04T15:14:33Z</time>
      </trkpt>
      <trkpt lat="45.54917" lon="6.81344">
        <ele>2494.28</ele>
        <time>2013-03-04T15:14:48Z</time>
      </trkpt>
      <trkpt lat="45.54917" lon="6.81344">
        <ele>2494.28</ele>
        <time>2013-03-04T15:15:09Z</time>
      </trkpt>
      <trkpt lat="45.54917" lon="6.81344">
        <ele>2494.28</ele>
        <time>2013-03-04T15:15:33Z</time>
      </trkpt>
      <trkpt lat="45.54917" lon="6.81347">
        <ele>2493.8</ele>
        <time>2013-03-04T15:15:38Z</time>
      </trkpt>
      <trkpt lat="45.54914" lon="6.81365">
        <ele>2492.84</ele>
        <time>2013-03-04T15:15:48Z</time>
      </trkpt>
      <trkpt lat="45.54914" lon="6.81377">
        <ele>2491.39</ele>
        <time>2013-03-04T15:15:56Z</time>
      </trkpt>
      <trkpt lat="45.54913" lon="6.81381">
        <ele>2490.91</ele>
        <time>2013-03-04T15:15:59Z</time>
      </trkpt>
      <trkpt lat="45.54915" lon="6.8139">
        <ele>2490.91</ele>
        <time>2013-03-04T15:16:04Z</time>
      </trkpt>
      <trkpt lat="45.54915" lon="6.81399">
        <ele>2491.39</ele>
        <time>2013-03-04T15:16:11Z</time>
      </trkpt>
      <trkpt lat="45.54915" lon="6.81401">
        <ele>2491.39</ele>
        <time>2013-03-04T15:16:22Z</time>
      </trkpt>
      <trkpt lat="45.54916" lon="6.814">
        <ele>2490.43</ele>
        <time>2013-03-04T15:16:43Z</time>
      </trkpt>
      <trkpt lat="45.54916" lon="6.814">
        <ele>2489.95</ele>
        <time>2013-03-04T15:17:07Z</time>
      </trkpt>
      <trkpt lat="45.54916" lon="6.81402">
        <ele>2489.95</ele>
        <time>2013-03-04T15:17:17Z</time>
      </trkpt>
      <trkpt lat="45.54917" lon="6.8141">
        <ele>2489.47</ele>
        <time>2013-03-04T15:17:24Z</time>
      </trkpt>
      <trkpt lat="45.54918" lon="6.81416">
        <ele>2490.43</ele>
        <time>2013-03-04T15:17:37Z</time>
      </trkpt>
      <trkpt lat="45.54919" lon="6.81424">
        <ele>2490.43</ele>
        <time>2013-03-04T15:17:44Z</time>
      </trkpt>
      <trkpt lat="45.54921" lon="6.81436">
        <ele>2492.84</ele>
        <time>2013-03-04T15:17:53Z</time>
      </trkpt>
      <trkpt lat="45.54923" lon="6.81447">
        <ele>2494.76</ele>
        <time>2013-03-04T15:18:02Z</time>
      </trkpt>
      <trkpt lat="45.54924" lon="6.81457">
        <ele>2495.72</ele>
        <time>2013-03-04T15:18:09Z</time>
      </trkpt>
      <trkpt lat="45.54925" lon="6.81469">
        <ele>2495.24</ele>
        <time>2013-03-04T15:18:16Z</time>
      </trkpt>
      <trkpt lat="45.54925" lon="6.81481">
        <ele>2494.28</ele>
        <time>2013-03-04T15:18:24Z</time>
      </trkpt>
      <trkpt lat="45.54925" lon="6.81482">
        <ele>2494.28</ele>
        <time>2013-03-04T15:18:25Z</time>
      </trkpt>
      <trkpt lat="45.54926" lon="6.81487">
        <ele>2494.28</ele>
        <time>2013-03-04T15:18:29Z</time>
      </trkpt>
      <trkpt lat="45.54926" lon="6.81499">
        <ele>2494.28</ele>
        <time>2013-03-04T15:18:37Z</time>
      </trkpt>
      <trkpt lat="45.54928" lon="6.81509">
        <ele>2493.8</ele>
        <time>2013-03-04T15:18:44Z</time>
      </trkpt>
      <trkpt lat="45.54933" lon="6.81515">
        <ele>2493.8</ele>
        <time>2013-03-04T15:18:52Z</time>
      </trkpt>
      <trkpt lat="45.5494" lon="6.81515">
        <ele>2493.32</ele>
        <time>2013-03-04T15:19:00Z</time>
      </trkpt>
      <trkpt lat="45.54943" lon="6.81515">
        <ele>2492.84</ele>
        <time>2013-03-04T15:19:09Z</time>
      </trkpt>
      <trkpt lat="45.54944" lon="6.81516">
        <ele>2492.84</ele>
        <time>2013-03-04T15:19:18Z</time>
      </trkpt>
      <trkpt lat="45.54946" lon="6.81521">
        <ele>2491.87</ele>
        <time>2013-03-04T15:19:22Z</time>
      </trkpt>
      <trkpt lat="45.54946" lon="6.81528">
        <ele>2492.84</ele>
        <time>2013-03-04T15:19:31Z</time>
      </trkpt>
      <trkpt lat="45.54947" lon="6.81528">
        <ele>2491.87</ele>
        <time>2013-03-04T15:19:49Z</time>
      </trkpt>
      <trkpt lat="45.54947" lon="6.81528">
        <ele>2492.36</ele>
        <time>2013-03-04T15:20:00Z</time>
      </trkpt>
      <trkpt lat="45.54947" lon="6.81531">
        <ele>2492.36</ele>
        <time>2013-03-04T15:20:09Z</time>
      </trkpt>
      <trkpt lat="45.54947" lon="6.81531">
        <ele>2494.76</ele>
        <time>2013-03-04T15:20:33Z</time>
      </trkpt>
      <trkpt lat="45.54947" lon="6.8153">
        <ele>2495.24</ele>
        <time>2013-03-04T15:20:54Z</time>
      </trkpt>
      <trkpt lat="45.54947" lon="6.81529">
        <ele>2496.68</ele>
        <time>2013-03-04T15:21:22Z</time>
      </trkpt>
      <trkpt lat="45.54947" lon="6.8153">
        <ele>2496.68</ele>
        <time>2013-03-04T15:21:48Z</time>
      </trkpt>
      <trkpt lat="45.54947" lon="6.81529">
        <ele>2496.68</ele>
        <time>2013-03-04T15:21:56Z</time>
      </trkpt>
      <trkpt lat="45.54947" lon="6.8153">
        <ele>2496.68</ele>
        <time>2013-03-04T15:22:08Z</time>
      </trkpt>
      <trkpt lat="45.54947" lon="6.81529">
        <ele>2496.2</ele>
        <time>2013-03-04T15:22:27Z</time>
      </trkpt>
      <trkpt lat="45.54947" lon="6.81529">
        <ele>2496.2</ele>
        <time>2013-03-04T15:22:40Z</time>
      </trkpt>
      <trkpt lat="45.54947" lon="6.81529">
        <ele>2495.72</ele>
        <time>2013-03-04T15:22:51Z</time>
      </trkpt>
      <trkpt lat="45.54948" lon="6.81529">
        <ele>2495.72</ele>
        <time>2013-03-04T15:22:53Z</time>
      </trkpt>
      <trkpt lat="45.54947" lon="6.8153">
        <ele>2495.72</ele>
        <time>2013-03-04T15:23:02Z</time>
      </trkpt>
      <trkpt lat="45.54947" lon="6.81529">
        <ele>2495.72</ele>
        <time>2013-03-04T15:23:21Z</time>
      </trkpt>
      <trkpt lat="45.54947" lon="6.81529">
        <ele>2495.24</ele>
        <time>2013-03-04T15:23:38Z</time>
      </trkpt>
      <trkpt lat="45.54947" lon="6.81527">
        <ele>2494.76</ele>
        <time>2013-03-04T15:23:50Z</time>
      </trkpt>
      <trkpt lat="45.54947" lon="6.81528">
        <ele>2494.76</ele>
        <time>2013-03-04T15:24:09Z</time>
      </trkpt>
      <trkpt lat="45.54947" lon="6.81528">
        <ele>2495.24</ele>
        <time>2013-03-04T15:24:27Z</time>
      </trkpt>
      <trkpt lat="45.54947" lon="6.81528">
        <ele>2495.24</ele>
        <time>2013-03-04T15:24:44Z</time>
      </trkpt>
      <trkpt lat="45.54946" lon="6.81528">
        <ele>2495.72</ele>
        <time>2013-03-04T15:24:52Z</time>
      </trkpt>
      <trkpt lat="45.54948" lon="6.81528">
        <ele>2496.2</ele>
        <time>2013-03-04T15:25:03Z</time>
      </trkpt>
      <trkpt lat="45.54947" lon="6.81529">
        <ele>2496.2</ele>
        <time>2013-03-04T15:25:11Z</time>
      </trkpt>
      <trkpt lat="45.54948" lon="6.8153">
        <ele>2496.2</ele>
        <time>2013-03-04T15:25:24Z</time>
      </trkpt>
      <trkpt lat="45.54948" lon="6.81529">
        <ele>2496.2</ele>
        <time>2013-03-04T15:25:30Z</time>
      </trkpt>
      <trkpt lat="45.54948" lon="6.8153">
        <ele>2496.68</ele>
        <time>2013-03-04T15:25:41Z</time>
      </trkpt>
      <trkpt lat="45.54948" lon="6.8153">
        <ele>2496.68</ele>
        <time>2013-03-04T15:25:43Z</time>
      </trkpt>
    </trkseg>
  </trk>
</gpx>